[[{"header":{"parameterUnit":"m.s-1","parameterCategory":1,"la1":31.0,"la2":29.5877,"lo1":-88.7671,"lo2":-86.6584,"dy":0.0162,"dx":0.0185,"nx":115,"ny":88,"refTime":"2023-09-28T18:00:00:Z","depth":0,"parameterNumber":2,"parameterNumberName":"U-component_of_WINDS"},"data":[0.0,0.0,0.0,0.0,0.0,0.0,0.0,0.0,0.0,0.0,0.0,0.0,0.0,0.0,0.0,0.0,0.0,0.0,0.0,0.0,0.0,0.0,0.0,0.0,0.0,0.0,0.0,0.0,0.0,0.0,0.0,0.0,0.0,0.0,0.0,0.0,0.0,0.0,0.0,0.0,0.0,0.0,0.0,0.0,0.0,0.0,0.0,0.0,0.0,0.0,0.0,0.0,0.0,0.0,0.0,0.0,0.0,0.0,0.0,0.0,0.0,0.0,0.0,0.0,0.0,0.0,0.0,0.0,0.0,0.0,0.0,0.0,0.0,0.0,0.0,0.0,0.0,0.0,0.0,0.0,0.0,0.0,0.0,0.0,0.0,0.0,0.0,0.0,0.0,0.0,0.0,0.0,0.0,0.0,0.0,0.0,0.0,0.0,0.0,0.0,0.0,0.0,0.0,0.0,0.0,0.0,0.0,0.0,0.0,0.0,0.0,0.0,0.0,0.0,0.0,0.0,0.0,0.0,0.0,0.0,0.0,0.0,0.0,0.0,0.0,0.0,0.0,0.0,0.0,0.0,0.0,0.0,0.0,0.0,0.0,0.0,0.0,0.0,0.0,0.0,0.0,0.0,0.0,0.0,0.0,0.0,0.0,0.0,0.0,0.0,0.0,0.0,0.0,0.0,0.0,0.0,0.0,0.0,0.0,0.0,0.0,0.0,0.0,0.0,0.0,0.0,0.0,0.0,0.0,0.0,0.0,0.0,0.0,0.0,0.0,0.0,0.0,0.0,0.0,0.0,0.0,0.0,0.0,0.0,0.0,0.0,0.0,0.0,0.0,0.0,0.0,0.0,0.0,0.0,0.0,0.0,0.0,0.0,0.0,0.0,0.0,0.0,0.0,0.0,0.0,0.0,0.0,0.0,0.0,0.0,0.0,0.0,0.0,0.0,0.0,0.0,0.0,0.0,0.0,0.0,0.0,0.0,0.0,0.0,0.0,0.0,0.0,0.0,0.0,0.0,0.0,0.0,0.0,0.0,0.0,0.0,0.0,0.0,0.0,0.0,0.0,0.0,0.0,0.0,0.0,0.0,0.0,0.0,0.0,0.0,0.0,0.0,0.0,0.0,0.0,0.0,0.0,0.0,0.0,0.0,0.0,0.0,0.0,0.0,0.0,0.0,0.0,0.0,0.0,0.0,0.0,0.0,0.0,0.0,0.0,0.0,0.0,0.0,0.0,0.0,0.0,0.0,0.0,0.0,0.0,0.0,0.0,0.0,0.0,0.0,0.0,0.0,0.0,0.0,0.0,0.0,0.0,0.0,0.0,0.0,0.0,0.0,0.0,0.0,0.0,0.0,0.0,0.0,0.0,0.0,0.0,0.0,0.0,0.0,0.0,0.0,0.0,0.0,0.0,0.0,0.0,0.0,0.0,0.0,0.0,0.0,0.0,0.0,0.0,0.0,0.0,0.0,0.0,0.0,0.0,0.0,0.0,0.0,0.0,0.0,0.0,0.0,0.0,0.0,0.0,0.0,0.0,0.0,0.0,0.0,0.0,0.0,0.0,0.0,0.0,0.0,0.0,0.0,0.0,0.0,0.0,0.0,0.0,0.0,0.0,0.0,0.0,0.0,0.0,0.0,0.0,0.0,0.0,0.0,0.0,0.0,0.0,0.0,0.0,0.0,0.0,0.0,0.0,0.0,0.0,0.0,0.0,0.0,0.0,0.0,0.0,0.0,0.0,0.0,0.0,0.0,0.0,0.0,0.0,0.0,0.0,0.0,0.0,0.0,0.0,0.0,0.0,0.0,0.0,0.0,0.0,0.0,0.0,0.0,0.0,0.0,0.0,0.0,0.0,0.0,0.0,0.0,0.0,0.0,0.0,0.0,0.0,0.0,0.0,0.0,0.0,0.0,0.0,0.0,0.0,0.0,0.0,0.0,0.0,0.0,0.0,0.0,0.0,0.0,0.0,0.0,0.0,0.0,0.0,0.0,0.0,0.0,0.0,0.0,0.0,0.0,0.0,0.0,0.0,0.0,0.0,0.0,0.0,0.0,0.0,0.0,0.0,0.0,0.0,0.0,0.0,0.0,0.0,0.0,0.0,0.0,0.0,0.0,0.0,0.0,0.0,0.0,0.0,0.0,0.0,0.0,0.0,0.0,0.0,0.0,0.0,0.0,0.0,0.0,0.0,0.0,0.0,0.0,0.0,0.0,0.0,0.0,0.0,0.0,0.0,0.0,0.0,0.0,0.0,0.0,0.0,0.0,0.0,0.0,0.0,0.0,0.0,0.0,0.0,0.0,0.0,0.0,0.0,0.0,0.0,0.0,0.0,0.0,0.0,0.0,0.0,0.0,0.0,0.0,0.0,0.0,0.0,0.0,0.0,0.0,0.0,0.0,0.0,0.0,0.0,0.0,0.0,0.0,0.0,0.0,0.0,0.0,0.0,0.0,0.0,0.0,0.0,0.0,0.0,0.0,0.0,0.0,0.0,0.0,0.0,0.0,0.0,0.0,0.0,0.0,0.0,0.0,0.0,0.0,0.0,0.0,0.0,0.0,0.0,0.0,0.0,0.0,0.0,0.0,0.0,0.0,0.0,0.0,0.0,0.0,0.0,0.0,0.0,0.0,0.0,0.0,0.0,0.0,0.0,0.0,0.0,0.0,0.0,0.0,0.0,0.0,0.0,0.0,0.0,0.0,0.0,0.0,0.0,0.0,0.0,0.0,0.0,0.0,0.0,0.0,0.0,0.0,0.0,0.0,0.0,0.0,0.0,0.0,0.0,0.0,0.0,0.0,0.0,0.0,0.0,0.0,0.0,0.0,0.0,0.0,0.0,0.0,0.0,0.0,0.0,0.0,0.0,0.0,0.0,0.0,0.0,0.0,0.0,0.0,0.0,0.0,0.0,0.0,0.0,0.0,0.0,0.0,0.0,0.0,0.0,0.0,0.0,0.0,0.0,0.0,0.0,0.0,0.0,0.0,0.0,0.0,0.0,0.0,0.0,0.0,0.0,0.0,0.0,0.0,0.0,0.0,0.0,0.0,0.0,0.0,0.0,0.0,0.0,0.0,0.0,0.0,0.0,0.0,0.0,0.0,0.0,0.0,0.0,0.0,0.0,0.0,0.0,0.0,0.0,0.0,0.0,0.0,0.0,0.0,0.0,0.0,0.0,0.0,0.0,0.0,0.0,0.0,0.0,0.0,0.0,0.0,0.0,0.0,0.0,0.0,0.0,0.0,0.0,0.0,0.0,0.0,0.0,0.0,0.0,0.0,0.0,0.0,0.0,0.0,0.0,0.0,0.0,0.0,0.0,0.0,0.0,0.0,0.0,0.0,0.0,0.0,0.0,0.0,0.0,0.0,0.0,0.0,0.0,0.0,0.0,0.0,0.0,0.0,0.0,0.0,0.0,0.0,0.0,0.0,0.0,0.0,0.0,0.0,0.0,0.0,0.0,0.0,0.0,0.0,0.0,0.0,0.0,0.0,0.0,0.0,0.0,0.0,0.0,0.0,0.0,0.0,0.0,0.0,0.0,0.0,0.0,0.0,0.0,0.0,0.0,0.0,0.0,0.0,0.0,0.0,0.0,0.0,0.0,0.0,0.0,0.0,0.0,0.0,0.0,0.0,0.0,0.0,0.0,0.0,0.0,0.0,0.0,0.0,0.0,0.0,0.0,0.0,0.0,0.0,0.0,0.0,0.0,0.0,0.0,0.0,0.0,0.0,0.0,0.0,0.0,0.0,0.0,0.0,0.0,0.0,0.0,0.0,0.0,0.0,0.0,0.0,0.0,0.0,0.0,0.0,0.0,0.0,0.0,0.0,0.0,0.0,0.0,0.0,0.0,0.0,0.0,0.0,0.0,0.0,0.0,0.0,0.0,0.0,0.0,0.0,0.0,0.0,0.0,0.0,0.0,0.0,0.0,0.0,0.0,0.0,0.0,0.0,0.0,0.0,0.0,0.0,0.0,0.0,0.0,0.0,0.0,0.0,0.0,0.0,0.0,0.0,0.0,0.0,0.0,0.0,0.0,0.0,0.0,0.0,0.0,0.0,0.0,0.0,0.0,0.0,0.0,0.0,0.0,0.0,0.0,0.0,0.0,0.0,0.0,0.0,0.0,0.0,0.0,0.0,0.0,0.0,0.0,0.0,0.0,0.0,0.0,0.0,0.0,0.0,0.0,0.0,0.0,0.0,0.0,0.0,0.0,0.0,0.0,0.0,0.0,0.0,0.0,0.0,0.0,0.0,0.0,0.0,0.0,0.0,0.0,0.0,1.2273,0.0,0.0,0.0,0.0,0.0,0.0,0.0,0.0,0.0,0.0,0.0,0.0,0.0,0.0,0.0,0.0,0.0,0.0,0.0,0.0,0.0,0.0,0.0,0.0,0.0,0.0,0.0,0.0,0.0,0.0,0.0,0.0,0.0,0.0,0.0,0.0,0.0,0.0,0.0,0.0,0.0,0.0,0.0,0.0,0.0,0.0,0.0,0.0,0.0,0.0,0.0,0.0,0.0,0.0,0.0,0.0,0.0,0.0,0.0,0.0,0.0,0.0,0.0,0.0,0.0,0.0,0.0,0.0,0.0,0.0,0.0,0.0,0.0,0.0,0.0,0.0,0.0,0.0,0.0,0.0,0.0,0.0,0.0,0.0,0.0,0.0,0.0,0.0,0.0,0.0,0.0,0.0,0.0,0.0,0.0,0.0,0.0,0.0,0.0,0.0,0.0,0.0,0.0,0.0,0.0,0.0,0.0,0.0,0.0,0.0,1.2919,1.2345,1.3134,1.3047,1.1873,0.0,0.0,0.0,0.0,0.0,0.0,0.0,0.0,0.0,0.0,0.0,0.0,0.0,0.0,0.0,0.0,0.0,0.0,0.0,0.0,0.0,0.0,0.0,0.0,0.0,0.0,0.0,0.0,0.0,0.0,0.0,0.0,0.0,0.0,0.0,0.0,0.0,0.0,0.0,0.0,0.0,0.0,0.0,0.0,0.0,0.0,0.0,0.0,0.0,0.0,0.0,0.0,0.0,0.0,0.0,0.0,0.0,0.0,0.0,0.0,0.0,0.0,0.0,0.0,0.0,0.0,0.0,0.0,0.0,0.0,0.0,0.0,0.0,0.0,0.0,0.0,0.0,0.0,0.0,0.0,0.0,0.0,0.0,0.0,0.0,0.0,0.0,0.0,0.0,0.0,0.0,0.0,0.0,0.0,0.0,0.0,0.0,0.0,0.0,0.0,0.0,0.0,0.0,0.0,0.0,0.0,0.0,0.0,0.0,0.0,0.0,0.0,1.3147,1.2974,1.1873,0.0,0.0,0.0,0.0,0.0,0.0,0.0,0.0,0.0,0.0,0.0,0.0,0.0,0.0,0.0,0.0,0.0,0.0,0.0,0.0,0.0,0.0,0.0,0.0,0.0,0.0,0.0,0.0,0.0,0.0,0.0,0.0,0.0,0.0,0.0,0.0,0.0,0.0,0.0,0.0,0.0,0.0,0.0,0.0,0.0,0.0,0.0,0.0,0.0,0.0,0.0,0.0,0.0,0.0,0.0,0.0,0.0,0.0,0.0,0.0,0.0,0.0,0.0,0.0,0.0,0.0,0.0,0.0,0.0,0.0,0.0,0.0,0.0,0.0,0.0,0.0,0.0,0.0,0.0,0.0,0.0,0.0,0.0,0.0,0.0,0.0,0.0,0.0,0.0,0.0,0.0,0.0,0.0,0.0,0.0,0.0,0.0,0.0,0.0,0.0,0.0,0.0,0.0,0.0,0.0,0.0,0.0,0.0,0.0,0.0,1.2625,1.3087,1.32,0.0,1.3007,0.0,0.0,0.0,0.0,0.0,0.0,0.0,0.0,0.0,0.0,0.0,0.0,0.0,0.0,0.0,0.0,0.0,0.0,0.0,0.0,0.0,0.0,0.0,0.0,0.0,0.0,0.0,0.0,0.0,0.0,0.0,0.0,0.0,0.0,0.0,0.0,0.0,0.0,0.0,0.0,0.0,0.0,0.0,0.0,0.0,0.0,0.0,0.0,0.0,0.0,0.0,0.0,0.0,0.0,0.0,0.0,0.0,0.0,0.0,0.0,0.0,0.0,0.0,0.0,0.0,0.0,0.0,0.0,0.0,0.0,0.0,0.0,0.0,0.0,0.0,0.0,0.0,0.0,0.0,0.0,0.0,0.0,0.0,0.0,0.0,0.0,0.0,0.0,0.0,0.0,0.0,0.0,0.0,0.0,0.0,0.0,0.0,0.0,0.0,0.0,0.0,0.0,0.0,0.0,0.0,0.0,0.0,0.0,0.0,0.0,1.2585,1.318,1.3046,1.2872,0.0,0.0,0.0,0.0,0.0,0.0,0.0,0.0,0.0,0.0,0.0,0.0,0.0,0.0,0.0,0.0,0.0,0.0,0.0,0.0,0.0,0.0,0.0,0.0,0.0,0.0,0.0,0.0,0.0,0.0,0.0,0.0,0.0,0.0,0.0,0.0,0.0,0.0,0.0,0.0,0.0,0.0,0.0,0.0,0.0,0.0,0.0,0.0,0.0,0.0,0.0,0.0,0.0,0.0,0.0,0.0,0.0,0.0,0.0,0.0,0.0,0.0,0.0,0.0,0.0,0.0,0.0,0.0,0.0,0.0,0.0,0.0,0.0,0.0,0.0,0.0,0.0,0.0,0.0,0.0,0.0,0.0,0.0,0.0,0.0,0.0,0.0,0.0,0.0,0.0,0.0,0.0,0.0,0.0,0.0,0.0,0.0,0.0,0.0,0.0,0.0,0.0,0.0,0.0,0.0,0.0,0.0,0.0,0.0,0.0,1.2639,1.278,1.3247,1.2885,1.2596,1.2425,0.0,0.0,0.0,0.0,0.0,0.0,0.0,0.0,0.0,0.0,0.0,0.0,0.0,0.0,0.0,0.0,0.0,0.0,0.0,0.0,0.0,0.0,0.0,0.0,0.0,0.0,0.0,0.0,0.0,0.0,0.0,0.0,0.0,0.0,0.0,0.0,0.0,0.0,0.0,0.0,0.0,0.0,0.0,0.0,0.0,0.0,0.0,0.0,0.0,0.0,0.0,0.0,0.0,0.0,0.0,0.0,0.0,0.0,0.0,0.0,0.0,0.0,0.0,0.0,0.0,0.0,0.0,0.0,0.0,0.0,0.0,0.0,0.0,0.0,0.0,0.0,0.0,0.0,0.0,0.0,0.0,0.0,0.0,0.0,0.0,0.0,0.0,0.0,0.0,0.0,0.0,0.0,0.0,0.0,0.0,0.0,0.0,0.0,0.0,0.0,0.0,0.0,0.0,0.0,0.0,0.0,0.0,0.0,1.3929,1.344,1.33,1.3547,1.2772,1.247,0.0,0.0,0.0,0.0,0.0,0.0,0.0,0.0,0.0,0.0,0.0,0.0,0.0,0.0,0.0,0.0,0.0,0.0,0.0,0.0,0.0,0.0,0.0,0.0,0.0,0.0,0.0,0.0,0.0,0.0,0.0,0.0,0.0,0.0,0.0,0.0,0.0,0.0,0.0,0.0,0.0,0.0,0.0,0.0,0.0,0.0,0.0,0.0,0.0,0.0,0.0,0.0,0.0,0.0,0.0,0.0,0.0,0.0,0.0,0.0,0.0,0.0,0.0,0.0,0.0,0.0,0.0,0.0,0.0,0.0,0.0,0.0,0.0,0.0,0.0,0.0,0.0,0.0,0.0,0.0,0.0,0.0,0.0,0.0,0.0,0.0,0.0,0.0,0.0,0.0,0.0,0.0,0.0,0.0,0.0,0.0,0.0,0.0,0.0,0.0,0.0,0.0,0.0,0.0,0.0,0.0,0.0,0.0,0.0,1.2933,1.3273,1.3433,1.334,1.3033,1.2933,0.0,0.0,0.0,0.0,0.0,0.0,0.0,0.0,0.0,0.0,0.0,0.0,0.0,0.0,0.0,0.0,0.0,0.0,0.0,0.0,0.0,0.0,0.0,0.0,0.0,0.0,0.0,0.0,0.0,0.0,0.0,0.0,0.0,0.0,0.0,0.0,0.0,0.0,0.0,0.0,0.0,0.0,0.0,0.0,0.0,0.0,0.0,0.0,0.0,0.0,0.0,0.0,0.0,0.0,0.0,0.0,0.0,0.0,0.0,0.0,0.0,0.0,0.0,0.0,0.0,0.0,0.0,0.0,0.0,0.0,0.0,0.0,0.0,0.0,0.0,0.0,0.0,0.0,0.0,0.0,0.0,0.0,0.0,0.0,0.0,0.0,0.0,0.0,0.0,0.0,0.0,0.0,0.0,0.0,0.0,0.0,0.0,0.0,0.0,0.0,0.0,0.0,0.0,0.0,0.0,0.0,0.0,0.0,0.0,1.2612,0.0,1.358,1.3207,1.312,1.2973,0.0,0.0,0.0,0.0,0.0,0.0,0.0,0.0,0.0,0.0,0.0,0.0,0.0,0.0,0.0,0.0,0.0,0.0,0.0,0.0,0.0,0.0,0.0,0.0,0.0,0.0,0.0,0.0,0.0,0.0,0.0,0.0,0.0,0.0,0.0,0.0,0.0,0.0,0.0,0.0,0.0,0.0,0.0,0.0,0.0,0.0,0.0,0.0,0.0,0.0,0.0,0.0,0.0,0.0,0.0,0.0,0.0,0.0,0.0,0.0,0.0,0.0,0.0,0.0,0.0,0.0,0.0,0.0,0.0,0.0,0.0,0.0,0.0,0.0,0.0,0.0,0.0,0.0,0.0,0.0,0.0,0.0,0.0,0.0,0.0,0.0,0.0,0.0,0.0,0.0,0.0,0.0,0.0,0.0,0.0,0.0,0.0,0.0,0.0,0.0,0.0,0.0,0.0,0.0,0.0,0.0,0.0,0.0,1.2323,1.316,1.3761,1.3801,1.3233,1.2965,1.2529,0.0,0.0,0.0,0.0,0.0,0.0,0.0,0.0,0.0,0.0,0.0,0.0,0.0,0.0,0.0,0.0,0.0,0.0,0.0,0.0,0.0,0.0,0.0,0.0,0.0,0.0,0.0,0.0,0.0,0.0,0.0,0.0,0.0,0.0,0.0,0.0,0.0,0.0,0.0,0.0,0.0,0.0,0.0,0.0,0.0,0.0,0.0,0.0,0.0,0.0,0.0,0.0,0.0,0.0,0.0,0.0,0.0,0.0,0.0,0.0,0.0,0.0,0.0,0.0,0.0,0.0,0.0,0.0,0.0,0.0,0.0,0.0,0.0,0.0,0.0,0.0,0.0,0.0,0.0,0.0,0.0,0.0,0.0,0.0,0.0,0.0,0.0,0.0,0.0,0.0,0.0,0.0,0.0,0.0,0.0,0.0,0.0,0.0,0.0,0.0,0.0,0.0,0.0,0.0,0.0,0.0,0.0,0.0,0.0,1.2585,1.3353,1.3874,1.4047,1.3266,1.3018,0.0,0.0,0.0,0.0,0.0,0.0,0.0,0.0,0.0,0.0,0.0,0.0,0.0,0.0,0.0,0.0,0.0,0.0,0.0,0.0,0.0,0.0,0.0,0.0,0.0,0.0,0.0,0.0,0.0,0.0,0.0,0.0,0.0,0.0,0.0,0.0,0.0,0.0,0.0,0.0,0.0,0.0,0.0,0.0,0.0,0.0,0.0,0.0,0.0,0.0,0.0,0.0,0.0,0.0,0.0,0.0,0.0,0.0,0.0,0.0,0.0,0.0,0.0,0.0,0.0,0.0,0.0,0.0,0.0,0.0,0.0,0.0,0.0,0.0,0.0,0.0,0.0,0.0,0.0,0.0,0.0,0.0,0.0,0.0,0.0,0.0,0.0,0.0,0.0,0.0,0.0,0.0,0.0,0.0,0.0,0.0,0.0,0.0,0.0,0.0,0.0,0.0,0.0,0.0,0.0,0.0,0.0,0.0,0.0,1.2986,1.3734,1.4234,1.4487,1.3715,1.3387,1.3567,0.0,0.0,0.0,0.0,0.0,0.0,0.0,0.0,0.0,0.0,0.0,0.0,0.0,0.0,0.0,0.0,0.0,0.0,0.0,0.0,0.0,0.0,0.0,0.0,0.0,0.0,0.0,0.0,0.0,0.0,0.0,0.0,0.0,0.0,0.0,0.0,0.0,0.0,0.0,0.0,0.0,0.0,0.0,0.0,0.0,0.0,0.0,0.0,0.0,0.0,0.0,0.0,0.0,0.0,0.0,0.0,0.0,0.0,0.0,0.0,0.0,0.0,0.0,0.0,0.0,0.0,0.0,0.0,0.0,0.0,0.0,0.0,0.0,0.0,0.0,0.0,0.0,0.0,0.0,0.0,0.0,0.0,0.0,0.0,0.0,0.0,0.0,0.0,0.0,0.0,0.0,0.0,0.0,0.0,0.0,0.0,0.0,0.0,0.0,0.0,0.0,0.0,0.0,0.0,0.0,0.0,0.0,0.0,1.417,1.4785,1.4972,1.4621,1.4269,1.3715,0.0,0.0,0.0,0.0,0.0,0.0,0.0,0.0,0.0,0.0,0.0,0.0,0.0,0.0,0.0,0.0,0.0,0.0,0.0,0.0,0.0,0.0,0.0,0.0,0.0,0.0,0.0,0.0,0.0,0.0,0.0,0.0,0.0,0.0,0.0,0.0,0.0,0.0,0.0,0.0,0.0,0.0,0.0,0.0,0.0,0.0,0.0,0.0,0.0,0.0,0.0,0.0,0.0,0.0,0.0,0.0,0.0,0.0,0.0,0.0,0.0,0.0,0.0,0.0,0.0,0.0,0.0,0.0,0.0,0.0,0.0,0.0,0.0,0.0,0.0,0.0,0.0,0.0,0.0,0.0,0.0,0.0,0.0,0.0,0.0,0.0,0.0,0.0,0.0,0.0,0.0,0.0,0.0,0.0,0.0,0.0,0.0,0.0,0.0,0.0,0.0,0.0,0.0,0.0,0.0,0.0,0.0,0.0,0.0,1.5044,1.6083,1.6388,1.5829,1.4696,1.4082,0.0,0.0,0.0,0.0,0.0,0.0,0.0,0.0,0.0,0.0,0.0,0.0,0.0,0.0,0.0,0.0,0.0,0.0,0.0,0.0,0.0,0.0,0.0,0.0,0.0,0.0,0.0,0.0,0.0,0.0,0.0,0.0,0.0,0.0,0.0,0.0,0.0,0.0,0.0,0.0,0.0,0.0,0.0,0.0,0.0,0.0,0.0,0.0,0.0,0.0,0.0,0.0,0.0,0.0,0.0,0.0,0.0,0.0,0.0,0.0,0.0,0.0,0.0,0.0,0.0,0.0,0.0,0.0,0.0,0.0,0.0,0.0,0.0,0.0,0.0,0.0,0.0,0.0,0.0,0.0,0.0,0.0,0.0,0.0,0.0,0.0,0.0,0.0,0.0,0.0,0.0,0.0,0.0,0.0,0.0,0.0,0.0,0.0,0.0,0.0,0.0,0.0,0.0,0.0,0.0,0.0,0.0,0.0,1.507,1.5939,1.6981,1.7368,1.7021,1.5735,1.479,0.0,0.0,0.0,0.0,0.0,0.0,0.0,0.0,0.0,0.0,0.0,0.0,0.0,0.0,0.0,0.0,0.0,0.0,0.0,0.0,0.0,0.0,0.0,0.0,0.0,0.0,0.0,0.0,0.0,0.0,0.0,0.0,0.0,0.0,0.0,0.0,0.0,0.0,0.0,0.0,0.0,0.0,0.0,0.0,0.0,0.0,0.0,0.0,0.0,0.0,0.0,0.0,0.0,0.0,0.0,0.0,0.0,0.0,0.0,0.0,0.0,0.0,0.0,0.0,0.0,0.0,0.0,0.0,0.0,0.0,0.0,0.0,0.0,0.0,0.0,0.0,0.0,0.0,0.0,0.0,0.0,0.0,0.0,0.0,0.0,0.0,0.0,0.0,0.0,0.0,0.0,0.0,0.0,0.0,0.0,0.0,0.0,0.0,0.0,0.0,0.0,0.0,0.0,0.0,0.0,0.0,0.0,0.0,1.5899,1.6834,1.7662,1.8049,1.7969,1.686,1.5591,0.0,0.0,0.0,0.0,0.0,0.0,0.0,0.0,0.0,0.0,0.0,0.0,0.0,0.0,0.0,0.0,0.0,0.0,0.0,0.0,0.0,0.0,0.0,0.0,0.0,0.0,0.0,0.0,0.0,0.0,0.0,0.0,0.0,0.0,0.0,0.0,0.0,0.0,0.0,0.0,0.0,0.0,0.0,0.0,0.0,0.0,0.0,0.0,0.0,0.0,0.0,0.0,0.0,0.0,0.0,0.0,0.0,0.0,0.0,0.0,0.0,0.0,0.0,0.0,0.0,0.0,0.0,0.0,0.0,0.0,0.0,0.0,0.0,0.0,0.0,0.0,0.0,0.0,0.0,0.0,0.0,0.0,0.0,0.0,0.0,0.0,0.0,0.0,0.0,0.0,0.0,0.0,0.0,0.0,0.0,0.0,0.0,0.0,0.0,0.0,0.0,0.0,0.0,0.0,0.0,0.0,0.0,0.0,1.6368,1.7702,1.8369,1.8489,1.8022,1.6648,1.5565,0.0,0.0,0.0,0.0,0.0,0.0,0.0,0.0,0.0,0.0,0.0,0.0,0.0,0.0,0.0,0.0,0.0,0.0,0.0,0.0,0.0,0.0,0.0,0.0,0.0,0.0,0.0,0.0,0.0,0.0,0.0,0.0,0.0,0.0,0.0,0.0,0.0,0.0,0.0,0.0,0.0,0.0,0.0,0.0,0.0,0.0,0.0,0.0,1.4544,0.0,0.0,0.0,0.0,0.0,0.0,0.0,0.0,0.0,0.0,0.0,0.0,0.0,0.0,0.0,0.0,0.0,0.0,0.0,0.0,0.0,0.0,0.0,0.0,0.0,0.0,0.0,0.0,0.0,0.0,0.0,0.0,0.0,0.0,0.0,0.0,0.0,0.0,0.0,0.0,0.0,0.0,0.0,0.0,0.0,0.0,0.0,0.0,0.0,0.0,0.0,0.0,0.0,0.0,0.0,0.0,0.0,0.0,0.0,1.6875,1.821,1.8557,1.8571,1.8196,1.7088,1.6003,0.0,0.0,0.0,0.0,0.0,0.0,0.0,0.0,0.0,0.0,0.0,0.0,0.0,0.0,0.0,0.0,0.0,0.0,0.0,0.0,0.0,0.0,0.0,0.0,0.0,0.0,0.0,0.0,0.0,0.0,0.0,0.0,0.0,0.0,0.0,0.0,0.0,0.0,0.0,0.0,0.0,0.0,0.0,0.0,0.0,0.0,0.0,0.0,0.0,0.0,0.0,0.0,0.0,0.0,0.0,0.0,0.0,0.0,0.0,0.0,0.0,0.0,0.0,0.0,0.0,0.0,0.0,0.0,0.0,0.0,0.0,0.0,0.0,0.0,0.0,0.0,0.0,0.0,0.0,0.0,0.0,0.0,0.0,0.0,0.0,0.0,0.0,0.0,0.0,0.0,0.0,0.0,0.0,0.0,0.0,0.0,0.0,0.0,0.0,0.0,0.0,0.0,0.0,0.0,0.0,0.0,0.0,1.6072,1.7194,1.8424,1.8531,1.8545,1.8424,1.7662,1.6563,1.5089,0.0,0.0,0.0,0.0,0.0,0.0,0.0,0.0,0.0,0.0,0.0,0.0,0.0,0.0,0.0,0.0,0.0,0.0,0.0,0.0,0.0,0.0,0.0,0.0,0.0,0.0,0.0,0.0,0.0,0.0,0.0,0.0,0.0,0.0,0.0,0.0,0.0,0.0,1.429,1.4469,0.0,0.0,0.0,0.0,0.0,0.0,0.0,0.0,1.4776,0.0,0.0,0.0,0.0,0.0,0.0,0.0,0.0,0.0,0.0,0.0,0.0,0.0,0.0,0.0,0.0,0.0,0.0,0.0,0.0,0.0,0.0,0.0,0.0,0.0,0.0,0.0,0.0,0.0,0.0,0.0,0.0,0.0,0.0,0.0,0.0,0.0,0.0,0.0,0.0,0.0,0.0,0.0,0.0,0.0,0.0,0.0,0.0,0.0,0.0,0.0,0.0,0.0,0.0,0.0,0.0,1.5635,1.5848,1.6769,1.8437,1.8731,1.8596,1.8103,1.7729,1.6739,1.5129,0.0,0.0,0.0,0.0,0.0,0.0,0.0,0.0,0.0,0.0,0.0,0.0,0.0,0.0,0.0,0.0,0.0,0.0,0.0,0.0,0.0,0.0,0.0,0.0,0.0,0.0,0.0,0.0,0.0,0.0,0.0,0.0,0.0,0.0,0.0,0.0,0.0,0.0,0.0,1.5039,1.5026,0.0,0.0,0.0,0.0,0.0,0.0,0.0,0.0,1.4767,0.0,0.0,0.0,0.0,0.0,0.0,0.0,0.0,0.0,0.0,0.0,0.0,0.0,0.0,0.0,0.0,0.0,0.0,0.0,0.0,0.0,0.0,0.0,0.0,0.0,0.0,0.0,0.0,0.0,0.0,0.0,0.0,0.0,0.0,0.0,0.0,0.0,0.0,0.0,0.0,0.0,0.0,0.0,0.0,0.0,0.0,0.0,0.0,0.0,0.0,0.0,0.0,0.0,0.0,0.0,1.5541,1.6353,1.7301,1.8437,1.8449,1.8275,1.7995,1.7422,1.6471,0.0,0.0,0.0,0.0,0.0,0.0,0.0,0.0,0.0,0.0,0.0,0.0,0.0,0.0,0.0,0.0,0.0,0.0,0.0,0.0,0.0,0.0,0.0,0.0,0.0,0.0,0.0,0.0,0.0,0.0,0.0,0.0,0.0,0.0,0.0,0.0,0.0,0.0,0.0,0.0,1.5404,1.5534,1.5842,0.0,0.0,0.0,0.0,0.0,0.0,1.4808,1.4843,0.0,0.0,0.0,0.0,0.0,0.0,0.0,0.0,0.0,0.0,0.0,0.0,0.0,0.0,0.0,0.0,0.0,0.0,0.0,0.0,0.0,0.0,0.0,0.0,0.0,0.0,0.0,0.0,0.0,0.0,0.0,0.0,0.0,0.0,0.0,0.0,0.0,0.0,0.0,0.0,0.0,0.0,0.0,0.0,0.0,0.0,0.0,0.0,0.0,0.0,0.0,0.0,0.0,0.0,0.0,1.5418,1.6805,1.7809,1.8357,1.8196,1.8049,1.7916,1.7115,1.6152,0.0,0.0,0.0,0.0,0.0,0.0,0.0,0.0,0.0,0.0,0.0,0.0,0.0,0.0,0.0,0.0,0.0,0.0,0.0,0.0,0.0,0.0,0.0,0.0,0.0,0.0,0.0,0.0,0.0,0.0,0.0,0.0,0.0,0.0,0.0,0.0,0.0,0.0,0.0,0.0,0.0,1.5992,1.6152,1.5925,0.0,0.0,0.0,0.0,1.4598,1.5062,0.0,0.0,0.0,0.0,0.0,0.0,0.0,0.0,0.0,0.0,0.0,0.0,0.0,0.0,0.0,0.0,0.0,0.0,0.0,0.0,0.0,0.0,0.0,0.0,0.0,0.0,0.0,0.0,0.0,0.0,0.0,0.0,0.0,0.0,0.0,0.0,0.0,0.0,0.0,0.0,0.0,0.0,0.0,0.0,0.0,0.0,0.0,0.0,0.0,0.0,0.0,0.0,0.0,0.0,0.0,0.0,1.5391,1.6605,1.7502,1.8049,1.8317,1.8183,1.7649,1.7034,1.6152,0.0,0.0,0.0,0.0,0.0,0.0,0.0,0.0,0.0,0.0,0.0,0.0,0.0,0.0,0.0,0.0,0.0,0.0,0.0,0.0,0.0,0.0,0.0,0.0,0.0,0.0,0.0,0.0,0.0,0.0,0.0,0.0,0.0,0.0,0.0,0.0,0.0,0.0,0.0,0.0,0.0,1.6163,1.5888,1.5608,1.5404,0.0,0.0,1.5511,1.5976,1.6563,0.0,0.0,0.0,0.0,0.0,0.0,0.0,0.0,0.0,0.0,0.0,0.0,0.0,0.0,0.0,0.0,0.0,0.0,0.0,0.0,0.0,0.0,0.0,0.0,0.0,0.0,0.0,0.0,0.0,0.0,0.0,0.0,0.0,0.0,0.0,0.0,0.0,0.0,0.0,0.0,0.0,0.0,0.0,0.0,0.0,0.0,0.0,0.0,0.0,0.0,0.0,0.0,0.0,0.0,0.0,1.4723,1.5418,1.6714,1.7609,1.7996,1.7996,1.7876,1.7608,1.6687,1.5818,0.0,0.0,0.0,0.0,0.0,0.0,0.0,0.0,0.0,0.0,0.0,0.0,0.0,0.0,0.0,0.0,0.0,0.0,0.0,0.0,0.0,0.0,0.0,0.0,0.0,0.0,0.0,0.0,0.0,0.0,0.0,0.0,0.0,0.0,0.0,0.0,0.0,0.0,0.0,0.0,0.0,0.0,1.6368,1.65,0.0,0.0,0.0,1.627,1.5855,0.0,0.0,0.0,0.0,0.0,0.0,0.0,0.0,0.0,0.0,0.0,0.0,0.0,0.0,0.0,0.0,0.0,0.0,0.0,0.0,0.0,0.0,0.0,0.0,0.0,0.0,0.0,0.0,0.0,0.0,0.0,0.0,0.0,0.0,0.0,0.0,0.0,0.0,0.0,0.0,0.0,0.0,0.0,0.0,0.0,0.0,0.0,0.0,0.0,0.0,0.0,0.0,0.0,0.0,0.0,0.0,0.0,1.5524,1.7021,1.7916,1.8116,1.7929,1.7769,1.7595,1.658,0.0,0.0,0.0,0.0,0.0,0.0,0.0,0.0,0.0,0.0,0.0,0.0,0.0,0.0,0.0,0.0,0.0,0.0,0.0,0.0,0.0,0.0,0.0,0.0,0.0,0.0,0.0,1.2705,0.0,0.0,0.0,0.0,0.0,0.0,0.0,0.0,0.0,0.0,0.0,0.0,0.0,0.0,1.7448,1.6981,1.7368,1.7541,0.0,0.0,1.7006,1.6192,1.7101,1.7341,0.0,0.0,0.0,0.0,0.0,0.0,0.0,0.0,0.0,0.0,0.0,0.0,0.0,0.0,0.0,0.0,0.0,0.0,0.0,0.0,0.0,0.0,0.0,0.0,0.0,0.0,0.0,0.0,0.0,0.0,0.0,0.0,0.0,0.0,0.0,0.0,0.0,0.0,0.0,0.0,0.0,0.0,0.0,0.0,0.0,0.0,0.0,0.0,0.0,0.0,0.0,0.0,0.0,0.0,0.0,1.5808,1.7528,1.8424,1.8464,1.8437,1.8184,1.7622,1.6981,1.6136,0.0,0.0,0.0,0.0,0.0,0.0,0.0,0.0,0.0,0.0,0.0,0.0,0.0,0.0,0.0,0.0,0.0,0.0,0.0,0.0,0.0,0.0,0.0,0.0,0.0,0.0,0.0,0.0,0.0,0.0,0.0,0.0,0.0,0.0,0.0,0.0,0.0,0.0,0.0,0.0,0.0,1.7595,1.7555,1.7782,1.8156,0.0,0.0,1.7622,1.7782,1.8369,1.8237,1.6498,0.0,0.0,0.0,0.0,0.0,0.0,0.0,0.0,0.0,0.0,0.0,0.0,0.0,0.0,0.0,0.0,0.0,0.0,0.0,0.0,0.0,0.0,0.0,0.0,0.0,0.0,0.0,0.0,0.0,0.0,0.0,0.0,0.0,0.0,0.0,0.0,0.0,0.0,0.0,0.0,0.0,0.0,0.0,0.0,0.0,0.0,0.0,0.0,0.0,0.0,0.0,0.0,0.0,1.5267,1.5808,1.7221,1.8103,1.8491,1.8157,1.7849,1.7622,1.7021,1.6233,0.0,0.0,0.0,0.0,0.0,0.0,0.0,0.0,0.0,0.0,0.0,0.0,0.0,0.0,0.0,0.0,0.0,0.0,0.0,0.0,0.0,0.0,0.0,0.0,0.0,0.0,0.0,0.0,1.4539,1.4549,1.4376,0.0,0.0,0.0,0.0,0.0,0.0,0.0,0.0,0.0,0.0,1.841,1.841,1.8943,0.0,0.0,1.9052,1.8865,1.8596,1.8743,1.8356,1.6794,1.6233,0.0,0.0,0.0,0.0,0.0,0.0,0.0,0.0,0.0,0.0,0.0,0.0,0.0,0.0,0.0,0.0,0.0,0.0,0.0,0.0,0.0,0.0,0.0,0.0,0.0,0.0,0.0,0.0,0.0,0.0,0.0,0.0,0.0,0.0,0.0,0.0,0.0,0.0,0.0,0.0,0.0,0.0,0.0,0.0,0.0,0.0,0.0,0.0,0.0,0.0,0.0,0.0,1.5267,1.5808,1.7049,1.7969,1.8477,1.7983,1.7675,1.7595,1.7101,1.6498,0.0,0.0,0.0,0.0,0.0,0.0,0.0,0.0,0.0,0.0,0.0,0.0,0.0,0.0,0.0,0.0,0.0,0.0,0.0,0.0,0.0,0.0,0.0,0.0,0.0,0.0,0.0,0.0,1.4852,1.483,1.479,0.0,0.0,0.0,0.0,0.0,0.0,0.0,0.0,0.0,0.0,1.9065,1.9036,1.9586,1.9826,1.9455,1.9319,1.9103,1.8689,1.8703,1.8317,1.6902,0.0,0.0,0.0,0.0,0.0,0.0,0.0,0.0,0.0,0.0,0.0,0.0,0.0,0.0,0.0,0.0,0.0,0.0,0.0,0.0,0.0,0.0,0.0,0.0,0.0,0.0,0.0,0.0,0.0,0.0,1.4103,0.0,0.0,0.0,0.0,0.0,0.0,0.0,0.0,0.0,0.0,0.0,0.0,0.0,0.0,0.0,0.0,0.0,0.0,0.0,0.0,0.0,0.0,1.528,1.5808,1.7249,1.8143,1.8477,1.8169,1.7849,1.7622,1.7327,1.6911,1.6284,0.0,0.0,0.0,0.0,0.0,0.0,0.0,0.0,0.0,0.0,0.0,0.0,0.0,0.0,0.0,0.0,0.0,0.0,0.0,0.0,0.0,0.0,0.0,0.0,0.0,0.0,1.4567,1.4527,1.4776,0.0,0.0,0.0,0.0,0.0,0.0,0.0,0.0,0.0,0.0,1.8451,1.9388,1.9388,1.9415,1.9455,1.9428,1.8663,1.8062,1.8075,1.8303,1.809,0.0,0.0,0.0,0.0,0.0,0.0,0.0,0.0,0.0,0.0,0.0,0.0,0.0,0.0,0.0,0.0,0.0,0.0,0.0,0.0,0.0,0.0,0.0,0.0,0.0,0.0,0.0,1.4691,1.4691,0.0,0.0,0.0,0.0,0.0,0.0,0.0,0.0,0.0,0.0,0.0,1.6739,1.6901,0.0,0.0,0.0,0.0,0.0,0.0,0.0,0.0,0.0,0.0,0.0,0.0,1.5374,1.6163,1.7181,1.7983,1.8464,1.7996,1.7689,1.7608,1.7515,1.71,1.6324,0.0,0.0,0.0,0.0,0.0,0.0,0.0,0.0,0.0,0.0,0.0,0.0,0.0,0.0,0.0,0.0,0.0,0.0,0.0,0.0,0.0,0.0,0.0,0.0,0.0,1.5418,0.0,0.0,0.0,0.0,0.0,0.0,0.0,0.0,0.0,0.0,0.0,1.7206,1.797,1.8637,1.9212,1.9599,1.9826,2.0013,0.0,0.0,0.0,0.0,0.0,0.0,0.0,0.0,0.0,0.0,0.0,0.0,0.0,0.0,1.8169,1.6446,1.6112,1.6203,1.6429,0.0,0.0,0.0,0.0,0.0,0.0,0.0,0.0,0.0,0.0,0.0,0.0,0.0,0.0,1.5508,0.0,1.5374,0.0,0.0,0.0,0.0,0.0,0.0,0.0,0.0,1.6966,1.7554,1.7796,1.7956,1.7956,0.0,1.7689,1.71,0.0,0.0,0.0,0.0,0.0,0.0,0.0,0.0,1.5775,1.6458,1.7421,1.8143,1.8597,1.805,1.7742,1.7742,1.7635,1.7341,1.6779,1.619,1.5618,0.0,0.0,0.0,0.0,0.0,0.0,0.0,0.0,0.0,0.0,0.0,0.0,0.0,0.0,0.0,0.0,0.0,0.0,0.0,0.0,0.0,0.0,0.0,1.5768,0.0,0.0,0.0,0.0,0.0,0.0,0.0,0.0,0.0,1.6752,1.7274,1.7929,1.8719,1.9052,1.9303,1.9613,0.0,0.0,0.0,0.0,0.0,0.0,0.0,1.8811,1.8383,1.8196,1.8184,1.8437,1.8971,1.9412,1.9535,0.0,0.0,1.8116,1.7876,1.7996,1.821,1.8237,1.8317,1.8584,1.8746,1.8853,0.0,0.0,0.0,0.0,0.0,0.0,0.0,0.0,1.6404,1.6526,0.0,1.6128,0.0,0.0,0.0,0.0,0.0,1.6206,0.0,0.0,1.8692,1.9225,1.8943,1.8943,1.8971,1.8916,1.8664,1.8357,1.7942,1.6597,0.0,0.0,0.0,0.0,0.0,0.0,1.6458,1.678,1.7889,1.8624,1.8863,1.8329,1.8036,1.8009,1.7742,1.7608,1.7582,1.7021,1.6593,1.631,1.5204,0.0,0.0,0.0,0.0,0.0,0.0,0.0,0.0,0.0,0.0,0.0,0.0,0.0,0.0,0.0,0.0,0.0,0.0,0.0,0.0,1.5821,0.0,0.0,0.0,0.0,0.0,0.0,0.0,0.0,0.0,0.0,1.7729,1.8156,1.8718,1.9308,0.0,0.0,0.0,0.0,1.9308,1.9036,1.897,1.8983,1.901,1.9479,1.9639,1.9063,0.0,0.0,1.9522,1.9907,2.0184,1.9933,2.0388,2.0766,2.0695,2.0361,2.0157,2.0184,1.98,1.9589,1.9786,1.972,1.9642,1.813,0.0,0.0,0.0,0.0,1.7209,1.7729,1.8491,1.825,1.8103,1.7943,1.7341,0.0,0.0,0.0,0.0,0.0,0.0,1.7609,1.817,1.9214,1.9733,1.9837,2.0067,2.0067,1.9823,1.9559,1.9279,1.8985,1.8598,1.7368,1.5461,0.0,0.0,0.0,0.0,1.6727,1.7609,1.821,1.8637,1.889,1.8557,1.8263,1.8022,1.7742,1.7608,1.7608,1.7422,1.7127,1.6607,1.6259,0.0,0.0,0.0,0.0,0.0,0.0,0.0,0.0,0.0,0.0,0.0,0.0,0.0,0.0,0.0,0.0,0.0,0.0,0.0,1.615,1.6326,1.6302,0.0,0.0,0.0,0.0,0.0,0.0,0.0,0.0,0.0,1.9412,1.9065,1.8945,0.0,0.0,1.9116,1.9065,1.9225,1.9589,2.0094,2.0174,0.0,0.0,2.0619,2.0441,2.0481,2.0833,2.1047,2.098,2.1229,2.1456,2.1363,2.1657,2.1891,2.1884,2.1336,2.0975,2.1096,2.106,2.1047,2.1315,2.1283,2.1274,2.0797,1.976,1.8597,1.8357,1.8703,1.8731,1.9158,1.9896,1.9693,1.9586,1.9479,1.8784,1.813,1.7501,1.6915,0.0,0.0,0.0,1.8851,1.9559,2.0201,2.0641,2.0922,2.1109,2.1096,2.0877,2.0508,2.0227,2.0084,1.9615,1.8679,1.7248,0.0,0.0,1.646,1.7034,1.7675,1.8356,1.8798,1.9038,1.9092,1.8811,1.8489,1.8196,1.7902,1.7769,1.7769,1.7649,1.7448,1.7074,1.6834,1.646,0.0,0.0,0.0,0.0,0.0,0.0,0.0,0.0,0.0,0.0,0.0,1.5374,0.0,0.0,0.0,0.0,1.6072,1.6315,1.6779,1.6872,0.0,0.0,0.0,0.0,0.0,0.0,0.0,1.8477,1.9334,2.0084,2.0477,2.009,1.9893,2.0231,1.9973,1.9757,1.9757,0.0,2.0324,2.0967,2.106,2.1221,2.1676,2.1462,2.1256,2.143,2.1697,2.193,2.1943,2.2171,2.2358,2.2352,2.2485,2.2592,2.2592,2.2151,2.1857,2.2064,2.2104,2.2171,2.2331,2.2372,2.2372,2.3412,2.3185,2.0464,1.9653,2.0067,2.008,2.0401,2.094,2.0882,2.102,2.1149,2.0294,1.9733,1.9415,1.8611,0.0,1.909,1.9677,2.0401,2.1189,2.1542,2.1823,2.2017,2.2017,2.2017,2.2004,2.1456,2.1176,2.1122,2.0137,1.9575,1.9522,1.8973,1.8477,1.8115,1.8623,1.8916,1.897,1.9519,1.9666,1.9428,1.9105,1.8811,1.8531,1.8183,1.8022,1.7982,1.7742,1.7608,1.7595,1.7061,1.6767,1.6714,0.0,0.0,0.0,0.0,0.0,0.0,0.0,0.0,0.0,0.0,0.0,0.0,0.0,0.0,0.0,1.674,0.0,1.7528,1.7381,0.0,0.0,0.0,1.8276,1.8597,1.9172,1.9655,1.9853,0.0,0.0,2.1149,2.1203,2.1323,2.1649,2.1336,2.1109,2.1109,2.1082,2.1243,2.1555,2.1636,2.1756,2.2064,2.2091,2.2031,2.2058,2.2285,2.2432,2.2445,2.2666,2.2867,2.2886,2.2907,2.2907,2.2934,2.2867,2.2893,2.2853,2.2867,2.2867,2.2853,2.2853,2.284,2.4462,2.4556,2.342,2.2779,2.2451,2.2451,2.2699,2.3027,2.2572,2.2258,2.2011,2.1157,2.0521,1.9997,2.004,2.0254,2.0615,2.1203,2.1609,2.1804,2.2345,2.2505,2.2291,2.2311,2.2311,2.2285,2.1951,2.1777,2.1764,2.1496,2.1136,2.0695,2.0334,1.9666,1.873,1.8823,1.9145,1.9586,1.9733,1.976,1.9693,1.9412,1.9118,1.8824,1.8289,1.8022,1.8009,1.7756,1.7608,1.7608,1.7448,1.7275,1.7099,1.6444,0.0,0.0,0.0,0.0,0.0,0.0,0.0,0.0,0.0,1.6123,1.5915,0.0,1.6633,0.0,1.7114,1.7435,1.7595,1.7729,0.0,0.0,1.9078,1.9492,1.9757,2.0565,2.0927,2.0508,2.1176,2.1729,2.1764,2.1964,2.2218,2.2519,2.171,2.1109,2.1109,2.1309,2.1582,2.1877,2.2071,2.2311,2.2599,2.2679,2.2666,2.2693,2.2733,2.2786,2.2786,2.2853,2.296,2.314,2.302,2.3,2.3153,2.3067,2.2907,2.2893,2.2893,2.2893,2.2893,2.2893,2.2893,2.5398,2.5611,2.5037,2.4529,2.4088,2.3688,2.3621,2.3777,2.3442,2.3201,2.2979,2.2365,2.1811,2.1416,2.1609,2.1817,2.2111,2.2432,2.2592,2.2605,2.2926,2.2899,2.2619,2.2619,2.2605,2.2605,2.2325,2.2178,2.2178,2.2058,2.185,2.1496,2.1349,2.09,2.0107,1.9573,1.9479,1.98,1.98,1.9867,1.9973,1.9706,1.9441,1.9118,1.8396,1.7929,1.7809,1.7422,1.722,1.7194,1.7194,1.7114,1.6979,1.6551,1.6297,0.0,0.0,0.0,0.0,0.0,0.0,0.0,0.0,0.0,0.0,0.0,1.6849,1.7261,1.7836,1.829,1.8544,1.881,1.917,1.9666,2.0258,2.0695,2.0975,2.1563,2.1857,2.1703,2.2104,2.2412,2.2412,2.2546,2.2672,2.288,2.2331,2.1897,2.1897,2.2064,2.2238,2.2385,2.2512,2.2693,2.288,2.2893,2.2893,2.2893,2.2893,2.2893,2.2893,2.2893,2.2947,2.306,2.3014,2.2947,2.3073,2.2993,2.2893,2.2893,2.2893,2.2893,2.2893,2.2893,2.2893,2.6319,2.6453,2.5905,2.5518,2.5184,2.4419,2.4031,2.3875,2.3843,2.3777,2.3736,2.3474,2.3233,2.3014,2.3014,2.3161,2.338,2.3345,2.3345,2.338,2.3345,2.322,2.296,2.296,2.2934,2.288,2.2592,2.2472,2.2472,2.2218,2.2084,2.2044,2.2004,2.1877,2.1555,2.0494,1.996,1.9907,1.992,2.0013,2.0197,1.9907,1.9586,1.9267,1.8396,1.7809,1.7555,1.6994,1.67,1.67,1.67,1.6727,1.6754,1.6486,1.6364,0.0,1.6099,0.0,0.0,0.0,0.0,0.0,0.0,0.0,0.0,1.6914,1.7328,1.8116,1.8676,1.925,1.9853,2.0174,2.045,2.0846,2.1368,2.181,2.2058,2.2325,2.2579,2.2867,2.2893,2.2893,2.288,2.292,2.2947,2.2907,2.2907,2.284,2.2867,2.284,2.284,2.2893,2.2893,2.288,2.2893,2.2893,2.2893,2.2893,2.2893,2.2893,2.2893,2.2893,2.292,2.296,2.2947,2.292,2.2947,2.2934,2.2893,2.2893,2.2893,2.2893,2.2893,2.2893,2.2893,2.7095,2.7108,2.672,2.64,2.6145,2.5743,2.5168,2.4449,2.3981,2.3634,2.3399,2.3607,2.3696,2.3643,2.3643,2.3656,2.3688,2.3723,2.3723,2.3688,2.3723,2.3527,2.3247,2.3247,2.31,2.2907,2.284,2.2813,2.2813,2.276,2.2565,2.2338,2.2098,2.1877,2.1582,0.0,0.0,0.0,2.0508,2.0414,2.0197,1.972,1.9199,1.8692,1.8009,0.0,1.726,1.6887,1.67,1.67,1.67,0.0,0.0,0.0,0.0,0.0,0.0,0.0,0.0,0.0,0.0,0.0,1.7742,1.7596,1.7488,1.8076,1.8677,1.9107,1.9455,1.9867,2.0454,2.0775,2.1162,2.1716,2.2044,2.2365,2.2693,2.2786,2.284,2.288,2.2893,2.2893,2.2907,2.3073,2.314,2.2947,2.3073,2.3113,2.292,2.2893,2.2893,2.2893,2.2893,2.2893,2.2893,2.2893,2.2893,2.2893,2.2893,2.2893,2.2893,2.2893,2.3,2.3153,2.3033,2.2987,2.3166,2.3081,2.2893,2.2893,2.2893,2.2893,2.2893,2.2893,2.2893,2.7523,0.0,2.7161,2.6867,0.0,2.6293,2.5838,2.5264,2.4823,2.4543,2.4422,2.4569,2.4556,2.4432,2.4151,2.3981,2.4004,2.3688,2.3669,2.3803,2.3817,2.3723,2.3541,2.3394,2.3212,2.3086,2.296,2.2893,2.2893,2.2893,2.2813,2.2645,2.2532,2.2372,2.2238,2.1911,2.147,2.0895,2.0895,2.0815,2.0624,2.0271,1.9762,1.9145,0.0,0.0,0.0,0.0,0.0,0.0,0.0,0.0,0.0,0.0,0.0,1.7192,1.7288,1.7502,1.7822,1.797,1.8277,1.8851,1.9276,1.9239,1.8545,1.9145,1.9717,2.0187,2.0615,2.1056,2.1483,2.1836,2.2131,2.2425,2.2586,2.2733,2.2867,2.2893,2.2893,2.2893,2.2893,2.2893,2.2893,2.3014,2.3067,2.2934,2.2993,2.3081,2.2934,2.2893,2.2893,2.2893,2.2893,2.2893,2.2893,2.2893,2.2893,2.2893,2.2893,2.2893,2.2893,2.2893,2.296,2.306,2.3,2.296,2.3067,2.2966,2.2893,2.2893,2.2893,2.2893,2.2893,2.2893,2.2893,2.7909,2.7843,2.7643,2.7295,2.6947,2.672,2.6453,2.6198,0.0,0.0,0.0,2.5491,2.5384,2.5117,2.4596,2.4356,2.4329,2.3759,2.3688,2.3928,2.3928,2.3937,2.387,2.3594,2.3412,2.3394,2.31,2.2974,2.2974,2.2934,2.2893,2.2893,2.2893,2.2893,2.288,2.2619,2.2111,2.1376,2.1157,2.1109,2.1096,2.0722,2.0298,1.9733,1.8971,1.8304,1.7675,1.7194,1.6914,1.686,1.686,1.6914,1.7021,1.7274,1.7461,1.7608,1.8009,1.8409,1.8771,1.9025,1.9426,2.0067,2.0815,2.0828,1.9856,2.0241,2.0762,2.1264,2.179,2.2178,2.2472,2.2712,2.2893,2.2893,2.2893,2.2893,2.2893,2.2893,2.2893,2.2893,2.2893,2.2893,2.2893,2.2926,2.2947,2.292,2.2974,2.2947,2.2907,2.2893,2.2893,2.2893,2.2893,2.2893,2.2893,2.2893,2.2893,2.2893,2.2893,2.2893,2.2893,2.2893,2.2893,2.292,2.2893,2.2907,2.2893,2.2907,2.2893,2.2893,2.2893,2.2893,2.2893,2.2893,2.2893,2.8655,2.8484,2.843,2.8096,2.7575,2.7535,2.7348,2.7028,2.5972,2.5384,2.5195,2.5411,2.5491,2.5438,2.5104,2.4994,2.4981,2.4609,2.4439,2.4479,2.4516,2.4382,2.4155,2.4102,2.3955,2.3701,2.3407,2.3225,2.3233,2.2993,2.2893,2.2893,2.2893,2.2893,2.2893,2.2853,2.2619,2.2198,2.1496,2.1109,2.1064,2.0334,1.9803,1.9468,1.9078,1.8556,1.7955,1.7876,1.7702,1.7475,1.7462,1.7715,1.8196,1.8277,1.8558,1.904,1.916,1.9412,1.9917,1.9997,2.0414,2.1261,2.1689,2.1716,2.1341,2.1582,2.1884,2.2171,2.2311,2.2472,2.28,2.2867,2.2893,2.2893,2.2893,2.2893,2.2893,2.2893,2.2893,2.2893,2.2893,2.2893,2.292,2.3073,2.3113,2.3,2.3033,2.314,2.296,2.2893,2.2893,2.2893,2.2893,2.2893,2.2893,2.2893,2.2893,2.2893,2.2893,2.2893,2.2893,2.2893,2.2893,2.2893,2.2893,2.2893,2.2893,2.2893,2.2893,2.2893,2.2893,2.2893,2.2893,2.2893,2.2893,2.8921,2.8801,2.8801,2.8591,2.8163,2.7843,2.7535,2.7269,2.6707,2.6306,2.6039,2.5999,2.5905,2.5732,2.5451,2.5224,2.5064,2.4733,2.4599,2.4599,2.4599,2.4532,2.4422,2.4275,2.4142,2.3981,2.3541,2.3292,2.3265,2.3054,2.2893,2.2893,2.2893,2.2893,2.2893,2.2893,2.2827,2.2693,2.2111,2.167,2.1381,2.0993,2.0565,2.0124,1.9786,1.941,1.8983,1.8823,1.8691,1.8585,1.8585,1.8705,1.8945,1.9147,1.9399,1.9813,2.0134,2.0508,2.0953,2.1243,2.159,2.1991,2.2298,2.2439,2.2305,2.2265,2.2338,2.2619,2.2659,2.2746,2.288,2.2893,2.2893,2.2893,2.2893,2.2893,2.2893,2.2893,2.2893,2.2893,2.2893,2.2893,2.2893,2.2979,2.3046,2.2934,2.3006,2.3054,2.292,2.2893,2.2893,2.2893,2.2893,2.2893,2.2893,2.2893,2.2893,2.2893,2.2893,2.2893,2.2893,2.2893,2.2893,2.2893,2.2893,2.2893,2.2893,2.2893,2.2893,2.2893,2.2893,2.2893,2.2893,2.2893,2.2893,2.9148,2.9095,2.9095,2.8935,2.8657,2.8136,2.7776,2.7562,2.7469,2.7228,2.7001,2.6653,2.636,2.6158,2.5772,2.5491,2.5251,2.497,2.4799,2.4786,2.4733,2.4743,2.4666,2.4436,2.4302,2.4249,2.3768,2.3527,2.3487,2.322,2.3067,2.3,2.2934,2.2893,2.2893,2.2893,2.2893,2.288,2.2632,2.2271,2.181,2.1716,2.1462,2.1034,2.0681,2.0428,2.0201,1.9883,1.9722,1.9746,1.9722,1.9749,1.9896,2.0067,2.0321,2.0628,2.1056,2.143,2.177,2.2231,2.2525,2.2491,2.2773,2.2893,2.288,2.2659,2.2605,2.2853,2.288,2.2893,2.2893,2.2893,2.2893,2.2893,2.2893,2.2893,2.2893,2.2893,2.2893,2.2893,2.2893,2.2893,2.2893,2.2893,2.2907,2.2907,2.2893,2.2893,2.2893,2.2893,2.2893,2.2893,2.2893,2.2893,2.2893,2.2893,2.2893,2.2893,2.2893,2.2893,2.2893,2.2893,2.2893,2.2893,2.2893,2.2893,2.2893,2.2893,2.2893,2.2893,2.2893,2.2893,2.2893,2.2893,2.2893,2.9673,2.9459,2.9446,2.9272,2.8921,2.8644,2.8484,2.839,2.7909,2.7642,2.7549,2.7028,2.6734,2.6667,2.6212,2.5957,2.5891,2.5571,2.5438,2.5384,2.5157,2.5037,2.4997,2.4693,2.4559,2.4506,2.4249,2.4075,2.4048,2.3781,2.3576,2.3252,2.3041,2.2893,2.2893,2.2893,2.2893,2.2893,2.2867,2.2659,2.2352,2.2084,2.1924,2.1903,2.1609,2.1448,2.1355,2.0886,2.0681,2.0895,2.0726,2.0833,2.1288,2.1395,2.1542,2.1777,2.1903,2.2031,2.2325,2.2679,2.284,2.2853,2.2867,2.2893,2.2893,2.2867,2.2867,2.2893,2.2893,2.2893,2.2893,2.2893,2.2893,2.2893,2.2893,2.2893,2.2893,2.2893,2.2893,2.2893,2.2893,2.2893,2.2893,2.2893,2.2893,2.2893,2.2893,2.2893,2.2893,2.2893,2.2893,2.2893,2.2893,2.2893,2.2893,2.2893,2.2893,2.2893,2.2893,2.2893,2.2893,2.2893,2.2893,2.2893,2.2893,2.2893,2.2893,2.2893,2.2893,2.2893,2.2893,2.2893,2.2893,2.2893,2.2893,2.9847,2.974,2.974,2.9566,2.9285,2.8991,2.8721,2.8577,2.835,2.8136,2.7965,2.7522,2.7241,2.7108,2.6867,2.668,2.6466,2.6346,2.6092,2.5772,2.5464,2.5251,2.5064,2.4746,2.4599,2.4572,2.4342,2.4209,2.4115,2.3728,2.3447,2.3278,2.3054,2.2893,2.2893,2.2893,2.2893,2.2893,2.2893,2.284,2.2659,2.2392,2.2164,2.1991,2.1903,2.1836,2.1823,2.1596,2.1542,2.1617,2.1542,2.1596,2.1836,2.1817,2.197,2.2218,2.2439,2.2586,2.2706,2.2827,2.2893,2.2893,2.2893,2.2893,2.2893,2.2893,2.2893,2.2893,2.2893,2.2893,2.2893,2.2893,2.2893,2.2893,2.2893,2.2893,2.2893,2.2893,2.2893,2.2893,2.2893,2.2893,2.2893,2.2893,2.2893,2.2893,2.2893,2.2893,2.2893,2.2893,2.2893,2.2893,2.2893,2.2893,2.2893,2.2893,2.2893,2.2893,2.2893,2.2893,2.2893,2.2893,2.2893,2.2893,2.2893,2.2893,2.2893,2.2893,2.2893,2.2893,2.2893,2.2893,2.2893,2.2893,2.2893,2.9913,2.9913,2.9913,2.9793,2.9579,2.9285,2.8948,2.8724,2.8644,2.843,2.8179,2.7909,2.775,2.755,2.7389,2.7108,2.6841,2.6787,2.656,2.6105,2.5772,2.5478,2.5184,2.4903,2.4679,2.4586,2.4399,2.4292,2.4262,2.3834,2.3567,2.3479,2.318,2.3027,2.3014,2.2947,2.2893,2.2893,2.2893,2.2893,2.2867,2.2645,2.2445,2.2245,2.2138,2.2138,2.2251,2.2071,2.2071,2.2251,2.2151,2.2138,2.2251,2.2265,2.2325,2.2525,2.2773,2.2893,2.2893,2.2893,2.2893,2.2893,2.2893,2.2893,2.2893,2.2893,2.2893,2.2893,2.2893,2.2893,2.2893,2.2893,2.2893,2.2893,2.2893,2.2893,2.2893,2.2893,2.2893,2.2893,2.2893,2.2893,2.2893,2.2893,2.2893,2.2893,2.2893,2.2893,2.2893,2.2893,2.2893,2.2893,2.2893,2.2893,2.2893,2.2893,2.2893,2.2893,2.2893,2.2893,2.2893,2.2893,2.2893,2.2893,2.2893,2.2893,2.2893,2.2893,2.2893,2.2893,2.2893,2.2893,2.2893,2.2893,2.2893,2.9913,2.9913,2.9913,2.99,2.986,2.9579,2.9285,2.8935,2.8751,2.8444,2.8205,2.8179,2.8152,2.8072,2.7576,2.7121,2.6814,2.6787,2.6653,2.6333,2.6091,2.581,2.5478,2.5197,2.4917,2.4653,2.4639,2.4599,2.4572,2.4266,2.4168,2.4115,2.3554,2.3252,2.3212,2.2993,2.2893,2.2934,2.2934,2.2907,2.2907,2.2893,2.2867,2.2786,2.2539,2.2512,2.2733,2.2318,2.2245,2.2827,2.2539,2.2512,2.28,2.284,2.2827,2.2867,2.288,2.2893,2.2893,2.2893,2.2893,2.2893,2.2893,2.2893,2.2893,2.2893,2.2893,2.2893,2.2893,2.2893,2.2893,2.2893,2.2893,2.2893,2.2893,2.2893,2.2893,2.2893,2.2893,2.2893,2.2893,2.2893,2.2893,2.2893,2.2893,2.2893,2.2893,2.2893,2.2893,2.2893,2.2893,2.2893,2.2893,2.2893,2.2893,2.2893,2.2893,2.2893,2.2893,2.2893,2.2893,2.2893,2.2893,2.2893,2.2893,2.2893,2.2893,2.2893,2.2893,2.2893,2.2893,2.2893,2.2893,2.2893,2.2893,2.9913,2.9913,2.9913,2.9913,2.99,2.9806,2.9486,2.9028,2.9138,2.8821,2.8299,2.8393,2.8366,2.8207,2.7965,2.7603,2.7121,2.6921,2.6667,2.6373,2.6131,2.5944,2.5824,2.5491,2.5197,2.4983,2.5104,2.509,2.4877,2.4436,2.4209,2.4102,2.3621,2.3292,2.3238,2.302,2.2987,2.314,2.3153,2.3166,2.3166,2.3166,2.3108,2.2907,2.2786,2.2786,2.2893,2.2679,2.2679,2.2893,2.28,2.2786,2.288,2.2893,2.2893,2.2893,2.2893,2.2893,2.2893,2.2893,2.2893,2.2893,2.2893,2.2893,2.2893,2.2893,2.2893,2.2893,2.2893,2.2893,2.2893,2.2893,2.2893,2.2893,2.2893,2.2893,2.2893,2.2893,2.2893,2.2893,2.2893,2.2893,2.2893,2.2893,2.2893,2.2893,2.2893,2.2893,2.2893,2.2893,2.2893,2.2893,2.2893,2.2893,2.2893,2.2893,2.2893,2.2893,2.2893,2.2893,2.2893,2.2867,2.2853,2.2893,2.2893,2.2893,2.2893,2.2893,2.2893,2.2893,2.2893,2.2893,2.2893,2.2893,2.2893,2.9913,2.9913,2.9913,2.9913,2.9913,2.9913,2.9602,2.9175,2.9392,2.9085,2.8551,2.8564,2.8484,2.8312,2.8125,2.7844,2.7415,2.7188,2.6894,2.6533,2.6319,2.6172,2.5984,2.5745,2.5504,2.5264,2.5304,2.5224,2.493,2.4529,2.4356,2.4266,2.3812,2.3572,2.3567,2.3348,2.3308,2.3434,2.346,2.346,2.3474,2.3474,2.338,2.3228,2.3188,2.3081,2.292,2.2893,2.2893,2.2893,2.2893,2.2893,2.2893,2.2893,2.2893,2.2907,2.3,2.3,2.2934,2.2987,2.3,2.2907,2.2893,2.2893,2.2893,2.2893,2.2893,2.2893,2.2893,2.2893,2.2893,2.2893,2.2893,2.2893,2.2893,2.2893,2.2893,2.2893,2.2893,2.2893,2.2893,2.2893,2.2893,2.2893,2.2893,2.2893,2.2893,2.2893,2.2893,2.2893,2.2893,2.2893,2.2893,2.2893,2.2893,2.2893,2.2893,2.2893,2.2752,2.28,2.284,2.2827,2.2827,2.2867,2.2893,2.2893,2.2893,2.2893,2.2893,2.2893,2.2893,2.2893,2.2893,2.2893,2.2893,2.9913,2.9913,2.9913,2.9913,2.9913,2.9913,2.9753,2.9486,2.9517,2.9259,2.8828,2.8724,2.8604,2.8457,2.8056,2.7749,2.7709,2.7669,2.7335,2.6774,2.672,2.6466,2.6051,2.6011,2.5837,2.5504,2.5224,2.497,2.4719,2.4613,2.4559,2.4546,2.4302,2.4088,2.4168,2.3834,2.3763,2.3768,2.3768,2.3768,2.3817,2.3803,2.3741,2.375,2.3736,2.3496,2.2974,2.2934,2.296,2.296,2.2934,2.2907,2.2934,2.2907,2.2893,2.2934,2.3126,2.314,2.2987,2.3153,2.3153,2.3067,2.2947,2.3,2.3027,2.3,2.3,2.3014,2.296,2.292,2.2934,2.2907,2.2893,2.2893,2.2893,2.2893,2.2893,2.2893,2.2893,2.2893,2.2893,2.2893,2.2893,2.2893,2.2893,2.2893,2.2893,2.2893,2.2893,2.2893,2.2893,2.2893,2.2893,2.2893,2.2893,2.2893,2.2893,2.288,2.2672,2.2605,2.2719,2.2733,2.2699,2.2739,2.2867,2.288,2.2893,2.2893,2.2893,2.2893,2.2893,2.2893,2.2893,2.2893,2.2893,2.9913,2.9913,2.9913,2.9913,2.9913,2.9913,2.9753,2.9499,2.953,2.9205,2.8831,2.8815,2.8684,2.8419,2.8283,2.8203,2.8058,2.8018,2.7589,2.6947,2.6787,2.664,2.6319,2.6292,2.6092,2.581,2.5355,2.5144,2.5144,2.4799,2.4693,2.481,2.4449,2.4222,2.4195,2.3928,2.3848,2.4048,2.4062,2.4062,2.4062,2.4075,2.3981,2.383,2.3803,2.3696,2.3522,2.33,2.3287,2.3496,2.3287,2.318,2.3153,2.3014,2.2907,2.2907,2.2974,2.31,2.3193,2.3238,2.3407,2.3447,2.3509,2.3522,2.3522,2.3509,2.3496,2.3482,2.3348,2.318,2.3153,2.3014,2.292,2.2893,2.2893,2.2893,2.2893,2.2893,2.2893,2.2893,2.2893,2.2893,2.2893,2.2893,2.2893,2.2893,2.2893,2.2893,2.2893,2.2893,2.2893,2.2893,2.2893,2.2893,2.2893,2.2893,2.2893,2.2867,2.2686,2.2579,2.2632,2.2632,2.2619,2.2686,2.2827,2.288,2.2893,2.2893,2.2893,2.2893,2.2893,2.2893,2.2893,2.2893,2.2893,2.9913,2.9913,2.9913,2.9913,2.9913,2.9913,2.982,2.9659,2.9646,2.9432,2.9179,2.9165,2.8938,2.8564,2.8577,2.843,2.8205,2.8192,2.7817,2.7201,2.7014,2.6827,2.656,2.6426,2.6279,2.5984,2.5623,2.5476,2.5478,2.5157,2.501,2.4997,2.481,2.4546,2.4396,2.4315,2.4329,2.4332,2.4319,2.4369,2.4356,2.4356,2.4275,2.4128,2.4102,2.4088,2.4075,2.3808,2.3688,2.3728,2.3581,2.35,2.3474,2.3348,2.3228,2.3255,2.3313,2.342,2.35,2.3607,2.3661,2.3803,2.3817,2.3803,2.3803,2.3817,2.3817,2.3777,2.3594,2.3487,2.3447,2.322,2.3046,2.3067,2.296,2.2907,2.2893,2.2893,2.2893,2.2893,2.2893,2.2893,2.2893,2.2893,2.2893,2.2893,2.2893,2.2893,2.2893,2.2893,2.2893,2.2893,2.2893,2.2893,2.2893,2.2893,2.2893,2.284,2.2712,2.2672,2.2686,2.2605,2.2565,2.2746,2.2853,2.288,2.2893,2.2893,2.2893,2.2893,2.2893,2.2893,2.2893,2.2893,2.2893,2.9913,2.9913,2.9913,2.9913,2.9913,2.9913,2.99,2.99,2.9847,2.9806,2.9753,2.9526,2.9285,2.8961,2.8721,2.8511,2.8259,2.8179,2.8045,2.7669,2.7415,2.7121,2.6774,2.656,2.6332,2.6024,2.5944,2.5785,2.5598,2.5478,2.5398,2.5224,2.5331,2.5237,2.4813,2.497,2.493,2.4719,2.4653,2.4626,2.4666,2.4626,2.4639,2.4639,2.4613,2.4586,2.4546,2.4342,2.4062,2.3884,2.3808,2.3794,2.3794,2.3817,2.3736,2.3736,2.4008,2.3991,2.3888,2.3968,2.4062,2.3928,2.3915,2.3821,2.3901,2.3977,2.3977,2.3915,2.3834,2.3794,2.3741,2.3527,2.3367,2.3313,2.3094,2.292,2.2893,2.2893,2.2893,2.2893,2.2893,2.2893,2.2893,2.2893,2.2893,2.2893,2.2893,2.2893,2.2893,2.2893,2.2893,2.2893,2.2893,2.2893,2.2893,2.2893,2.2893,2.2867,2.2786,2.2712,2.2659,2.2565,2.2592,2.276,2.2867,2.288,2.2893,2.2893,2.2893,2.2893,2.2893,2.2893,2.2893,2.2893,2.2893,2.9913,2.9913,2.9913,2.9913,2.9913,2.9913,2.9913,2.9887,2.9686,2.9646,2.9593,2.9513,2.9339,2.9015,2.8921,2.8721,2.8497,2.8312,2.8165,2.8031,2.7764,2.7295,2.6907,2.6747,2.6453,2.6091,2.6078,2.5957,2.5864,2.5678,2.5611,2.5757,2.5598,2.5426,2.5317,2.5344,2.5358,2.5264,2.505,2.5077,2.5211,2.505,2.5077,2.5251,2.5077,2.497,2.4943,2.4639,2.4346,2.4115,2.4088,2.4088,2.4088,2.3991,2.3897,2.3884,2.391,2.4031,2.4102,2.4182,2.4262,2.4409,2.4409,2.4372,2.4372,2.4372,2.4372,2.4332,2.4235,2.4088,2.4048,2.3821,2.3674,2.3629,2.3255,2.2947,2.292,2.2893,2.2893,2.2893,2.2893,2.2893,2.2893,2.2893,2.2893,2.2893,2.2893,2.2893,2.2893,2.2893,2.2893,2.2893,2.2893,2.2893,2.2893,2.2893,2.2893,2.2893,2.2827,2.2746,2.2632,2.2512,2.2619,2.2813,2.2867,2.2893,2.2893,2.2893,2.2893,2.2893,2.2893,2.2893,2.2893,2.2893,2.2893,2.9913,2.9913,2.9913,2.9913,2.9913,2.9913,2.9913,2.9887,2.974,2.9659,2.9673,2.9673,2.9499,2.9245,2.9219,2.9072,2.8748,2.8604,2.847,2.8326,2.8072,2.7562,2.7134,2.7001,2.6867,2.66,2.6533,2.656,2.6519,2.6213,2.6119,2.6092,2.5972,2.5772,2.5504,2.5638,2.5625,2.5504,2.5344,2.5358,2.5478,2.5358,2.5344,2.5464,2.5331,2.5264,2.5224,2.4983,2.4743,2.4609,2.4583,2.4569,2.4583,2.4543,2.4382,2.4195,2.4285,2.4459,2.4529,2.4569,2.4703,2.493,2.4959,2.4893,2.485,2.4823,2.481,2.4572,2.4439,2.4409,2.4306,2.4128,2.395,2.3777,2.3482,2.3228,2.3086,2.2974,2.2907,2.2893,2.2893,2.2893,2.2893,2.2907,2.2893,2.2893,2.2893,2.2893,2.2893,2.2893,2.2893,2.2893,2.2893,2.2893,2.2893,2.2893,2.2893,2.2893,2.288,2.28,2.2686,2.2565,2.2672,2.284,2.288,2.2893,2.2893,2.2893,2.2893,2.2893,2.2893,2.2893,2.2893,2.2893,2.2893,2.9913,2.9913,2.9913,2.9913,2.9913,2.9913,2.9913,2.9913,2.9887,2.9887,2.9887,2.99,2.974,2.957,2.9459,2.9325,2.9041,2.8935,2.8804,2.8551,2.8286,2.7871,2.7496,2.7362,2.7201,2.7122,2.7242,2.7188,2.6987,2.6827,2.6694,2.6507,2.6426,2.6146,2.5892,2.5971,2.5877,2.5705,2.5598,2.5611,2.5665,2.5625,2.5611,2.5678,2.5611,2.5518,2.5438,2.5264,2.5168,2.517,2.5181,2.5104,2.513,2.5358,2.5224,2.4863,2.4917,2.505,2.5104,2.509,2.5197,2.5384,2.5451,2.5411,2.517,2.5077,2.4943,2.4719,2.4626,2.4559,2.4532,2.4346,2.4195,2.3995,2.3897,2.3674,2.3447,2.314,2.2987,2.2974,2.2987,2.2947,2.2934,2.292,2.2893,2.2893,2.2893,2.2893,2.2893,2.2893,2.2893,2.2893,2.2893,2.2893,2.2893,2.2893,2.2893,2.2893,2.2893,2.2853,2.2853,2.28,2.284,2.2893,2.2893,2.2893,2.2893,2.2893,2.2893,2.2893,2.2893,2.2893,2.2893,2.2893,2.2893,2.9913,2.9913,2.9913,2.9913,2.9913,2.9913,2.9913,2.9913,2.9913,2.9913,2.9913,2.9913,2.9873,2.9793,2.9606,2.9446,2.9352,2.9121,2.8841,2.8591,2.8326,2.8152,2.7924,2.7764,2.7362,2.7161,2.7229,2.7202,2.6987,2.6974,2.6921,2.7028,2.6653,2.6453,2.652,2.636,2.6319,2.6172,2.5985,2.5985,2.6079,2.5959,2.5959,2.6092,2.5984,2.5732,2.5545,2.5451,2.5569,2.569,2.5558,2.5451,2.5451,2.5504,2.5451,2.5358,2.5344,2.5424,2.5424,2.5424,2.5451,2.5545,2.5585,2.5491,2.5438,2.5262,2.5128,2.4943,2.4746,2.4666,2.4626,2.4559,2.4439,2.4356,2.4222,2.4088,2.3981,2.3777,2.3576,2.3522,2.3375,2.3233,2.3207,2.3027,2.296,2.292,2.2893,2.2893,2.2893,2.2893,2.2893,2.2893,2.2893,2.2893,2.2893,2.2893,2.2893,2.2893,2.2893,2.2893,2.2893,2.2893,2.2893,2.2893,2.2893,2.2893,2.2893,2.2893,2.2893,2.2893,2.2893,2.2893,2.2893,2.2893,2.2893,2.9913,2.9913,2.9913,2.9913,2.9913,2.9913,2.9913,2.9913,2.9913,2.9913,2.9913,2.9913,2.9913,2.99,2.9766,2.9686,2.9619,2.9379,2.9179,2.8951,2.8604,2.8377,2.8339,2.8112,2.7722,2.7468,2.7643,2.7603,2.7442,2.7295,2.7335,2.7428,2.7001,2.6907,2.7001,2.6867,2.6774,2.6587,2.6453,2.6386,2.6346,2.6253,2.6238,2.6306,2.6172,2.5944,2.5932,2.5785,2.5931,2.6039,2.5999,2.5852,2.5785,2.5838,2.5798,2.5571,2.5665,2.5705,2.5718,2.5732,2.5785,2.5905,2.5919,2.5838,2.5758,2.561,2.5462,2.5304,2.5144,2.501,2.4863,2.4639,2.4626,2.4572,2.4479,2.4372,2.4306,2.4048,2.3817,2.379,2.3643,2.3554,2.3434,2.3233,2.3113,2.3113,2.2934,2.292,2.2893,2.2893,2.2893,2.2893,2.2893,2.2893,2.2893,2.2893,2.2893,2.2893,2.2893,2.2893,2.2893,2.2893,2.2893,2.2893,2.2893,2.2893,2.2893,2.2893,2.2893,2.2893,2.2893,2.2893,2.2893,2.2893,2.2893,2.9913,2.9913,2.9913,2.9913,2.9913,2.9913,2.9913,2.9913,2.9913,2.9913,2.9913,2.9913,2.9913,2.9913,2.99,2.99,2.982,2.9619,2.9436,2.9369,2.8804,2.8591,2.8484,2.8312,2.8125,2.8179,2.8112,2.8085,2.7951,2.7884,2.7655,2.7682,2.7443,2.7296,2.7336,2.7296,2.7095,2.68,2.6747,2.6667,2.652,2.6466,2.6466,2.644,2.6265,2.6198,2.6226,2.6146,2.6132,2.6373,2.64,2.6305,2.6198,2.6238,2.6213,2.5692,2.5905,2.5999,2.6065,2.6078,2.6119,2.6386,2.6373,2.6266,2.6118,2.5957,2.581,2.5677,2.5478,2.5358,2.5157,2.4997,2.4813,2.4773,2.4759,2.4719,2.4586,2.4249,2.4138,2.3955,2.3901,2.3834,2.3741,2.3581,2.3447,2.33,2.3073,2.292,2.2907,2.2893,2.2893,2.2893,2.2893,2.2893,2.2893,2.2893,2.2893,2.2893,2.2893,2.2893,2.2893,2.2893,2.2893,2.2893,2.2893,2.2893,2.2893,2.2893,2.2893,2.2893,2.2893,2.2893,2.2893,2.2893,2.2893,2.9913,2.9913,2.9913,2.9913,2.9913,2.9913,2.9913,2.9913,2.9913,2.9913,2.9913,2.9913,2.9913,2.9913,2.9913,2.9913,2.9847,2.9659,2.957,2.9419,2.8951,2.8684,2.8604,2.8406,2.8219,2.8192,2.8192,2.8112,2.7911,2.7722,2.7843,2.7951,2.7617,2.7456,2.7563,2.7443,2.7242,2.6974,2.6921,2.6814,2.6774,2.6747,2.6747,2.6734,2.6493,2.6413,2.64,2.6373,2.6346,2.6386,2.6386,2.6373,2.6346,2.6386,2.6333,2.6239,2.6213,2.6266,2.6305,2.6359,2.6372,2.6386,2.6453,2.6426,2.6332,2.6172,2.6065,2.5904,2.5678,2.5491,2.5451,2.5331,2.5344,2.5306,2.5226,2.5197,2.501,2.481,2.4609,2.4396,2.4249,2.4115,2.4035,2.3875,2.3661,2.3474,2.326,2.302,2.2907,2.2893,2.2893,2.2893,2.2893,2.2893,2.2893,2.2893,2.2893,2.2893,2.2893,2.2893,2.2893,2.2893,2.2893,2.2893,2.2893,2.2893,2.2893,2.2893,2.2893,2.2893,2.2893,2.2907,2.2893,2.2893,2.2893,2.9913,2.9913,2.9913,2.9913,2.9913,2.9913,2.9913,2.9913,2.9913,2.9913,2.9913,2.9913,2.9913,2.9913,2.9913,2.9913,2.986,2.9793,2.9713,2.9593,2.9272,2.8965,2.8818,2.8524,2.8339,2.8286,2.8312,2.8259,2.7991,2.7978,2.8058,2.8085,2.7871,2.7844,2.7924,2.7857,2.7576,2.7321,2.7255,2.7188,2.7068,2.7054,2.7054,2.7001,2.6934,2.6854,2.6814,2.6667,2.6707,2.676,2.656,2.6507,2.656,2.66,2.6547,2.644,2.6413,2.64,2.644,2.6507,2.6613,2.664,2.6734,2.6747,2.664,2.6493,2.6346,2.6185,2.5957,2.5784,2.5784,2.5625,2.5518,2.5478,2.5424,2.5277,2.5104,2.497,2.485,2.4693,2.4519,2.4436,2.4382,2.4168,2.3888,2.3647,2.3447,2.3207,2.2987,2.2947,2.296,2.2974,2.2974,2.296,2.2974,2.3014,2.2934,2.2907,2.2947,2.2947,2.2893,2.2893,2.2893,2.2893,2.2893,2.2893,2.2907,2.2907,2.2907,2.2907,2.2947,2.296,2.292,2.2893,2.2934,2.9913,2.9913,2.9913,2.9913,2.9913,2.9913,2.9913,2.9913,2.9913,2.9913,2.9913,2.9913,2.9913,2.9913,2.9913,2.9913,2.9913,2.99,2.9887,2.982,2.9579,2.9325,2.9112,2.8801,2.8591,2.8497,2.8564,2.8497,2.8245,2.8326,2.8312,2.8232,2.8219,2.8232,2.8165,2.8098,2.7991,2.7789,2.7696,2.7562,2.7415,2.7389,2.7389,2.7376,2.7336,2.7269,2.7215,2.7014,2.7014,2.7028,2.6881,2.6694,2.6867,2.6907,2.68,2.6613,2.656,2.6547,2.656,2.6747,2.6881,2.68,2.7135,2.7054,2.6854,2.6667,2.6573,2.64,2.6238,2.6078,2.6051,2.5852,2.5745,2.5692,2.5558,2.5331,2.5304,2.5211,2.5104,2.4933,2.4786,2.4666,2.4586,2.4439,2.4182,2.3888,2.3688,2.3514,2.3308,2.3086,2.306,2.3094,2.3081,2.3041,2.3081,2.3174,2.3054,2.2907,2.3,2.302,2.2939,2.2893,2.292,2.2947,2.2893,2.2893,2.2907,2.2947,2.2987,2.2979,2.3041,2.3014,2.2947,2.2979,2.306,2.9913,2.9913,2.9913,2.9913,2.9913,2.9913,2.9913,2.9913,2.9913,2.9913,2.9913,2.9913,2.9913,2.9913,2.9913,2.9913,2.9913,2.9913,2.9913,2.9873,2.9646,2.9486,2.9379,2.9125,2.8951,2.8845,2.8881,2.8644,2.8473,2.8684,2.8631,2.8393,2.8473,2.8444,2.8326,2.8272,2.8031,2.7776,2.7722,2.7696,2.7697,2.7642,2.7642,2.7589,2.751,2.7389,2.7403,2.7268,2.7268,2.7322,2.7255,2.7202,2.7215,2.7255,2.7255,2.7215,2.7175,2.7054,2.6881,2.7041,2.7134,2.7041,2.7229,2.7081,2.6907,2.6627,2.6466,2.6413,2.6333,2.6346,2.6319,2.6279,2.6266,2.6199,2.6052,2.5957,2.5864,2.5424,2.5317,2.5291,2.517,2.4919,2.4759,2.4613,2.4439,2.4195,2.3928,2.3754,2.3581,2.338,2.3273,2.3287,2.3348,2.3322,2.3295,2.3375,2.3308,2.3067,2.3134,2.3207,2.3166,2.3134,2.3014,2.3014,2.3,2.3027,2.3108,2.3148,2.3086,2.3166,2.3308,2.3174,2.296,2.3046,2.326,2.9913,2.9913,2.9913,2.9913,2.9913,2.9913,2.9913,2.9913,2.9913,2.9913,2.9913,2.9913,2.9913,2.9913,2.9913,2.9913,2.9913,2.9913,2.9913,2.9913,2.9766,2.9633,2.9486,2.9339,2.9232,2.9095,2.9165,2.9098,2.8871,2.8845,2.8815,2.8724,2.8764,2.8775,2.8537,2.847,2.8364,2.8203,2.807,2.8005,2.7991,2.7991,2.7991,2.7949,2.7844,2.7791,2.775,2.7617,2.7657,2.767,2.755,2.7403,2.7468,2.7509,2.755,2.7522,2.7724,2.7576,2.7201,2.7375,2.7375,2.7428,2.7563,2.7603,2.7134,2.668,2.64,2.64,2.64,2.64,2.64,2.64,2.64,2.6373,2.6319,2.6238,2.6065,2.5772,2.5545,2.5531,2.5518,2.5317,2.5093,2.4997,2.477,2.4356,2.4115,2.3941,2.3794,2.3647,2.3581,2.3581,2.3607,2.3656,2.3616,2.3629,2.3643,2.3496,2.3509,2.3576,2.3522,2.3442,2.3322,2.3348,2.3469,2.3455,2.3402,2.3327,2.3327,2.3447,2.3629,2.3482,2.3362,2.3442,2.3567,2.9913,2.9913,2.9913,2.9913,2.9913,2.9913,2.9913,2.9913,2.9913,2.9913,2.9913,2.9913,2.9913,2.9913,2.9913,2.9913,2.9913,2.9913,2.9913,2.9913,2.9887,2.9793,2.9673,2.9566,2.9486,2.9202,2.9499,2.9459,2.9339,2.9228,2.9188,2.9015,2.9055,2.8961,2.8828,2.8684,2.8511,2.8406,2.8245,2.8165,2.8165,2.8165,2.8165,2.8179,2.8179,2.8192,2.8152,2.7991,2.7991,2.7991,2.7804,2.7697,2.7776,2.7844,2.7857,2.7884,2.8018,2.7951,2.7724,2.7737,2.7791,2.7831,2.7857,2.775,2.7322,2.6774,2.6426,2.6413,2.64,2.64,2.64,2.64,2.6466,2.64,2.6306,2.6238,2.6158,2.5985,2.5919,2.5932,2.5892,2.5758,2.5571,2.5424,2.5077,2.4569,2.4302,2.4128,2.4022,2.3915,2.3915,2.3928,2.4008,2.3968,2.3817,2.3817,2.3843,2.3897,2.3897,2.3843,2.3763,2.3723,2.3656,2.3736,2.3857,2.3843,2.3714,2.3647,2.3581,2.3688,2.3817,2.387,2.3857,2.3897,2.391,2.9913,2.9913,2.9913,2.9913,2.9913,2.9913,2.9913,2.9913,2.9913,2.9913,2.9913,2.9913,2.9913,2.9913,2.9913,2.9913,2.9913,2.9913,2.9913,2.9913,2.99,2.9887,2.982,2.982,2.9833,2.978,2.9806,2.9806,2.982,2.97,2.9415,2.9108,2.9268,2.9058,2.8871,2.8751,2.8564,2.846,2.8299,2.8245,2.8219,2.8205,2.8192,2.8192,2.8192,2.8192,2.8192,2.8165,2.8125,2.8192,2.8112,2.8018,2.8072,2.8085,2.8072,2.8098,2.8125,2.8098,2.8031,2.8005,2.7978,2.7802,2.7709,2.7669,2.7403,2.7014,2.6707,2.652,2.6573,2.6507,2.6466,2.6426,2.6627,2.6667,2.6613,2.6547,2.6519,2.6386,2.6333,2.6333,2.6226,2.6066,2.5932,2.5784,2.5464,2.497,2.4583,2.4409,2.4329,2.4249,2.4262,2.4302,2.4399,2.4315,2.3955,2.3968,2.4155,2.4155,2.4115,2.4008,2.3888,2.3875,2.3968,2.3955,2.4022,2.4048,2.4088,2.4048,2.4008,2.3955,2.4031,2.4102,2.4128,2.4115,2.4142,2.9913,2.9913,2.9913,2.9913,2.9913,2.9913,2.9913,2.9913,2.9913,2.9913,2.9913,2.9913,2.9913,2.9913,2.9913,2.9913,2.9913,2.9913,2.9913,2.9913,2.9913,2.9913,2.9913,2.9913,2.9913,2.9913,2.9913,2.9913,2.99,2.9913,2.9833,2.9602,2.9513,2.9379,2.9165,2.8938,2.8778,2.8671,2.8511,2.843,2.8433,2.8259,2.8192,2.8192,2.8192,2.8192,2.8219,2.8393,2.8326,2.8286,2.8323,2.8326,2.8219,2.8205,2.8219,2.8219,2.8219,2.8219,2.8205,2.8192,2.8125,2.8031,2.7816,2.7642,2.7495,2.7255,2.7094,2.7001,2.6934,2.6881,2.6961,2.6974,2.7041,2.7081,2.7041,2.6894,2.6827,2.6747,2.656,2.6493,2.6413,2.6332,2.6212,2.6091,2.577,2.5384,2.501,2.4703,2.4649,2.4572,2.4586,2.4586,2.4706,2.4706,2.4396,2.4449,2.4519,2.4489,2.4409,2.4315,2.4249,2.4315,2.4369,2.4315,2.4262,2.4329,2.4346,2.4399,2.4372,2.4302,2.4356,2.4462,2.4449,2.4369,2.4409,2.9913,2.9913,2.9913,2.9913,2.9913,2.9913,2.9913,2.9913,2.9913,2.9913,2.9913,2.9913,2.9913,2.9913,2.9913,2.9913,2.9913,2.9913,2.9913,2.9913,2.9913,2.9913,2.9913,2.9913,2.9913,2.9913,2.9913,2.9913,2.9913,2.9913,2.9873,2.9793,2.9646,2.9499,2.9392,2.9161,2.9001,2.8935,2.8828,2.8695,2.8698,2.8564,2.8393,2.8379,2.8353,2.8272,2.8299,2.8419,2.8433,2.8379,2.8393,2.839,2.8326,2.8259,2.8312,2.8326,2.8326,2.8326,2.8312,2.8219,2.8192,2.8125,2.8018,2.7816,2.7669,2.7509,2.7403,2.7255,2.7269,2.7322,2.7322,2.7242,2.7309,2.7349,2.7242,2.7148,2.7134,2.7068,2.6814,2.6627,2.656,2.6507,2.6386,2.6252,2.5945,2.5638,2.5331,2.509,2.505,2.4973,2.4959,2.4959,2.4973,2.4933,2.4866,2.4919,2.4983,2.4957,2.4877,2.4756,2.4716,2.4706,2.4613,2.4479,2.4466,2.4572,2.4613,2.4663,2.4613,2.4586,2.4599,2.4572,2.4559,2.4479,2.4613,2.9913,2.9913,2.9913,2.9913,2.9913,2.9913,2.9913,2.9913,2.9913,2.9913,2.9913,2.9913,2.9913,2.9913,2.9913,2.9913,2.9913,2.9913,2.9913,2.9913,2.9913,2.9913,2.9913,2.9913,2.9913,2.9913,2.9913,2.9913,2.9913,2.9913,2.9913,2.986,2.9686,2.9513,2.9459,2.9148,2.9015,2.9015,2.9015,2.8988,2.8975,2.8908,2.8764,2.8644,2.8524,2.8404,2.8393,2.8524,2.8524,2.8393,2.8524,2.8511,2.8326,2.843,2.8511,2.8537,2.8577,2.8591,2.8577,2.8366,2.8286,2.8119,2.7857,2.7596,2.7691,2.7696,2.771,2.763,2.7483,2.7403,2.7362,2.7376,2.7563,2.7617,2.751,2.7429,2.7415,2.7375,2.7121,2.6854,2.6787,2.672,2.6533,2.6346,2.6119,2.5865,2.5611,2.5464,2.5411,2.5293,2.5277,2.5251,2.5237,2.5237,2.5224,2.5371,2.5411,2.5384,2.5291,2.5144,2.4983,2.4877,2.4783,2.4653,2.4613,2.4613,2.477,2.4877,2.4903,2.4893,2.4653,2.4586,2.4599,2.4666,2.485,2.9913,2.9913,2.9913,2.9913,2.9913,2.9913,2.9913,2.9913,2.9913,2.9913,2.9913,2.9913,2.9913,2.9913,2.9913,2.9913,2.9913,2.9913,2.9913,2.9913,2.9913,2.9913,2.9913,2.9913,2.9913,2.9913,2.9913,2.9913,2.9913,2.9913,2.9913,2.986,2.9793,2.9659,2.9526,2.9379,2.9406,2.9508,2.9459,2.9325,2.9312,2.9121,2.8975,2.8855,2.8695,2.8591,2.8484,2.8695,2.8724,2.8537,2.8738,2.8738,2.8524,2.8631,2.8631,2.8684,2.8738,2.8855,2.8841,2.8764,2.8644,2.8142,2.7306,2.7234,2.8129,2.8121,2.8083,2.8043,2.7924,2.7884,2.7911,2.7911,2.8005,2.8005,2.7924,2.7791,2.7709,2.7615,2.7442,2.7148,2.7001,2.6881,2.672,2.6694,2.6507,2.6386,2.6186,2.5798,2.5638,2.5518,2.5438,2.5438,2.5438,2.5478,2.5531,2.5651,2.5678,2.5611,2.5531,2.5411,2.5251,2.5104,2.501,2.4957,2.481,2.4653,2.4943,2.517,2.5264,2.5186,2.4973,2.4906,2.5026,2.5039,2.5077,2.9913,2.9913,2.9913,2.9913,2.9913,2.9913,2.9913,2.9913,2.9913,2.9913,2.9913,2.9913,2.9913,2.9913,2.9913,2.9913,2.9913,2.9913,2.9913,2.9913,2.9913,2.9913,2.9913,2.9913,2.9913,2.9913,2.9913,2.9913,2.9913,2.9913,2.9913,2.9913,2.9913,2.9806,2.9686,2.9673,2.97,2.9793,2.9686,2.9633,2.9579,2.9472,2.9325,2.9179,2.9032,2.8885,2.8828,2.8908,2.9015,2.8895,2.8951,2.8988,2.8871,2.8845,2.8885,2.8991,2.9058,2.9095,2.9001,2.7803,2.7887,2.8808,2.6987,2.716,2.8459,2.8428,2.8444,2.843,2.8377,2.8404,2.8433,2.8433,2.8312,2.8312,2.8165,2.8045,2.7965,2.7871,2.7722,2.7483,2.7268,2.7121,2.6987,2.7001,2.6947,2.6867,2.6814,2.636,2.5972,2.5852,2.5758,2.5745,2.5785,2.5852,2.5892,2.5932,2.5919,2.5838,2.5758,2.5678,2.5571,2.5476,2.5331,2.5237,2.5144,2.5144,2.5317,2.5478,2.5558,2.5518,2.5358,2.5371,2.5466,2.5451,2.5358,2.9913,2.9913,2.9913,2.9913,2.9913,2.9913,2.9913,2.9913,2.9913,2.9913,2.9913,2.9913,2.9913,2.9913,2.9913,2.9913,2.9913,2.9913,2.9913,2.9913,2.9913,2.9913,2.9913,2.9913,2.9913,2.9913,2.9913,2.9913,2.9913,2.9913,2.9913,2.9913,2.9913,2.9873,2.986,2.9847,2.9873,2.9873,2.9873,2.982,2.978,2.982,2.9659,2.9513,2.9379,2.9232,2.9205,2.9259,2.9245,2.9232,2.9285,2.9232,2.9232,2.9325,2.9419,2.9486,2.9486,2.9352,2.8969,2.7542,2.7782,2.9132,2.903,2.8878,2.8695,2.8631,2.8537,2.8591,2.8591,2.8778,2.8841,2.8711,2.8537,2.8417,2.8299,2.8219,2.8165,2.8085,2.7978,2.7817,2.7655,2.7509,2.7321,2.7295,2.7321,2.7389,2.7296,2.7068,2.6694,2.6373,2.6279,2.6172,2.6213,2.6293,2.6293,2.6199,2.6172,2.6092,2.6039,2.5959,2.5891,2.5784,2.565,2.5531,2.5531,2.5571,2.569,2.5784,2.5838,2.5785,2.5772,2.5758,2.5879,2.5678,2.5636,2.9913,2.9913,2.9913,2.9913,2.9913,2.9913,2.9913,2.9913,2.9913,2.9913,2.9913,2.9913,2.9913,2.9913,2.9913,2.9913,2.9913,2.9913,2.9913,2.9913,2.9913,2.9913,2.9913,2.9913,2.9913,2.9913,2.9913,2.9913,2.9913,2.9913,2.9913,2.9913,2.9913,2.9913,2.9913,2.9913,2.9913,2.9913,2.9913,2.9913,2.9913,2.9913,2.982,2.9753,2.9593,2.9459,2.9446,2.9446,2.9432,2.9432,2.9432,2.9406,2.9406,2.9446,2.9526,2.9766,2.978,2.9695,2.9539,2.9023,2.8947,2.9446,2.9602,2.9526,2.9179,2.8804,2.8604,2.8751,2.8818,2.8938,2.8975,2.8855,2.8738,2.8591,2.839,2.8232,2.8192,2.8165,2.8072,2.8031,2.7911,2.7762,2.763,2.7617,2.7657,2.7777,2.775,2.7535,2.7295,2.6934,2.6707,2.6587,2.6547,2.6587,2.6466,2.636,2.636,2.6346,2.6266,2.6199,2.6146,2.6026,2.5931,2.5864,2.5825,2.5891,2.5931,2.6024,2.6092,2.6279,2.6293,2.6253,2.6186,2.6026,2.5905,2.9913,2.9913,2.9913,2.9913,2.9913,2.9913,2.9913,2.9913,2.9913,2.9913,2.9913,2.9913,2.9913,2.9913,2.9913,2.9913,2.9913,2.9913,2.9913,2.9913,2.9913,2.9913,2.9913,2.9913,2.9913,2.9913,2.9913,2.9913,2.9913,2.9913,2.9913,2.9913,2.9913,2.9913,2.9913,2.9913,2.9913,2.9913,2.9913,2.9913,2.9913,2.9913,2.9913,2.9873,2.97,2.9659,2.9646,2.9646,2.9646,2.9646,2.9659,2.9659,2.9659,2.9673,2.9686,2.9842,2.9887,2.9887,2.9802,2.9828,2.9855,2.9887,2.982,2.9633,2.9432,2.9142,2.9072,2.9125,2.9072,2.9045,2.9072,2.9015,2.8881,2.8791,2.8484,2.8219,2.8192,2.8192,2.8165,2.8152,2.8072,2.7978,2.7911,2.7911,2.7924,2.8005,2.7978,2.7831,2.7549,2.7228,2.7081,2.6961,2.6854,2.6827,2.6694,2.66,2.66,2.656,2.64,2.636,2.636,2.6319,2.6186,2.6172,2.6158,2.6198,2.6252,2.6279,2.6346,2.652,2.6653,2.6613,2.6547,2.6466,2.6373,2.9913,2.9913,2.9913,2.9913,2.9913,2.9913,2.99,2.9842,2.986,2.9887,2.99,2.9913,2.9913,2.9913,2.9913,2.9913,2.9913,2.9913,2.9913,2.9913,2.9913,2.9913,2.9913,2.9913,2.9913,2.9913,2.9913,2.9913,2.9913,2.9913,2.9913,2.9913,2.9913,2.9913,2.9913,2.9913,2.9913,2.9913,2.9913,2.9913,2.9913,2.9913,2.9913,2.9913,2.9887,2.9887,2.9887,2.99,2.9913,2.9913,2.9855,2.9887,2.9873,2.9873,2.99,2.99,2.9913,2.9913,2.9913,2.9913,2.9913,2.9833,2.9686,2.9646,2.9526,2.9259,2.9205,2.9312,2.9272,2.9392,2.9459,2.9299,2.9125,2.8978,2.8751,2.858,2.85,2.8446,2.8339,2.8299,2.8192,2.8112,2.8098,2.8085,2.8125,2.8205,2.8219,2.8098,2.7884,2.7549,2.7403,2.7282,2.7148,2.7095,2.7081,2.6947,2.6881,2.6774,2.6627,2.6613,2.6694,2.6613,2.648,2.652,2.6626,2.6573,2.6586,2.6613,2.6653,2.6694,2.6814,2.6881,2.6867,2.6854,2.6814,2.9913,2.9913,2.9913,2.9913,2.9913,2.9913,2.9793,2.9593,2.9579,2.9713,2.9842,2.99,2.99,2.9873,2.99,2.99,2.9887,2.99,2.9913,2.9913,2.9913,2.9913,2.9913,2.9913,2.9913,2.9913,2.9913,2.9913,2.9913,2.9913,2.9913,2.9913,2.9913,2.9913,2.9913,2.9913,2.9913,2.9913,2.9913,2.9913,2.9913,2.9913,2.9913,2.9913,2.9913,2.9913,2.9913,2.9913,2.9913,2.9913,2.9913,2.9913,2.9913,2.9913,2.9913,2.9913,2.9913,2.9913,2.9913,2.9913,2.9913,2.9913,2.9833,2.9833,2.9686,2.9308,2.9259,2.9419,2.9553,2.9713,2.974,2.9526,2.9325,2.9179,2.9018,2.8898,2.8778,2.8644,2.8511,2.8404,2.8326,2.8299,2.8299,2.8312,2.8339,2.8406,2.8457,2.8404,2.8259,2.8005,2.775,2.759,2.7362,2.7296,2.7336,2.7309,2.7188,2.7134,2.7028,2.7014,2.7014,2.6934,2.6894,2.7041,2.7108,2.6988,2.6948,2.7081,2.7108,2.7028,2.7135,2.7215,2.7281,2.7281,2.7228,2.9913,2.9913,2.9913,2.9847,2.9753,2.986,2.9686,2.9366,2.9419,2.9499,2.9553,2.9659,2.9726,2.9766,2.9847,2.9806,2.978,2.986,2.99,2.9913,2.9913,2.9913,2.9913,2.9913,2.9913,2.9913,2.9913,2.9913,2.9913,2.9913,2.9913,2.9913,2.9913,2.9913,2.9913,2.9913,2.9913,2.9913,2.9913,2.9913,2.9913,2.9913,2.9913,2.9913,2.9913,2.9913,2.9913,2.9913,2.9913,2.9913,2.9913,2.9913,2.9913,2.9913,2.9913,2.9913,2.9913,2.9913,2.9913,2.9913,2.9913,2.9913,2.9913,2.9873,2.9828,2.9562,2.9593,2.9726,2.9726,2.986,2.9793,2.9619,2.9472,2.9339,2.9138,2.8935,2.8881,2.8858,2.8791,2.8764,2.8684,2.8671,2.8684,2.8698,2.8711,2.8711,2.8735,2.8721,2.8577,2.8379,2.8138,2.7978,2.7791,2.7697,2.7777,2.767,2.7468,2.7428,2.7483,2.7336,2.7269,2.7269,2.7296,2.7349,2.7349,2.7255,2.7269,2.7389,2.7336,2.7202,2.7403,2.7602,2.7684,2.775,2.7764,2.982,2.9762,2.9748,2.9686,2.9539,2.974,2.9553,2.9108,2.9299,2.9245,2.9015,2.9259,2.941,2.9513,2.9646,2.9593,2.9606,2.9713,2.9806,2.9913,2.9913,2.9913,2.9913,2.9913,2.9913,2.9913,2.9913,2.9913,2.9913,2.9913,2.9913,2.9913,2.9913,2.9913,2.9913,2.9913,2.9913,2.9913,2.9913,2.9913,2.9913,2.9913,2.9913,2.9913,2.9913,2.9913,2.9913,2.9913,2.9913,2.9913,2.9913,2.9913,2.9913,2.9913,2.9913,2.9913,2.9913,2.9913,2.9913,2.9913,2.9913,2.9913,2.9913,2.9913,2.9869,2.99,2.9887,2.9887,2.9887,2.9873,2.9806,2.9753,2.9619,2.9526,2.9325,2.9135,2.9121,2.9081,2.9055,2.9041,2.9001,2.9032,2.8988,2.9001,2.9028,2.9028,2.9015,2.9001,2.8908,2.8671,2.8417,2.839,2.835,2.8283,2.8245,2.8165,2.7963,2.7936,2.7923,2.7642,2.7523,2.763,2.7643,2.7536,2.7523,2.7563,2.755,2.7603,2.751,2.7496,2.7791,2.803,2.8056,2.8136,2.8286,2.9419,2.9161,2.9161,2.9299,2.9459,2.9539,2.9366,2.9041,2.9041,2.8921,2.8764,2.8738,2.8885,2.9125,2.9121,2.9188,2.9459,2.9566,2.9753,2.9887,2.9913,2.9913,2.9913,2.9913,2.9913,2.9913,2.9913,2.9913,2.9913,2.9913,2.9913,2.9913,2.9913,2.9913,2.9913,2.9913,2.9913,2.9913,2.9913,2.9913,2.9913,2.9913,2.9913,2.9913,2.9913,2.9913,2.9913,2.9913,2.9913,2.9913,2.9913,2.9913,2.9913,2.9913,2.9913,2.9913,2.9913,2.9913,2.9913,2.9913,2.9913,2.9913,2.9913,2.9913,2.9913,2.9913,2.99,2.99,2.99,2.99,2.986,2.986,2.978,2.978,2.9659,2.9646,2.9646,2.9513,2.9392,2.9312,2.9232,2.9192,2.9108,2.9161,2.9299,2.9228,2.9135,2.9121,2.9135,2.8965,2.8738,2.8791,2.8858,2.8724,2.8564,2.8684,2.8561,2.8508,2.8444,2.823,2.8096,2.8098,2.8058,2.7871,2.7924,2.8018,2.7991,2.7965,2.8031,2.8085,2.827,2.847,2.8484,2.8511,2.8604]},{"header":{"parameterUnit":"m.s-1","parameterCategory":1,"la1":31.0,"la2":29.5877,"lo1":-88.7671,"lo2":-86.6584,"dy":0.0162,"dx":0.0185,"nx":115,"ny":88,"refTime":"2023-09-28T18:00:00:Z","depth":0,"parameterNumber":3,"parameterNumberName":"V-component_of_WINDS"},"data":[0.0,0.0,0.0,0.0,0.0,0.0,0.0,0.0,0.0,0.0,0.0,0.0,0.0,0.0,0.0,0.0,0.0,0.0,0.0,0.0,0.0,0.0,0.0,0.0,0.0,0.0,0.0,0.0,0.0,0.0,0.0,0.0,0.0,0.0,0.0,0.0,0.0,0.0,0.0,0.0,0.0,0.0,0.0,0.0,0.0,0.0,0.0,0.0,0.0,0.0,0.0,0.0,0.0,0.0,0.0,0.0,0.0,0.0,0.0,0.0,0.0,0.0,0.0,0.0,0.0,0.0,0.0,0.0,0.0,0.0,0.0,0.0,0.0,0.0,0.0,0.0,0.0,0.0,0.0,0.0,0.0,0.0,0.0,0.0,0.0,0.0,0.0,0.0,0.0,0.0,0.0,0.0,0.0,0.0,0.0,0.0,0.0,0.0,0.0,0.0,0.0,0.0,0.0,0.0,0.0,0.0,0.0,0.0,0.0,0.0,0.0,0.0,0.0,0.0,0.0,0.0,0.0,0.0,0.0,0.0,0.0,0.0,0.0,0.0,0.0,0.0,0.0,0.0,0.0,0.0,0.0,0.0,0.0,0.0,0.0,0.0,0.0,0.0,0.0,0.0,0.0,0.0,0.0,0.0,0.0,0.0,0.0,0.0,0.0,0.0,0.0,0.0,0.0,0.0,0.0,0.0,0.0,0.0,0.0,0.0,0.0,0.0,0.0,0.0,0.0,0.0,0.0,0.0,0.0,0.0,0.0,0.0,0.0,0.0,0.0,0.0,0.0,0.0,0.0,0.0,0.0,0.0,0.0,0.0,0.0,0.0,0.0,0.0,0.0,0.0,0.0,0.0,0.0,0.0,0.0,0.0,0.0,0.0,0.0,0.0,0.0,0.0,0.0,0.0,0.0,0.0,0.0,0.0,0.0,0.0,0.0,0.0,0.0,0.0,0.0,0.0,0.0,0.0,0.0,0.0,0.0,0.0,0.0,0.0,0.0,0.0,0.0,0.0,0.0,0.0,0.0,0.0,0.0,0.0,0.0,0.0,0.0,0.0,0.0,0.0,0.0,0.0,0.0,0.0,0.0,0.0,0.0,0.0,0.0,0.0,0.0,0.0,0.0,0.0,0.0,0.0,0.0,0.0,0.0,0.0,0.0,0.0,0.0,0.0,0.0,0.0,0.0,0.0,0.0,0.0,0.0,0.0,0.0,0.0,0.0,0.0,0.0,0.0,0.0,0.0,0.0,0.0,0.0,0.0,0.0,0.0,0.0,0.0,0.0,0.0,0.0,0.0,0.0,0.0,0.0,0.0,0.0,0.0,0.0,0.0,0.0,0.0,0.0,0.0,0.0,0.0,0.0,0.0,0.0,0.0,0.0,0.0,0.0,0.0,0.0,0.0,0.0,0.0,0.0,0.0,0.0,0.0,0.0,0.0,0.0,0.0,0.0,0.0,0.0,0.0,0.0,0.0,0.0,0.0,0.0,0.0,0.0,0.0,0.0,0.0,0.0,0.0,0.0,0.0,0.0,0.0,0.0,0.0,0.0,0.0,0.0,0.0,0.0,0.0,0.0,0.0,0.0,0.0,0.0,0.0,0.0,0.0,0.0,0.0,0.0,0.0,0.0,0.0,0.0,0.0,0.0,0.0,0.0,0.0,0.0,0.0,0.0,0.0,0.0,0.0,0.0,0.0,0.0,0.0,0.0,0.0,0.0,0.0,0.0,0.0,0.0,0.0,0.0,0.0,0.0,0.0,0.0,0.0,0.0,0.0,0.0,0.0,0.0,0.0,0.0,0.0,0.0,0.0,0.0,0.0,0.0,0.0,0.0,0.0,0.0,0.0,0.0,0.0,0.0,0.0,0.0,0.0,0.0,0.0,0.0,0.0,0.0,0.0,0.0,0.0,0.0,0.0,0.0,0.0,0.0,0.0,0.0,0.0,0.0,0.0,0.0,0.0,0.0,0.0,0.0,0.0,0.0,0.0,0.0,0.0,0.0,0.0,0.0,0.0,0.0,0.0,0.0,0.0,0.0,0.0,0.0,0.0,0.0,0.0,0.0,0.0,0.0,0.0,0.0,0.0,0.0,0.0,0.0,0.0,0.0,0.0,0.0,0.0,0.0,0.0,0.0,0.0,0.0,0.0,0.0,0.0,0.0,0.0,0.0,0.0,0.0,0.0,0.0,0.0,0.0,0.0,0.0,0.0,0.0,0.0,0.0,0.0,0.0,0.0,0.0,0.0,0.0,0.0,0.0,0.0,0.0,0.0,0.0,0.0,0.0,0.0,0.0,0.0,0.0,0.0,0.0,0.0,0.0,0.0,0.0,0.0,0.0,0.0,0.0,0.0,0.0,0.0,0.0,0.0,0.0,0.0,0.0,0.0,0.0,0.0,0.0,0.0,0.0,0.0,0.0,0.0,0.0,0.0,0.0,0.0,0.0,0.0,0.0,0.0,0.0,0.0,0.0,0.0,0.0,0.0,0.0,0.0,0.0,0.0,0.0,0.0,0.0,0.0,0.0,0.0,0.0,0.0,0.0,0.0,0.0,0.0,0.0,0.0,0.0,0.0,0.0,0.0,0.0,0.0,0.0,0.0,0.0,0.0,0.0,0.0,0.0,0.0,0.0,0.0,0.0,0.0,0.0,0.0,0.0,0.0,0.0,0.0,0.0,0.0,0.0,0.0,0.0,0.0,0.0,0.0,0.0,0.0,0.0,0.0,0.0,0.0,0.0,0.0,0.0,0.0,0.0,0.0,0.0,0.0,0.0,0.0,0.0,0.0,0.0,0.0,0.0,0.0,0.0,0.0,0.0,0.0,0.0,0.0,0.0,0.0,0.0,0.0,0.0,0.0,0.0,0.0,0.0,0.0,0.0,0.0,0.0,0.0,0.0,0.0,0.0,0.0,0.0,0.0,0.0,0.0,0.0,0.0,0.0,0.0,0.0,0.0,0.0,0.0,0.0,0.0,0.0,0.0,0.0,0.0,0.0,0.0,0.0,0.0,0.0,0.0,0.0,0.0,0.0,0.0,0.0,0.0,0.0,0.0,0.0,0.0,0.0,0.0,0.0,0.0,0.0,0.0,0.0,0.0,0.0,0.0,0.0,0.0,0.0,0.0,0.0,0.0,0.0,0.0,0.0,0.0,0.0,0.0,0.0,0.0,0.0,0.0,0.0,0.0,0.0,0.0,0.0,0.0,0.0,0.0,0.0,0.0,0.0,0.0,0.0,0.0,0.0,0.0,0.0,0.0,0.0,0.0,0.0,0.0,0.0,0.0,0.0,0.0,0.0,0.0,0.0,0.0,0.0,0.0,0.0,0.0,0.0,0.0,0.0,0.0,0.0,0.0,0.0,0.0,0.0,0.0,0.0,0.0,0.0,0.0,0.0,0.0,0.0,0.0,0.0,0.0,0.0,0.0,0.0,0.0,0.0,0.0,0.0,0.0,0.0,0.0,0.0,0.0,0.0,0.0,0.0,0.0,0.0,0.0,0.0,0.0,0.0,0.0,0.0,0.0,0.0,0.0,0.0,0.0,0.0,0.0,0.0,0.0,0.0,0.0,0.0,0.0,0.0,0.0,0.0,0.0,0.0,0.0,0.0,0.0,0.0,0.0,0.0,0.0,0.0,0.0,0.0,0.0,0.0,0.0,0.0,0.0,0.0,0.0,0.0,0.0,0.0,0.0,0.0,0.0,0.0,0.0,0.0,0.0,0.0,0.0,0.0,0.0,0.0,0.0,0.0,0.0,0.0,0.0,0.0,0.0,0.0,0.0,0.0,0.0,0.0,0.0,0.0,0.0,0.0,0.0,0.0,0.0,0.0,0.0,0.0,0.0,0.0,0.0,0.0,0.0,0.0,0.0,0.0,0.0,0.0,0.0,0.0,0.0,0.0,0.0,0.0,0.0,0.0,0.0,0.0,0.0,0.0,0.0,0.0,0.0,0.0,0.0,0.0,0.0,0.0,0.0,0.0,0.0,0.0,0.0,0.0,0.0,0.0,0.0,0.0,0.0,0.0,0.0,0.0,0.0,0.0,0.0,0.0,0.0,0.0,0.0,0.0,0.0,0.0,0.0,0.0,0.0,0.0,0.0,0.0,0.0,0.0,0.0,0.0,0.0,0.0,0.0,0.0,0.0,0.0,0.0,0.0,0.0,0.0,0.0,0.0,0.0,0.0,0.0,0.0,0.0,0.0,0.0,0.0,0.0,0.0,0.0,0.0,0.0,0.0,0.0,0.0,0.0,0.0,0.0,0.0,0.0,0.0,0.0,0.0,0.0,3.3777,0.0,0.0,0.0,0.0,0.0,0.0,0.0,0.0,0.0,0.0,0.0,0.0,0.0,0.0,0.0,0.0,0.0,0.0,0.0,0.0,0.0,0.0,0.0,0.0,0.0,0.0,0.0,0.0,0.0,0.0,0.0,0.0,0.0,0.0,0.0,0.0,0.0,0.0,0.0,0.0,0.0,0.0,0.0,0.0,0.0,0.0,0.0,0.0,0.0,0.0,0.0,0.0,0.0,0.0,0.0,0.0,0.0,0.0,0.0,0.0,0.0,0.0,0.0,0.0,0.0,0.0,0.0,0.0,0.0,0.0,0.0,0.0,0.0,0.0,0.0,0.0,0.0,0.0,0.0,0.0,0.0,0.0,0.0,0.0,0.0,0.0,0.0,0.0,0.0,0.0,0.0,0.0,0.0,0.0,0.0,0.0,0.0,0.0,0.0,0.0,0.0,0.0,0.0,0.0,0.0,0.0,0.0,0.0,0.0,0.0,3.5495,3.3917,3.6207,3.5906,3.2675,0.0,0.0,0.0,0.0,0.0,0.0,0.0,0.0,0.0,0.0,0.0,0.0,0.0,0.0,0.0,0.0,0.0,0.0,0.0,0.0,0.0,0.0,0.0,0.0,0.0,0.0,0.0,0.0,0.0,0.0,0.0,0.0,0.0,0.0,0.0,0.0,0.0,0.0,0.0,0.0,0.0,0.0,0.0,0.0,0.0,0.0,0.0,0.0,0.0,0.0,0.0,0.0,0.0,0.0,0.0,0.0,0.0,0.0,0.0,0.0,0.0,0.0,0.0,0.0,0.0,0.0,0.0,0.0,0.0,0.0,0.0,0.0,0.0,0.0,0.0,0.0,0.0,0.0,0.0,0.0,0.0,0.0,0.0,0.0,0.0,0.0,0.0,0.0,0.0,0.0,0.0,0.0,0.0,0.0,0.0,0.0,0.0,0.0,0.0,0.0,0.0,0.0,0.0,0.0,0.0,0.0,0.0,0.0,0.0,0.0,0.0,0.0,3.6244,3.5766,3.2675,0.0,0.0,0.0,0.0,0.0,0.0,0.0,0.0,0.0,0.0,0.0,0.0,0.0,0.0,0.0,0.0,0.0,0.0,0.0,0.0,0.0,0.0,0.0,0.0,0.0,0.0,0.0,0.0,0.0,0.0,0.0,0.0,0.0,0.0,0.0,0.0,0.0,0.0,0.0,0.0,0.0,0.0,0.0,0.0,0.0,0.0,0.0,0.0,0.0,0.0,0.0,0.0,0.0,0.0,0.0,0.0,0.0,0.0,0.0,0.0,0.0,0.0,0.0,0.0,0.0,0.0,0.0,0.0,0.0,0.0,0.0,0.0,0.0,0.0,0.0,0.0,0.0,0.0,0.0,0.0,0.0,0.0,0.0,0.0,0.0,0.0,0.0,0.0,0.0,0.0,0.0,0.0,0.0,0.0,0.0,0.0,0.0,0.0,0.0,0.0,0.0,0.0,0.0,0.0,0.0,0.0,0.0,0.0,0.0,0.0,3.4688,3.6016,3.6266,0.0,3.5796,0.0,0.0,0.0,0.0,0.0,0.0,0.0,0.0,0.0,0.0,0.0,0.0,0.0,0.0,0.0,0.0,0.0,0.0,0.0,0.0,0.0,0.0,0.0,0.0,0.0,0.0,0.0,0.0,0.0,0.0,0.0,0.0,0.0,0.0,0.0,0.0,0.0,0.0,0.0,0.0,0.0,0.0,0.0,0.0,0.0,0.0,0.0,0.0,0.0,0.0,0.0,0.0,0.0,0.0,0.0,0.0,0.0,0.0,0.0,0.0,0.0,0.0,0.0,0.0,0.0,0.0,0.0,0.0,0.0,0.0,0.0,0.0,0.0,0.0,0.0,0.0,0.0,0.0,0.0,0.0,0.0,0.0,0.0,0.0,0.0,0.0,0.0,0.0,0.0,0.0,0.0,0.0,0.0,0.0,0.0,0.0,0.0,0.0,0.0,0.0,0.0,0.0,0.0,0.0,0.0,0.0,0.0,0.0,0.0,0.0,3.4578,3.6273,3.5782,3.5305,0.0,0.0,0.0,0.0,0.0,0.0,0.0,0.0,0.0,0.0,0.0,0.0,0.0,0.0,0.0,0.0,0.0,0.0,0.0,0.0,0.0,0.0,0.0,0.0,0.0,0.0,0.0,0.0,0.0,0.0,0.0,0.0,0.0,0.0,0.0,0.0,0.0,0.0,0.0,0.0,0.0,0.0,0.0,0.0,0.0,0.0,0.0,0.0,0.0,0.0,0.0,0.0,0.0,0.0,0.0,0.0,0.0,0.0,0.0,0.0,0.0,0.0,0.0,0.0,0.0,0.0,0.0,0.0,0.0,0.0,0.0,0.0,0.0,0.0,0.0,0.0,0.0,0.0,0.0,0.0,0.0,0.0,0.0,0.0,0.0,0.0,0.0,0.0,0.0,0.0,0.0,0.0,0.0,0.0,0.0,0.0,0.0,0.0,0.0,0.0,0.0,0.0,0.0,0.0,0.0,0.0,0.0,0.0,0.0,0.0,3.4724,3.5172,3.6457,3.5341,3.4491,3.4137,0.0,0.0,0.0,0.0,0.0,0.0,0.0,0.0,0.0,0.0,0.0,0.0,0.0,0.0,0.0,0.0,0.0,0.0,0.0,0.0,0.0,0.0,0.0,0.0,0.0,0.0,0.0,0.0,0.0,0.0,0.0,0.0,0.0,0.0,0.0,0.0,0.0,0.0,0.0,0.0,0.0,0.0,0.0,0.0,0.0,0.0,0.0,0.0,0.0,0.0,0.0,0.0,0.0,0.0,0.0,0.0,0.0,0.0,0.0,0.0,0.0,0.0,0.0,0.0,0.0,0.0,0.0,0.0,0.0,0.0,0.0,0.0,0.0,0.0,0.0,0.0,0.0,0.0,0.0,0.0,0.0,0.0,0.0,0.0,0.0,0.0,0.0,0.0,0.0,0.0,0.0,0.0,0.0,0.0,0.0,0.0,0.0,0.0,0.0,0.0,0.0,0.0,0.0,0.0,0.0,0.0,0.0,0.0,3.8204,3.6927,3.6604,3.7345,3.5092,3.4204,0.0,0.0,0.0,0.0,0.0,0.0,0.0,0.0,0.0,0.0,0.0,0.0,0.0,0.0,0.0,0.0,0.0,0.0,0.0,0.0,0.0,0.0,0.0,0.0,0.0,0.0,0.0,0.0,0.0,0.0,0.0,0.0,0.0,0.0,0.0,0.0,0.0,0.0,0.0,0.0,0.0,0.0,0.0,0.0,0.0,0.0,0.0,0.0,0.0,0.0,0.0,0.0,0.0,0.0,0.0,0.0,0.0,0.0,0.0,0.0,0.0,0.0,0.0,0.0,0.0,0.0,0.0,0.0,0.0,0.0,0.0,0.0,0.0,0.0,0.0,0.0,0.0,0.0,0.0,0.0,0.0,0.0,0.0,0.0,0.0,0.0,0.0,0.0,0.0,0.0,0.0,0.0,0.0,0.0,0.0,0.0,0.0,0.0,0.0,0.0,0.0,0.0,0.0,0.0,0.0,0.0,0.0,0.0,0.0,3.5532,3.653,3.6971,3.6714,3.587,3.5532,0.0,0.0,0.0,0.0,0.0,0.0,0.0,0.0,0.0,0.0,0.0,0.0,0.0,0.0,0.0,0.0,0.0,0.0,0.0,0.0,0.0,0.0,0.0,0.0,0.0,0.0,0.0,0.0,0.0,0.0,0.0,0.0,0.0,0.0,0.0,0.0,0.0,0.0,0.0,0.0,0.0,0.0,0.0,0.0,0.0,0.0,0.0,0.0,0.0,0.0,0.0,0.0,0.0,0.0,0.0,0.0,0.0,0.0,0.0,0.0,0.0,0.0,0.0,0.0,0.0,0.0,0.0,0.0,0.0,0.0,0.0,0.0,0.0,0.0,0.0,0.0,0.0,0.0,0.0,0.0,0.0,0.0,0.0,0.0,0.0,0.0,0.0,0.0,0.0,0.0,0.0,0.0,0.0,0.0,0.0,0.0,0.0,0.0,0.0,0.0,0.0,0.0,0.0,0.0,0.0,0.0,0.0,0.0,0.0,3.4651,0.0,3.7375,3.6347,3.6046,3.5642,0.0,0.0,0.0,0.0,0.0,0.0,0.0,0.0,0.0,0.0,0.0,0.0,0.0,0.0,0.0,0.0,0.0,0.0,0.0,0.0,0.0,0.0,0.0,0.0,0.0,0.0,0.0,0.0,0.0,0.0,0.0,0.0,0.0,0.0,0.0,0.0,0.0,0.0,0.0,0.0,0.0,0.0,0.0,0.0,0.0,0.0,0.0,0.0,0.0,0.0,0.0,0.0,0.0,0.0,0.0,0.0,0.0,0.0,0.0,0.0,0.0,0.0,0.0,0.0,0.0,0.0,0.0,0.0,0.0,0.0,0.0,0.0,0.0,0.0,0.0,0.0,0.0,0.0,0.0,0.0,0.0,0.0,0.0,0.0,0.0,0.0,0.0,0.0,0.0,0.0,0.0,0.0,0.0,0.0,0.0,0.0,0.0,0.0,0.0,0.0,0.0,0.0,0.0,0.0,0.0,0.0,0.0,0.0,3.38,3.6156,3.7808,3.7918,3.642,3.5562,3.4307,0.0,0.0,0.0,0.0,0.0,0.0,0.0,0.0,0.0,0.0,0.0,0.0,0.0,0.0,0.0,0.0,0.0,0.0,0.0,0.0,0.0,0.0,0.0,0.0,0.0,0.0,0.0,0.0,0.0,0.0,0.0,0.0,0.0,0.0,0.0,0.0,0.0,0.0,0.0,0.0,0.0,0.0,0.0,0.0,0.0,0.0,0.0,0.0,0.0,0.0,0.0,0.0,0.0,0.0,0.0,0.0,0.0,0.0,0.0,0.0,0.0,0.0,0.0,0.0,0.0,0.0,0.0,0.0,0.0,0.0,0.0,0.0,0.0,0.0,0.0,0.0,0.0,0.0,0.0,0.0,0.0,0.0,0.0,0.0,0.0,0.0,0.0,0.0,0.0,0.0,0.0,0.0,0.0,0.0,0.0,0.0,0.0,0.0,0.0,0.0,0.0,0.0,0.0,0.0,0.0,0.0,0.0,0.0,0.0,3.4578,3.6751,3.8182,3.866,3.6325,3.5584,0.0,0.0,0.0,0.0,0.0,0.0,0.0,0.0,0.0,0.0,0.0,0.0,0.0,0.0,0.0,0.0,0.0,0.0,0.0,0.0,0.0,0.0,0.0,0.0,0.0,0.0,0.0,0.0,0.0,0.0,0.0,0.0,0.0,0.0,0.0,0.0,0.0,0.0,0.0,0.0,0.0,0.0,0.0,0.0,0.0,0.0,0.0,0.0,0.0,0.0,0.0,0.0,0.0,0.0,0.0,0.0,0.0,0.0,0.0,0.0,0.0,0.0,0.0,0.0,0.0,0.0,0.0,0.0,0.0,0.0,0.0,0.0,0.0,0.0,0.0,0.0,0.0,0.0,0.0,0.0,0.0,0.0,0.0,0.0,0.0,0.0,0.0,0.0,0.0,0.0,0.0,0.0,0.0,0.0,0.0,0.0,0.0,0.0,0.0,0.0,0.0,0.0,0.0,0.0,0.0,0.0,0.0,0.0,0.0,3.5679,3.7734,3.9174,3.9871,3.7617,3.6655,3.7213,0.0,0.0,0.0,0.0,0.0,0.0,0.0,0.0,0.0,0.0,0.0,0.0,0.0,0.0,0.0,0.0,0.0,0.0,0.0,0.0,0.0,0.0,0.0,0.0,0.0,0.0,0.0,0.0,0.0,0.0,0.0,0.0,0.0,0.0,0.0,0.0,0.0,0.0,0.0,0.0,0.0,0.0,0.0,0.0,0.0,0.0,0.0,0.0,0.0,0.0,0.0,0.0,0.0,0.0,0.0,0.0,0.0,0.0,0.0,0.0,0.0,0.0,0.0,0.0,0.0,0.0,0.0,0.0,0.0,0.0,0.0,0.0,0.0,0.0,0.0,0.0,0.0,0.0,0.0,0.0,0.0,0.0,0.0,0.0,0.0,0.0,0.0,0.0,0.0,0.0,0.0,0.0,0.0,0.0,0.0,0.0,0.0,0.0,0.0,0.0,0.0,0.0,0.0,0.0,0.0,0.0,0.0,0.0,3.8865,4.0553,4.1067,4.0238,3.9203,3.7617,0.0,0.0,0.0,0.0,0.0,0.0,0.0,0.0,0.0,0.0,0.0,0.0,0.0,0.0,0.0,0.0,0.0,0.0,0.0,0.0,0.0,0.0,0.0,0.0,0.0,0.0,0.0,0.0,0.0,0.0,0.0,0.0,0.0,0.0,0.0,0.0,0.0,0.0,0.0,0.0,0.0,0.0,0.0,0.0,0.0,0.0,0.0,0.0,0.0,0.0,0.0,0.0,0.0,0.0,0.0,0.0,0.0,0.0,0.0,0.0,0.0,0.0,0.0,0.0,0.0,0.0,0.0,0.0,0.0,0.0,0.0,0.0,0.0,0.0,0.0,0.0,0.0,0.0,0.0,0.0,0.0,0.0,0.0,0.0,0.0,0.0,0.0,0.0,0.0,0.0,0.0,0.0,0.0,0.0,0.0,0.0,0.0,0.0,0.0,0.0,0.0,0.0,0.0,0.0,0.0,0.0,0.0,0.0,0.0,4.1332,4.4113,4.4874,4.3415,4.0377,3.8689,0.0,0.0,0.0,0.0,0.0,0.0,0.0,0.0,0.0,0.0,0.0,0.0,0.0,0.0,0.0,0.0,0.0,0.0,0.0,0.0,0.0,0.0,0.0,0.0,0.0,0.0,0.0,0.0,0.0,0.0,0.0,0.0,0.0,0.0,0.0,0.0,0.0,0.0,0.0,0.0,0.0,0.0,0.0,0.0,0.0,0.0,0.0,0.0,0.0,0.0,0.0,0.0,0.0,0.0,0.0,0.0,0.0,0.0,0.0,0.0,0.0,0.0,0.0,0.0,0.0,0.0,0.0,0.0,0.0,0.0,0.0,0.0,0.0,0.0,0.0,0.0,0.0,0.0,0.0,0.0,0.0,0.0,0.0,0.0,0.0,0.0,0.0,0.0,0.0,0.0,0.0,0.0,0.0,0.0,0.0,0.0,0.0,0.0,0.0,0.0,0.0,0.0,0.0,0.0,0.0,0.0,0.0,0.0,4.1405,4.3791,4.6654,4.7719,4.6764,4.3158,4.0634,0.0,0.0,0.0,0.0,0.0,0.0,0.0,0.0,0.0,0.0,0.0,0.0,0.0,0.0,0.0,0.0,0.0,0.0,0.0,0.0,0.0,0.0,0.0,0.0,0.0,0.0,0.0,0.0,0.0,0.0,0.0,0.0,0.0,0.0,0.0,0.0,0.0,0.0,0.0,0.0,0.0,0.0,0.0,0.0,0.0,0.0,0.0,0.0,0.0,0.0,0.0,0.0,0.0,0.0,0.0,0.0,0.0,0.0,0.0,0.0,0.0,0.0,0.0,0.0,0.0,0.0,0.0,0.0,0.0,0.0,0.0,0.0,0.0,0.0,0.0,0.0,0.0,0.0,0.0,0.0,0.0,0.0,0.0,0.0,0.0,0.0,0.0,0.0,0.0,0.0,0.0,0.0,0.0,0.0,0.0,0.0,0.0,0.0,0.0,0.0,0.0,0.0,0.0,0.0,0.0,0.0,0.0,0.0,4.3681,4.625,4.8609,4.9757,4.9537,4.6324,4.2837,0.0,0.0,0.0,0.0,0.0,0.0,0.0,0.0,0.0,0.0,0.0,0.0,0.0,0.0,0.0,0.0,0.0,0.0,0.0,0.0,0.0,0.0,0.0,0.0,0.0,0.0,0.0,0.0,0.0,0.0,0.0,0.0,0.0,0.0,0.0,0.0,0.0,0.0,0.0,0.0,0.0,0.0,0.0,0.0,0.0,0.0,0.0,0.0,0.0,0.0,0.0,0.0,0.0,0.0,0.0,0.0,0.0,0.0,0.0,0.0,0.0,0.0,0.0,0.0,0.0,0.0,0.0,0.0,0.0,0.0,0.0,0.0,0.0,0.0,0.0,0.0,0.0,0.0,0.0,0.0,0.0,0.0,0.0,0.0,0.0,0.0,0.0,0.0,0.0,0.0,0.0,0.0,0.0,0.0,0.0,0.0,0.0,0.0,0.0,0.0,0.0,0.0,0.0,0.0,0.0,0.0,0.0,0.0,4.5048,4.8719,5.0555,5.0886,4.9601,4.5819,4.2763,0.0,0.0,0.0,0.0,0.0,0.0,0.0,0.0,0.0,0.0,0.0,0.0,0.0,0.0,0.0,0.0,0.0,0.0,0.0,0.0,0.0,0.0,0.0,0.0,0.0,0.0,0.0,0.0,0.0,0.0,0.0,0.0,0.0,0.0,0.0,0.0,0.0,0.0,0.0,0.0,0.0,0.0,0.0,0.0,0.0,0.0,0.0,0.0,3.9892,0.0,0.0,0.0,0.0,0.0,0.0,0.0,0.0,0.0,0.0,0.0,0.0,0.0,0.0,0.0,0.0,0.0,0.0,0.0,0.0,0.0,0.0,0.0,0.0,0.0,0.0,0.0,0.0,0.0,0.0,0.0,0.0,0.0,0.0,0.0,0.0,0.0,0.0,0.0,0.0,0.0,0.0,0.0,0.0,0.0,0.0,0.0,0.0,0.0,0.0,0.0,0.0,0.0,0.0,0.0,0.0,0.0,0.0,0.0,4.6443,5.0031,5.0986,5.1022,5.0078,4.6948,4.3892,0.0,0.0,0.0,0.0,0.0,0.0,0.0,0.0,0.0,0.0,0.0,0.0,0.0,0.0,0.0,0.0,0.0,0.0,0.0,0.0,0.0,0.0,0.0,0.0,0.0,0.0,0.0,0.0,0.0,0.0,0.0,0.0,0.0,0.0,0.0,0.0,0.0,0.0,0.0,0.0,0.0,0.0,0.0,0.0,0.0,0.0,0.0,0.0,0.0,0.0,0.0,0.0,0.0,0.0,0.0,0.0,0.0,0.0,0.0,0.0,0.0,0.0,0.0,0.0,0.0,0.0,0.0,0.0,0.0,0.0,0.0,0.0,0.0,0.0,0.0,0.0,0.0,0.0,0.0,0.0,0.0,0.0,0.0,0.0,0.0,0.0,0.0,0.0,0.0,0.0,0.0,0.0,0.0,0.0,0.0,0.0,0.0,0.0,0.0,0.0,0.0,0.0,0.0,0.0,0.0,0.0,0.0,4.4158,4.7241,5.0618,5.0912,5.0865,5.0618,4.8443,4.5351,4.1315,0.0,0.0,0.0,0.0,0.0,0.0,0.0,0.0,0.0,0.0,0.0,0.0,0.0,0.0,0.0,0.0,0.0,0.0,0.0,0.0,0.0,0.0,0.0,0.0,0.0,0.0,0.0,0.0,0.0,0.0,0.0,0.0,0.0,0.0,0.0,0.0,0.0,0.0,3.9195,3.9753,0.0,0.0,0.0,0.0,0.0,0.0,0.0,0.0,4.0598,0.0,0.0,0.0,0.0,0.0,0.0,0.0,0.0,0.0,0.0,0.0,0.0,0.0,0.0,0.0,0.0,0.0,0.0,0.0,0.0,0.0,0.0,0.0,0.0,0.0,0.0,0.0,0.0,0.0,0.0,0.0,0.0,0.0,0.0,0.0,0.0,0.0,0.0,0.0,0.0,0.0,0.0,0.0,0.0,0.0,0.0,0.0,0.0,0.0,0.0,0.0,0.0,0.0,0.0,0.0,0.0,4.3029,4.3616,4.6149,5.0655,5.1463,5.1179,4.9821,4.871,4.5911,4.1425,0.0,0.0,0.0,0.0,0.0,0.0,0.0,0.0,0.0,0.0,0.0,0.0,0.0,0.0,0.0,0.0,0.0,0.0,0.0,0.0,0.0,0.0,0.0,0.0,0.0,0.0,0.0,0.0,0.0,0.0,0.0,0.0,0.0,0.0,0.0,0.0,0.0,0.0,0.0,4.125,4.1213,0.0,0.0,0.0,0.0,0.0,0.0,0.0,0.0,4.0642,0.0,0.0,0.0,0.0,0.0,0.0,0.0,0.0,0.0,0.0,0.0,0.0,0.0,0.0,0.0,0.0,0.0,0.0,0.0,0.0,0.0,0.0,0.0,0.0,0.0,0.0,0.0,0.0,0.0,0.0,0.0,0.0,0.0,0.0,0.0,0.0,0.0,0.0,0.0,0.0,0.0,0.0,0.0,0.0,0.0,0.0,0.0,0.0,0.0,0.0,0.0,0.0,0.0,0.0,0.0,4.2772,4.4929,4.7535,5.0655,5.0775,5.0381,4.961,4.7948,4.5177,0.0,0.0,0.0,0.0,0.0,0.0,0.0,0.0,0.0,0.0,0.0,0.0,0.0,0.0,0.0,0.0,0.0,0.0,0.0,0.0,0.0,0.0,0.0,0.0,0.0,0.0,0.0,0.0,0.0,0.0,0.0,0.0,0.0,0.0,0.0,0.0,0.0,0.0,0.0,0.0,4.2323,4.2608,4.3452,0.0,0.0,0.0,0.0,0.0,0.0,4.0752,4.0781,0.0,0.0,0.0,0.0,0.0,0.0,0.0,0.0,0.0,0.0,0.0,0.0,0.0,0.0,0.0,0.0,0.0,0.0,0.0,0.0,0.0,0.0,0.0,0.0,0.0,0.0,0.0,0.0,0.0,0.0,0.0,0.0,0.0,0.0,0.0,0.0,0.0,0.0,0.0,0.0,0.0,0.0,0.0,0.0,0.0,0.0,0.0,0.0,0.0,0.0,0.0,0.0,0.0,0.0,0.0,4.2359,4.6094,4.8847,5.0435,5.0078,4.9674,4.9307,4.7104,4.4378,0.0,0.0,0.0,0.0,0.0,0.0,0.0,0.0,0.0,0.0,0.0,0.0,0.0,0.0,0.0,0.0,0.0,0.0,0.0,0.0,0.0,0.0,0.0,0.0,0.0,0.0,0.0,0.0,0.0,0.0,0.0,0.0,0.0,0.0,0.0,0.0,0.0,0.0,0.0,0.0,0.0,4.3938,4.4378,4.3754,0.0,0.0,0.0,0.0,4.0039,4.1242,0.0,0.0,0.0,0.0,0.0,0.0,0.0,0.0,0.0,0.0,0.0,0.0,0.0,0.0,0.0,0.0,0.0,0.0,0.0,0.0,0.0,0.0,0.0,0.0,0.0,0.0,0.0,0.0,0.0,0.0,0.0,0.0,0.0,0.0,0.0,0.0,0.0,0.0,0.0,0.0,0.0,0.0,0.0,0.0,0.0,0.0,0.0,0.0,0.0,0.0,0.0,0.0,0.0,0.0,0.0,0.0,4.2286,4.5544,4.8086,4.9674,5.0325,4.9958,4.8489,4.6801,4.4378,0.0,0.0,0.0,0.0,0.0,0.0,0.0,0.0,0.0,0.0,0.0,0.0,0.0,0.0,0.0,0.0,0.0,0.0,0.0,0.0,0.0,0.0,0.0,0.0,0.0,0.0,0.0,0.0,0.0,0.0,0.0,0.0,0.0,0.0,0.0,0.0,0.0,0.0,0.0,0.0,0.0,4.4333,4.3726,4.2955,4.2323,0.0,0.0,4.2616,4.3819,4.5351,0.0,0.0,0.0,0.0,0.0,0.0,0.0,0.0,0.0,0.0,0.0,0.0,0.0,0.0,0.0,0.0,0.0,0.0,0.0,0.0,0.0,0.0,0.0,0.0,0.0,0.0,0.0,0.0,0.0,0.0,0.0,0.0,0.0,0.0,0.0,0.0,0.0,0.0,0.0,0.0,0.0,0.0,0.0,0.0,0.0,0.0,0.0,0.0,0.0,0.0,0.0,0.0,0.0,0.0,0.0,4.0451,4.2359,4.592,4.8379,4.9527,4.9444,4.903,4.8296,4.5847,4.3461,0.0,0.0,0.0,0.0,0.0,0.0,0.0,0.0,0.0,0.0,0.0,0.0,0.0,0.0,0.0,0.0,0.0,0.0,0.0,0.0,0.0,0.0,0.0,0.0,0.0,0.0,0.0,0.0,0.0,0.0,0.0,0.0,0.0,0.0,0.0,0.0,0.0,0.0,0.0,0.0,0.0,0.0,4.5048,4.5333,0.0,0.0,0.0,4.4626,4.3489,0.0,0.0,0.0,0.0,0.0,0.0,0.0,0.0,0.0,0.0,0.0,0.0,0.0,0.0,0.0,0.0,0.0,0.0,0.0,0.0,0.0,0.0,0.0,0.0,0.0,0.0,0.0,0.0,0.0,0.0,0.0,0.0,0.0,0.0,0.0,0.0,0.0,0.0,0.0,0.0,0.0,0.0,0.0,0.0,0.0,0.0,0.0,0.0,0.0,0.0,0.0,0.0,0.0,0.0,0.0,0.0,0.0,4.2653,4.6764,4.9224,4.9858,4.926,4.8737,4.826,4.5553,0.0,0.0,0.0,0.0,0.0,0.0,0.0,0.0,0.0,0.0,0.0,0.0,0.0,0.0,0.0,0.0,0.0,0.0,0.0,0.0,0.0,0.0,0.0,0.0,0.0,0.0,0.0,3.4908,0.0,0.0,0.0,0.0,0.0,0.0,0.0,0.0,0.0,0.0,0.0,0.0,0.0,0.0,4.7856,4.6654,4.7719,4.8113,0.0,0.0,4.6645,4.4488,4.6985,4.7562,0.0,0.0,0.0,0.0,0.0,0.0,0.0,0.0,0.0,0.0,0.0,0.0,0.0,0.0,0.0,0.0,0.0,0.0,0.0,0.0,0.0,0.0,0.0,0.0,0.0,0.0,0.0,0.0,0.0,0.0,0.0,0.0,0.0,0.0,0.0,0.0,0.0,0.0,0.0,0.0,0.0,0.0,0.0,0.0,0.0,0.0,0.0,0.0,0.0,0.0,0.0,0.0,0.0,0.0,0.0,4.3506,4.8159,5.0618,5.0729,5.0655,4.9874,4.8333,4.6654,4.4259,0.0,0.0,0.0,0.0,0.0,0.0,0.0,0.0,0.0,0.0,0.0,0.0,0.0,0.0,0.0,0.0,0.0,0.0,0.0,0.0,0.0,0.0,0.0,0.0,0.0,0.0,0.0,0.0,0.0,0.0,0.0,0.0,0.0,0.0,0.0,0.0,0.0,0.0,0.0,0.0,0.0,4.826,4.815,4.894,4.9968,0.0,0.0,4.8416,4.9023,5.0555,5.0105,4.525,0.0,0.0,0.0,0.0,0.0,0.0,0.0,0.0,0.0,0.0,0.0,0.0,0.0,0.0,0.0,0.0,0.0,0.0,0.0,0.0,0.0,0.0,0.0,0.0,0.0,0.0,0.0,0.0,0.0,0.0,0.0,0.0,0.0,0.0,0.0,0.0,0.0,0.0,0.0,0.0,0.0,0.0,0.0,0.0,0.0,0.0,0.0,0.0,0.0,0.0,0.0,0.0,0.0,4.1874,4.3506,4.7315,4.9738,5.0719,4.9801,4.8957,4.8333,4.6764,4.4599,0.0,0.0,0.0,0.0,0.0,0.0,0.0,0.0,0.0,0.0,0.0,0.0,0.0,0.0,0.0,0.0,0.0,0.0,0.0,0.0,0.0,0.0,0.0,0.0,0.0,0.0,0.0,0.0,3.9811,3.9974,3.9496,0.0,0.0,0.0,0.0,0.0,0.0,0.0,0.0,0.0,0.0,5.0582,5.0582,5.2134,0.0,0.0,5.2344,5.183,5.1179,5.1583,5.0518,4.614,4.4599,0.0,0.0,0.0,0.0,0.0,0.0,0.0,0.0,0.0,0.0,0.0,0.0,0.0,0.0,0.0,0.0,0.0,0.0,0.0,0.0,0.0,0.0,0.0,0.0,0.0,0.0,0.0,0.0,0.0,0.0,0.0,0.0,0.0,0.0,0.0,0.0,0.0,0.0,0.0,0.0,0.0,0.0,0.0,0.0,0.0,0.0,0.0,0.0,0.0,0.0,0.0,0.0,4.1874,4.3506,4.692,4.937,5.0765,4.9407,4.8563,4.826,4.6985,4.525,0.0,0.0,0.0,0.0,0.0,0.0,0.0,0.0,0.0,0.0,0.0,0.0,0.0,0.0,0.0,0.0,0.0,0.0,0.0,0.0,0.0,0.0,0.0,0.0,0.0,0.0,0.0,0.0,4.0736,4.0744,4.0634,0.0,0.0,0.0,0.0,0.0,0.0,0.0,0.0,0.0,0.0,5.238,5.2391,5.3812,5.4473,5.3361,5.3078,5.2574,5.1436,5.1473,5.0325,4.6517,0.0,0.0,0.0,0.0,0.0,0.0,0.0,0.0,0.0,0.0,0.0,0.0,0.0,0.0,0.0,0.0,0.0,0.0,0.0,0.0,0.0,0.0,0.0,0.0,0.0,0.0,0.0,0.0,0.0,0.0,3.8681,0.0,0.0,0.0,0.0,0.0,0.0,0.0,0.0,0.0,0.0,0.0,0.0,0.0,0.0,0.0,0.0,0.0,0.0,0.0,0.0,0.0,0.0,4.1911,4.3506,4.7471,4.9931,5.0765,5.0004,4.9123,4.8333,4.7526,4.6305,4.4663,0.0,0.0,0.0,0.0,0.0,0.0,0.0,0.0,0.0,0.0,0.0,0.0,0.0,0.0,0.0,0.0,0.0,0.0,0.0,0.0,0.0,0.0,0.0,0.0,0.0,0.0,4.0092,3.9981,4.0598,0.0,0.0,0.0,0.0,0.0,0.0,0.0,0.0,0.0,0.0,5.0608,5.3177,5.3177,5.3251,5.3361,5.3287,5.1363,4.9794,4.9831,5.0372,4.9701,0.0,0.0,0.0,0.0,0.0,0.0,0.0,0.0,0.0,0.0,0.0,0.0,0.0,0.0,0.0,0.0,0.0,0.0,0.0,0.0,0.0,0.0,0.0,0.0,0.0,0.0,0.0,4.0296,4.0296,0.0,0.0,0.0,0.0,0.0,0.0,0.0,0.0,0.0,0.0,0.0,4.5911,4.6434,0.0,0.0,0.0,0.0,0.0,0.0,0.0,0.0,0.0,0.0,0.0,0.0,4.2168,4.4333,4.7205,4.9407,5.0729,4.9444,4.86,4.8296,4.8039,4.6902,4.4773,0.0,0.0,0.0,0.0,0.0,0.0,0.0,0.0,0.0,0.0,0.0,0.0,0.0,0.0,0.0,0.0,0.0,0.0,0.0,0.0,0.0,0.0,0.0,0.0,0.0,4.2359,0.0,0.0,0.0,0.0,0.0,0.0,0.0,0.0,0.0,0.0,0.0,4.7113,4.9287,5.1206,5.2784,5.3849,5.4473,5.4987,0.0,0.0,0.0,0.0,0.0,0.0,0.0,0.0,0.0,0.0,0.0,0.0,0.0,0.0,5.0004,4.5186,4.4268,4.4443,4.4984,0.0,0.0,0.0,0.0,0.0,0.0,0.0,0.0,0.0,0.0,0.0,0.0,0.0,0.0,4.2535,0.0,4.2168,0.0,0.0,0.0,0.0,0.0,0.0,0.0,0.0,4.6535,4.8067,4.881,4.9334,4.9334,0.0,4.8517,4.6902,0.0,0.0,0.0,0.0,0.0,0.0,0.0,0.0,4.3269,4.514,4.7783,4.9848,5.1096,4.9591,4.8746,4.8746,4.8453,4.7562,4.6021,4.4406,4.291,0.0,0.0,0.0,0.0,0.0,0.0,0.0,0.0,0.0,0.0,0.0,0.0,0.0,0.0,0.0,0.0,0.0,0.0,0.0,0.0,0.0,0.0,0.0,4.3396,0.0,0.0,0.0,0.0,0.0,0.0,0.0,0.0,0.0,4.5948,4.7379,4.9177,5.1342,5.2344,5.3125,5.3885,0.0,0.0,0.0,0.0,0.0,0.0,0.0,5.1683,5.0592,4.9994,4.9874,5.0655,5.2123,5.3335,5.3581,0.0,0.0,4.9774,4.9114,4.9444,4.9948,5.0021,5.0241,5.1059,5.1416,5.1709,0.0,0.0,0.0,0.0,0.0,0.0,0.0,0.0,4.4993,4.5406,0.0,4.4387,0.0,0.0,0.0,0.0,0.0,4.4525,0.0,0.0,5.1269,5.2821,5.2134,5.2134,5.2123,5.206,5.1279,5.0435,4.9463,4.5755,0.0,0.0,0.0,0.0,0.0,0.0,4.514,4.6104,4.915,5.1169,5.1914,5.0445,4.9637,4.9564,4.8746,4.8296,4.8223,4.6764,4.559,4.4737,4.1772,0.0,0.0,0.0,0.0,0.0,0.0,0.0,0.0,0.0,0.0,0.0,0.0,0.0,0.0,0.0,0.0,0.0,0.0,0.0,0.0,4.3543,0.0,0.0,0.0,0.0,0.0,0.0,0.0,0.0,0.0,0.0,4.8627,4.9884,5.1426,5.2957,0.0,0.0,0.0,0.0,5.2957,5.2391,5.2207,5.2244,5.2317,5.3518,5.3959,5.2464,0.0,0.0,5.3544,5.4693,5.5548,5.4766,5.6014,5.6957,5.6859,5.5941,5.5475,5.5548,5.4399,5.3728,5.4363,5.4179,5.3875,4.9811,0.0,0.0,0.0,0.0,4.7361,4.871,5.0719,5.0141,4.9738,4.9297,4.7645,0.0,0.0,0.0,0.0,0.0,0.0,4.8379,4.9838,5.27,5.4216,5.4594,5.5133,5.5133,5.4557,5.3739,5.2968,5.216,5.1012,4.7719,4.2551,0.0,0.0,0.0,0.0,4.5957,4.8462,5.0031,5.1206,5.1987,5.0986,5.0178,4.9601,4.8746,4.8296,4.8296,4.7865,4.6975,4.5626,4.4672,0.0,0.0,0.0,0.0,0.0,0.0,0.0,0.0,0.0,0.0,0.0,0.0,0.0,0.0,0.0,0.0,0.0,0.0,0.0,4.4296,4.4856,4.4864,0.0,0.0,0.0,0.0,0.0,0.0,0.0,0.0,0.0,5.3335,5.238,5.205,0.0,0.0,5.2611,5.238,5.2821,5.3728,5.5207,5.5427,0.0,0.0,5.6554,5.6161,5.6271,5.7141,5.7728,5.7545,5.8327,5.8951,5.8694,5.9501,6.0248,6.0126,5.8621,5.7629,5.796,5.7765,5.7728,5.8462,5.8474,5.8352,5.7237,5.4289,5.1096,5.0435,5.1473,5.1463,5.2637,5.4572,5.4106,5.3812,5.3518,5.161,4.9728,4.8003,4.6553,0.0,0.0,0.0,5.1793,5.3739,5.55,5.6712,5.7483,5.7997,5.796,5.7457,5.6345,5.5574,5.5086,5.3801,5.1232,4.7388,0.0,0.0,4.5223,4.6801,4.8563,5.0518,5.1646,5.2307,5.2454,5.1683,5.0886,5.0078,4.927,4.882,4.882,4.8489,4.7856,4.6911,4.625,4.5223,0.0,0.0,0.0,0.0,0.0,0.0,0.0,0.0,0.0,0.0,0.0,4.2168,0.0,0.0,0.0,0.0,4.4158,4.4901,4.6021,4.6278,0.0,0.0,0.0,0.0,0.0,0.0,0.0,5.0765,5.3031,5.5086,5.6356,5.5291,5.4656,5.5489,5.4876,5.4373,5.4373,0.0,5.5746,5.7508,5.7765,5.8205,5.9453,5.8866,5.84,5.8877,5.9612,6.015,6.0187,6.0811,6.1325,6.141,6.1777,6.2071,6.2071,6.086,6.0052,6.0517,6.0627,6.0811,6.1251,6.1361,6.1361,6.4433,6.3809,5.6319,5.3995,5.5133,5.517,5.6051,5.7435,5.7373,5.7655,5.8107,5.5757,5.4216,5.3251,5.1132,0.0,5.2538,5.4153,5.6051,5.8217,5.9086,5.9857,6.0493,6.0493,6.0493,6.0456,5.8951,5.818,5.8033,5.5233,5.3691,5.3544,5.204,5.0765,4.9941,5.1253,5.206,5.2207,5.3628,5.4032,5.3287,5.2491,5.1683,5.0912,5.0041,4.9601,4.9574,4.8746,4.8296,4.826,4.6874,4.6067,4.592,0.0,0.0,0.0,0.0,0.0,0.0,0.0,0.0,0.0,0.0,0.0,0.0,0.0,0.0,0.0,4.5993,0.0,4.8159,4.7672,0.0,0.0,0.0,5.0298,5.1096,5.2674,5.3911,5.4546,0.0,0.0,5.8107,5.8253,5.8584,5.938,5.8621,5.7997,5.7997,5.7923,5.8364,5.9123,5.9343,5.9673,6.0517,6.0591,6.0529,6.0603,6.1227,6.163,6.1667,6.2169,6.2719,6.2879,6.2829,6.2829,6.2903,6.2719,6.2793,6.2683,6.2719,6.2719,6.2683,6.2683,6.2646,6.721,6.7467,6.4347,6.2585,6.179,6.179,6.2365,6.316,6.1912,6.1153,6.0578,5.8228,5.6381,5.5034,5.506,5.5647,5.6638,5.8253,5.9269,5.9905,6.1288,6.1728,6.1349,6.13,6.13,6.1227,6.0309,5.9832,5.9795,5.9061,5.807,5.6859,5.5868,5.4032,5.1546,5.1803,5.2601,5.3812,5.4216,5.4289,5.4106,5.3335,5.2527,5.172,5.0335,4.9601,4.9564,4.8783,4.8296,4.8296,4.7939,4.7462,4.6819,4.5104,0.0,0.0,0.0,0.0,0.0,0.0,0.0,0.0,0.0,4.4223,4.38,0.0,4.57,0.0,4.7021,4.7902,4.826,4.871,0.0,0.0,5.2417,5.3555,5.4373,5.6407,5.7398,5.6345,5.818,5.96,5.9795,6.0346,6.1043,6.1765,5.9648,5.7997,5.7997,5.8547,5.9196,6.0003,6.0639,6.13,6.1985,6.2205,6.2169,6.2242,6.2352,6.2499,6.2499,6.2683,6.2976,6.3576,6.3246,6.3086,6.3613,6.327,6.2829,6.2793,6.2793,6.2793,6.2793,6.2793,6.2793,6.9779,7.0367,6.8788,6.7393,6.6182,6.5081,6.4897,6.5215,6.4297,6.3637,6.3135,6.1447,6.0027,5.8841,5.9269,5.9942,6.075,6.163,6.2071,6.2108,6.2989,6.2915,6.2144,6.2144,6.2108,6.2108,6.1337,6.0933,6.0933,6.0603,5.993,5.9061,5.8657,5.7324,5.5244,5.3775,5.3518,5.4399,5.4399,5.4583,5.4876,5.4142,5.3324,5.2527,5.0629,4.9427,4.9013,4.7865,4.7232,4.7241,4.7241,4.7021,4.6571,4.5397,4.47,0.0,0.0,0.0,0.0,0.0,0.0,0.0,0.0,0.0,0.0,0.0,4.637,4.7425,4.9003,5.0251,5.0949,5.1767,5.2758,5.4032,5.5563,5.6859,5.7629,5.9245,6.0052,5.9526,6.0627,6.1471,6.1471,6.1838,6.2291,6.2756,6.1251,6.0162,6.0162,6.0517,6.0994,6.1398,6.1851,6.2242,6.2756,6.2793,6.2793,6.2793,6.2793,6.2793,6.2793,6.2793,6.2939,6.3356,6.3123,6.2939,6.3392,6.3172,6.2793,6.2793,6.2793,6.2793,6.2793,6.2793,6.2793,7.2188,7.2679,7.1174,7.011,6.9192,6.6976,6.5912,6.5595,6.5398,6.5215,6.5105,6.4494,6.3833,6.3123,6.3123,6.3527,6.4237,6.4249,6.4249,6.4237,6.4249,6.3796,6.2976,6.2976,6.2903,6.2756,6.2071,6.1741,6.1741,6.1043,6.0676,6.0566,6.0456,6.0003,5.9123,5.6308,5.484,5.4693,5.473,5.4987,5.5585,5.4693,5.3812,5.2847,5.0629,4.9013,4.815,4.6691,4.5883,4.5883,4.5883,4.5957,4.603,4.5296,4.4883,0.0,4.4232,0.0,0.0,0.0,0.0,0.0,0.0,0.0,0.0,4.6471,4.7609,4.9774,5.14,5.2978,5.4546,5.5427,5.6282,5.7178,5.8609,5.982,6.0603,6.1337,6.2034,6.2719,6.2793,6.2793,6.2756,6.2866,6.2939,6.2829,6.2829,6.2646,6.2719,6.2646,6.2646,6.2793,6.2793,6.2756,6.2793,6.2793,6.2793,6.2793,6.2793,6.2793,6.2793,6.2793,6.2866,6.2976,6.2939,6.2866,6.2939,6.2903,6.2793,6.2793,6.2793,6.2793,6.2793,6.2793,6.2793,7.4316,7.4353,7.3413,7.2532,7.1711,7.061,6.9032,6.7173,6.5888,6.4934,6.4396,6.4861,6.4995,6.4848,6.4848,6.4884,6.5081,6.5068,6.5068,6.5081,6.5068,6.464,6.387,6.387,6.3466,6.2829,6.2646,6.2572,6.2572,6.2426,6.1998,6.1374,6.0713,6.0003,5.9196,0.0,0.0,0.0,5.6345,5.6088,5.5585,5.4179,5.2747,5.1269,4.9481,0.0,4.7342,4.6397,4.5883,4.5883,4.5883,0.0,0.0,0.0,0.0,0.0,0.0,0.0,0.0,0.0,0.0,0.0,4.883,4.8426,4.7966,4.9664,5.1316,5.2407,5.3361,5.4583,5.6198,5.7079,5.8143,5.9563,6.0566,6.1447,6.2242,6.2499,6.2646,6.2756,6.2793,6.2793,6.2829,6.3392,6.3576,6.2939,6.3392,6.3503,6.2866,6.2793,6.2793,6.2793,6.2793,6.2793,6.2793,6.2793,6.2793,6.2793,6.2793,6.2793,6.2793,6.2793,6.3086,6.3613,6.3282,6.305,6.3649,6.3306,6.2793,6.2793,6.2793,6.2793,6.2793,6.2793,6.2793,7.5491,0.0,7.4625,7.3817,0.0,7.2239,7.0991,6.9412,6.8201,6.743,6.71,6.7504,6.7467,6.7013,6.6242,6.5888,6.5839,6.5081,6.4921,6.5288,6.5325,6.5068,6.4677,6.4273,6.3882,6.3429,6.2976,6.2793,6.2793,6.2793,6.2572,6.2218,6.1802,6.1361,6.0994,6.0199,5.8988,5.7409,5.7409,5.7189,5.676,5.56,5.4205,5.2601,0.0,0.0,0.0,0.0,0.0,0.0,0.0,0.0,0.0,0.0,0.0,4.7076,4.7498,4.8086,4.8884,4.9287,5.0215,5.1793,5.3052,5.2858,5.0865,5.2601,5.4263,5.5464,5.6638,5.785,5.9024,5.9893,6.0701,6.1508,6.1949,6.2352,6.2719,6.2793,6.2793,6.2793,6.2793,6.2793,6.2793,6.3123,6.327,6.2903,6.3172,6.3306,6.2903,6.2793,6.2793,6.2793,6.2793,6.2793,6.2793,6.2793,6.2793,6.2793,6.2793,6.2793,6.2793,6.2793,6.2976,6.3356,6.3086,6.2976,6.327,6.3099,6.2793,6.2793,6.2793,6.2793,6.2793,6.2793,6.2793,7.668,7.6497,7.5821,7.4992,7.4037,7.3413,7.2679,7.1857,0.0,0.0,0.0,7.0036,6.9743,6.9009,6.7577,6.6916,6.6843,6.5388,6.5081,6.5742,6.5742,6.5655,6.5472,6.4824,6.4433,6.4273,6.3466,6.3013,6.3013,6.2903,6.2793,6.2793,6.2793,6.2793,6.2756,6.2144,6.075,5.8731,5.8228,5.7997,5.796,5.6932,5.5673,5.4216,5.2123,5.0205,4.8563,4.7241,4.6471,4.6324,4.6324,4.6471,4.6764,4.7379,4.7893,4.8213,4.9481,5.0665,5.1573,5.227,5.3371,5.5133,5.7189,5.7226,5.4462,5.5611,5.7042,5.8522,5.9869,6.0933,6.1741,6.2401,6.2793,6.2793,6.2793,6.2793,6.2793,6.2793,6.2793,6.2793,6.2793,6.2793,6.2793,6.2989,6.2939,6.2866,6.3013,6.2939,6.2829,6.2793,6.2793,6.2793,6.2793,6.2793,6.2793,6.2793,6.2793,6.2793,6.2793,6.2793,6.2793,6.2793,6.2793,6.2866,6.2793,6.2829,6.2793,6.2829,6.2793,6.2793,6.2793,6.2793,6.2793,6.2793,6.2793,7.8862,7.8259,7.8112,7.7194,7.5763,7.5652,7.5139,7.4133,7.1358,6.9743,6.9105,6.9816,7.0036,6.9889,6.8972,6.8554,6.8518,6.7614,6.726,6.737,6.7357,6.699,6.6366,6.6219,6.5815,6.5118,6.431,6.3919,6.3833,6.3172,6.2793,6.2793,6.2793,6.2793,6.2793,6.2683,6.2144,6.1092,5.9061,5.7997,5.7971,5.5868,5.4315,5.3398,5.2417,5.1069,4.95,4.9197,4.8719,4.8012,4.7976,4.859,4.9994,5.0215,5.0902,5.2223,5.2553,5.3335,5.4814,5.5034,5.6088,5.8315,5.949,5.9563,5.8535,5.9196,6.0126,6.1019,6.13,6.1741,6.2536,6.2719,6.2793,6.2793,6.2793,6.2793,6.2793,6.2793,6.2793,6.2793,6.2793,6.2793,6.2866,6.3392,6.3503,6.3086,6.3282,6.3576,6.2976,6.2793,6.2793,6.2793,6.2793,6.2793,6.2793,6.2793,6.2793,6.2793,6.2793,6.2793,6.2793,6.2793,6.2793,6.2793,6.2793,6.2793,6.2793,6.2793,6.2793,6.2793,6.2793,6.2793,6.2793,6.2793,6.2793,7.9596,7.9265,7.9265,7.8552,7.7378,7.6497,7.5652,7.4793,7.3377,7.2275,7.1541,7.1431,7.1174,7.0697,6.9926,6.9302,6.8862,6.8068,6.77,6.77,6.77,6.7517,6.71,6.6696,6.6329,6.5888,6.4677,6.4103,6.4029,6.3233,6.2793,6.2793,6.2793,6.2793,6.2793,6.2793,6.2609,6.2242,6.075,5.9538,5.8646,5.7581,5.6407,5.5196,5.4363,5.3419,5.2244,5.1803,5.1353,5.0975,5.0975,5.1306,5.205,5.2517,5.3298,5.4436,5.5317,5.6345,5.7471,5.8364,5.9318,6.0419,6.1263,6.1545,6.1178,6.1068,6.1374,6.2144,6.2254,6.2389,6.2756,6.2793,6.2793,6.2793,6.2793,6.2793,6.2793,6.2793,6.2793,6.2793,6.2793,6.2793,6.2793,6.3135,6.3319,6.2903,6.3209,6.3233,6.2866,6.2793,6.2793,6.2793,6.2793,6.2793,6.2793,6.2793,6.2793,6.2793,6.2793,6.2793,6.2793,6.2793,6.2793,6.2793,6.2793,6.2793,6.2793,6.2793,6.2793,6.2793,6.2793,6.2793,6.2793,6.2793,6.2793,8.022,8.0073,8.0073,7.9633,7.8736,7.7304,7.6313,7.5726,7.5344,7.4808,7.4184,7.323,7.2422,7.1747,7.0807,7.0036,6.9376,6.8605,6.8251,6.8214,6.8068,6.7981,6.7884,6.7136,6.6769,6.6623,6.5301,6.464,6.453,6.3796,6.327,6.3086,6.2903,6.2793,6.2793,6.2793,6.2793,6.2756,6.2181,6.119,5.982,5.9563,5.8866,5.7691,5.6822,5.6124,5.55,5.4535,5.4095,5.4252,5.4095,5.4168,5.4572,5.5133,5.5831,5.6675,5.785,5.8877,5.971,6.108,6.1887,6.19,6.2462,6.2793,6.2756,6.2254,6.2108,6.2683,6.2756,6.2793,6.2793,6.2793,6.2793,6.2793,6.2793,6.2793,6.2793,6.2793,6.2793,6.2793,6.2793,6.2793,6.2793,6.2793,6.2829,6.2829,6.2793,6.2793,6.2793,6.2793,6.2793,6.2793,6.2793,6.2793,6.2793,6.2793,6.2793,6.2793,6.2793,6.2793,6.2793,6.2793,6.2793,6.2793,6.2793,6.2793,6.2793,6.2793,6.2793,6.2793,6.2793,6.2793,6.2793,6.2793,6.2793,8.1525,8.0938,8.0901,8.0424,7.9596,7.8699,7.8259,7.8002,7.668,7.5946,7.5689,7.4258,7.3575,7.3266,7.1894,7.1197,7.1013,7.0257,6.9889,6.9743,6.9119,6.8788,6.8678,6.7958,6.759,6.7444,6.6623,6.6145,6.6072,6.5338,6.4664,6.3992,6.3196,6.2793,6.2793,6.2793,6.2793,6.2793,6.2719,6.2254,6.141,6.0676,6.0236,6.0077,5.9269,5.8829,5.8572,5.7288,5.6822,5.7409,5.6847,5.7141,5.8389,5.8682,5.9086,5.9832,6.0077,6.0529,6.1337,6.2205,6.2646,6.2683,6.2719,6.2793,6.2793,6.2719,6.2719,6.2793,6.2793,6.2793,6.2793,6.2793,6.2793,6.2793,6.2793,6.2793,6.2793,6.2793,6.2793,6.2793,6.2793,6.2793,6.2793,6.2793,6.2793,6.2793,6.2793,6.2793,6.2793,6.2793,6.2793,6.2793,6.2793,6.2793,6.2793,6.2793,6.2793,6.2793,6.2793,6.2793,6.2793,6.2793,6.2793,6.2793,6.2793,6.2793,6.2793,6.2793,6.2793,6.2793,6.2793,6.2793,6.2793,6.2793,6.2793,8.2003,8.1709,8.1709,8.1232,8.0461,7.9653,7.9045,7.8516,7.7892,7.7304,7.6702,7.5616,7.4845,7.4353,7.3692,7.3179,7.2716,7.2386,7.1688,7.0807,6.9963,6.9376,6.8862,6.8104,6.77,6.7627,6.688,6.6512,6.6256,6.5191,6.442,6.4066,6.3233,6.2793,6.2793,6.2793,6.2793,6.2793,6.2793,6.2646,6.2254,6.152,6.0896,6.0419,6.0077,5.9893,5.9857,5.9233,5.9086,5.9391,5.9086,5.9233,5.9893,5.9942,6.026,6.1043,6.1545,6.1949,6.2279,6.2609,6.2793,6.2793,6.2793,6.2793,6.2793,6.2793,6.2793,6.2793,6.2793,6.2793,6.2793,6.2793,6.2793,6.2793,6.2793,6.2793,6.2793,6.2793,6.2793,6.2793,6.2793,6.2793,6.2793,6.2793,6.2793,6.2793,6.2793,6.2793,6.2793,6.2793,6.2793,6.2793,6.2793,6.2793,6.2793,6.2793,6.2793,6.2793,6.2793,6.2793,6.2793,6.2793,6.2793,6.2793,6.2793,6.2793,6.2793,6.2793,6.2793,6.2793,6.2793,6.2793,6.2793,6.2793,6.2793,8.2186,8.2186,8.2186,8.1856,8.1269,8.0461,7.9669,7.8919,7.8699,7.8112,7.7289,7.668,7.6114,7.5564,7.5124,7.4478,7.3744,7.3722,7.2973,7.16,7.0807,7.0,6.9192,6.8421,6.7921,6.7664,6.715,6.6856,6.6659,6.5485,6.4751,6.4617,6.3686,6.316,6.3123,6.2939,6.2793,6.2793,6.2793,6.2793,6.2719,6.2218,6.1667,6.1117,6.0823,6.0823,6.1031,6.0639,6.0639,6.1031,6.086,6.0823,6.1031,6.1068,6.1337,6.1887,6.2462,6.2793,6.2793,6.2793,6.2793,6.2793,6.2793,6.2793,6.2793,6.2793,6.2793,6.2793,6.2793,6.2793,6.2793,6.2793,6.2793,6.2793,6.2793,6.2793,6.2793,6.2793,6.2793,6.2793,6.2793,6.2793,6.2793,6.2793,6.2793,6.2793,6.2793,6.2793,6.2793,6.2793,6.2793,6.2793,6.2793,6.2793,6.2793,6.2793,6.2793,6.2793,6.2793,6.2793,6.2793,6.2793,6.2793,6.2793,6.2793,6.2793,6.2793,6.2793,6.2793,6.2793,6.2793,6.2793,6.2793,6.2793,6.2793,8.2186,8.2186,8.2186,8.215,8.2039,8.1269,8.0461,7.9633,7.8993,7.8148,7.7362,7.7289,7.7215,7.6995,7.5637,7.4515,7.3795,7.3722,7.323,7.2349,7.1564,7.0793,7.0,6.9229,6.8458,6.7847,6.7811,6.77,6.7627,6.6783,6.6402,6.6256,6.4714,6.3992,6.3882,6.3172,6.2793,6.2903,6.2903,6.2829,6.2829,6.2793,6.2719,6.2499,6.1924,6.1851,6.2352,6.1215,6.1117,6.2609,6.1924,6.1851,6.2536,6.2646,6.2609,6.2719,6.2756,6.2793,6.2793,6.2793,6.2793,6.2793,6.2793,6.2793,6.2793,6.2793,6.2793,6.2793,6.2793,6.2793,6.2793,6.2793,6.2793,6.2793,6.2793,6.2793,6.2793,6.2793,6.2793,6.2793,6.2793,6.2793,6.2793,6.2793,6.2793,6.2793,6.2793,6.2793,6.2793,6.2793,6.2793,6.2793,6.2793,6.2793,6.2793,6.2793,6.2793,6.2793,6.2793,6.2793,6.2793,6.2793,6.2793,6.2793,6.2793,6.2793,6.2793,6.2793,6.2793,6.2793,6.2793,6.2793,6.2793,6.2793,6.2793,8.2186,8.2186,8.2186,8.2186,8.215,8.1893,8.1012,7.989,8.0057,7.905,7.7619,7.7876,7.7803,7.7237,7.6702,7.5711,7.4515,7.3964,7.3266,7.2459,7.1674,7.116,7.083,7.0036,6.9229,6.8641,6.8972,6.8935,6.8348,6.7136,6.6512,6.6219,6.4897,6.4103,6.3956,6.3246,6.305,6.3576,6.3613,6.3649,6.3649,6.3649,6.338,6.2829,6.2499,6.2499,6.2793,6.2205,6.2205,6.2793,6.2536,6.2499,6.2756,6.2793,6.2793,6.2793,6.2793,6.2793,6.2793,6.2793,6.2793,6.2793,6.2793,6.2793,6.2793,6.2793,6.2793,6.2793,6.2793,6.2793,6.2793,6.2793,6.2793,6.2793,6.2793,6.2793,6.2793,6.2793,6.2793,6.2793,6.2793,6.2793,6.2793,6.2793,6.2793,6.2793,6.2793,6.2793,6.2793,6.2793,6.2793,6.2793,6.2793,6.2793,6.2793,6.2793,6.2793,6.2793,6.2793,6.2793,6.2793,6.2719,6.2683,6.2793,6.2793,6.2793,6.2793,6.2793,6.2793,6.2793,6.2793,6.2793,6.2793,6.2793,6.2793,8.2186,8.2186,8.2186,8.2186,8.2186,8.2186,8.1468,8.0293,8.0755,7.991,7.8442,7.8479,7.8259,7.7656,7.7142,7.6371,7.5322,7.4698,7.3891,7.2899,7.2312,7.1784,7.127,7.0734,7.0073,6.9412,6.9522,6.9302,6.8495,6.7393,6.6916,6.6783,6.5534,6.4874,6.4751,6.404,6.393,6.4383,6.4457,6.4457,6.4494,6.4494,6.4237,6.371,6.36,6.3306,6.2866,6.2793,6.2793,6.2793,6.2793,6.2793,6.2793,6.2793,6.2793,6.2829,6.3086,6.3086,6.2903,6.305,6.3086,6.2829,6.2793,6.2793,6.2793,6.2793,6.2793,6.2793,6.2793,6.2793,6.2793,6.2793,6.2793,6.2793,6.2793,6.2793,6.2793,6.2793,6.2793,6.2793,6.2793,6.2793,6.2793,6.2793,6.2793,6.2793,6.2793,6.2793,6.2793,6.2793,6.2793,6.2793,6.2793,6.2793,6.2793,6.2793,6.2793,6.2793,6.2511,6.2536,6.2646,6.2609,6.2609,6.2719,6.2793,6.2793,6.2793,6.2793,6.2793,6.2793,6.2793,6.2793,6.2793,6.2793,6.2793,8.2186,8.2186,8.2186,8.2186,8.2186,8.2186,8.1746,8.1012,8.0959,8.0388,7.9339,7.8919,7.8589,7.8185,7.7084,7.624,7.613,7.6019,7.5102,7.3685,7.3538,7.2716,7.1454,7.1344,7.0866,7.0073,6.9302,6.8605,6.8031,6.7737,6.759,6.7554,6.6769,6.6182,6.6402,6.5485,6.5178,6.5301,6.5301,6.5301,6.5325,6.5288,6.5228,6.5141,6.5105,6.4444,6.3013,6.2903,6.2976,6.2976,6.2903,6.2829,6.2903,6.2829,6.2793,6.2903,6.3539,6.3576,6.305,6.3613,6.3613,6.327,6.2939,6.3086,6.316,6.3086,6.3086,6.3123,6.2976,6.2866,6.2903,6.2829,6.2793,6.2793,6.2793,6.2793,6.2793,6.2793,6.2793,6.2793,6.2793,6.2793,6.2793,6.2793,6.2793,6.2793,6.2793,6.2793,6.2793,6.2793,6.2793,6.2793,6.2793,6.2793,6.2793,6.2793,6.2793,6.2756,6.2291,6.2108,6.2316,6.2352,6.2365,6.2475,6.2719,6.2756,6.2793,6.2793,6.2793,6.2793,6.2793,6.2793,6.2793,6.2793,6.2793,8.2186,8.2186,8.2186,8.2186,8.2186,8.2186,8.1746,8.1048,8.0995,8.0241,7.9213,7.9302,7.8809,7.7949,7.7708,7.7488,7.6959,7.6848,7.5799,7.4037,7.3722,7.3193,7.2312,7.2114,7.1688,7.0793,6.9545,6.9082,6.9082,6.8251,6.7958,6.8164,6.7173,6.6549,6.6476,6.5742,6.5521,6.6072,6.6109,6.6109,6.6109,6.6145,6.5888,6.5362,6.5288,6.4995,6.4517,6.4016,6.398,6.4444,6.398,6.3686,6.3613,6.3123,6.2829,6.2829,6.3013,6.3466,6.3723,6.3956,6.431,6.442,6.4481,6.4517,6.4517,6.4481,6.4444,6.4407,6.404,6.3686,6.3613,6.3123,6.2866,6.2793,6.2793,6.2793,6.2793,6.2793,6.2793,6.2793,6.2793,6.2793,6.2793,6.2793,6.2793,6.2793,6.2793,6.2793,6.2793,6.2793,6.2793,6.2793,6.2793,6.2793,6.2793,6.2793,6.2793,6.2719,6.2328,6.2034,6.2181,6.2181,6.2144,6.2328,6.2609,6.2756,6.2793,6.2793,6.2793,6.2793,6.2793,6.2793,6.2793,6.2793,6.2793,8.2186,8.2186,8.2186,8.2186,8.2186,8.2186,8.1929,8.1489,8.1452,8.0865,8.0167,8.0131,7.9507,7.8479,7.8516,7.8112,7.7362,7.7326,7.6298,7.4735,7.4221,7.3707,7.2973,7.2606,7.2078,7.127,7.0279,6.9876,7.0,6.9119,6.8715,6.8678,6.8164,6.7554,6.7026,6.6806,6.6843,6.6966,6.693,6.6953,6.6916,6.6916,6.6696,6.6292,6.6219,6.6182,6.6145,6.5411,6.5081,6.5191,6.4787,6.4567,6.4494,6.404,6.371,6.3783,6.4053,6.4347,6.4567,6.4861,6.5007,6.5288,6.5325,6.5288,6.5288,6.5325,6.5325,6.5215,6.4824,6.453,6.442,6.3796,6.3319,6.327,6.2976,6.2829,6.2793,6.2793,6.2793,6.2793,6.2793,6.2793,6.2793,6.2793,6.2793,6.2793,6.2793,6.2793,6.2793,6.2793,6.2793,6.2793,6.2793,6.2793,6.2793,6.2793,6.2793,6.2646,6.2401,6.2291,6.2328,6.2108,6.1998,6.2389,6.2683,6.2756,6.2793,6.2793,6.2793,6.2793,6.2793,6.2793,6.2793,6.2793,6.2793,8.2186,8.2186,8.2186,8.2186,8.2186,8.2186,8.215,8.215,8.2003,8.1893,8.1746,8.1122,8.0461,7.9706,7.9045,7.8332,7.7509,7.7289,7.6922,7.6019,7.5322,7.4515,7.356,7.2973,7.2224,7.138,7.116,7.0844,7.033,7.0,6.9779,6.9302,6.9596,6.9339,6.8288,6.8605,6.8495,6.8031,6.7847,6.7774,6.7884,6.7774,6.7811,6.7811,6.7737,6.7664,6.7554,6.688,6.6109,6.5508,6.5411,6.5375,6.5375,6.5325,6.5105,6.5105,6.5962,6.5802,6.5632,6.5852,6.6109,6.5742,6.5705,6.5448,6.5668,6.5765,6.5765,6.5705,6.5485,6.5375,6.5228,6.464,6.42,6.4053,6.3343,6.2866,6.2793,6.2793,6.2793,6.2793,6.2793,6.2793,6.2793,6.2793,6.2793,6.2793,6.2793,6.2793,6.2793,6.2793,6.2793,6.2793,6.2793,6.2793,6.2793,6.2793,6.2793,6.2719,6.2499,6.2401,6.2254,6.1998,6.2071,6.2426,6.2719,6.2756,6.2793,6.2793,6.2793,6.2793,6.2793,6.2793,6.2793,6.2793,6.2793,8.2186,8.2186,8.2186,8.2186,8.2186,8.2186,8.2186,8.2113,8.1562,8.1452,8.1305,8.1085,8.0608,7.9853,7.9596,7.9045,7.8295,7.7656,7.7252,7.6885,7.6151,7.4992,7.3927,7.3487,7.2679,7.1564,7.1527,7.1197,7.094,7.055,7.0367,7.0646,7.033,6.9977,6.9559,6.9633,6.9669,6.9412,6.8825,6.8898,6.9265,6.8825,6.8898,6.9376,6.8898,6.8605,6.8531,6.7811,6.7003,6.6256,6.6182,6.6182,6.6182,6.5802,6.5545,6.5508,6.5582,6.5912,6.6219,6.6439,6.6659,6.7063,6.7063,6.7076,6.7076,6.7076,6.7076,6.6966,6.6586,6.6182,6.6072,6.5448,6.5044,6.4811,6.3783,6.2939,6.2866,6.2793,6.2793,6.2793,6.2793,6.2793,6.2793,6.2793,6.2793,6.2793,6.2793,6.2793,6.2793,6.2793,6.2793,6.2793,6.2793,6.2793,6.2793,6.2793,6.2793,6.2793,6.2609,6.2389,6.2181,6.1851,6.2144,6.2572,6.2719,6.2793,6.2793,6.2793,6.2793,6.2793,6.2793,6.2793,6.2793,6.2793,6.2793,8.2186,8.2186,8.2186,8.2186,8.2186,8.2186,8.2186,8.2113,8.1709,8.1489,8.1525,8.1525,8.1048,8.0351,8.0277,7.9874,7.9119,7.8589,7.8222,7.7693,7.6995,7.5726,7.4551,7.4184,7.3692,7.2958,7.2775,7.2848,7.2738,7.2018,7.1762,7.1688,7.1358,7.0807,7.0073,7.044,7.0403,7.0073,6.9633,6.9669,7.0,6.9669,6.9633,6.9963,6.9596,6.9412,6.9302,6.8641,6.7981,6.7614,6.754,6.7504,6.754,6.743,6.699,6.6476,6.6609,6.7086,6.7393,6.7504,6.7871,6.8495,6.8692,6.8508,6.8274,6.8201,6.8164,6.7627,6.726,6.7063,6.6893,6.6292,6.5692,6.5215,6.4407,6.371,6.3429,6.3013,6.2829,6.2793,6.2793,6.2793,6.2793,6.2829,6.2793,6.2793,6.2793,6.2793,6.2793,6.2793,6.2793,6.2793,6.2793,6.2793,6.2793,6.2793,6.2793,6.2793,6.2756,6.2536,6.2328,6.1998,6.2291,6.2646,6.2756,6.2793,6.2793,6.2793,6.2793,6.2793,6.2793,6.2793,6.2793,6.2793,6.2793,8.2186,8.2186,8.2186,8.2186,8.2186,8.2186,8.2186,8.2186,8.2113,8.2113,8.2113,8.215,8.1709,8.1106,8.0938,8.0571,7.9926,7.9633,7.914,7.8442,7.7582,7.6445,7.5417,7.505,7.4735,7.439,7.472,7.4573,7.4147,7.3707,7.334,7.2826,7.2606,7.1835,7.1138,7.1233,7.0977,7.0624,7.033,7.0367,7.0513,7.0403,7.0367,7.055,7.0367,7.011,6.9889,6.9412,6.9032,6.9155,6.9068,6.8972,6.9045,6.9669,6.9302,6.8311,6.8458,6.8825,6.8972,6.8935,6.9229,6.9743,6.9926,6.9816,6.9155,6.8898,6.8531,6.8031,6.7774,6.759,6.7517,6.7003,6.6476,6.5925,6.5545,6.5044,6.442,6.3576,6.305,6.3013,6.305,6.2939,6.2903,6.2866,6.2793,6.2793,6.2793,6.2793,6.2793,6.2793,6.2793,6.2793,6.2793,6.2793,6.2793,6.2793,6.2793,6.2793,6.2793,6.2683,6.2683,6.2536,6.2646,6.2793,6.2793,6.2793,6.2793,6.2793,6.2793,6.2793,6.2793,6.2793,6.2793,6.2793,6.2793,8.2186,8.2186,8.2186,8.2186,8.2186,8.2186,8.2186,8.2186,8.2186,8.2186,8.2186,8.2186,8.2076,8.1856,8.1342,8.0901,8.0645,8.0147,7.9376,7.8552,7.7693,7.7215,7.6592,7.6151,7.5175,7.4625,7.4683,7.461,7.4147,7.4111,7.3964,7.4258,7.323,7.2679,7.2863,7.2422,7.2188,7.1908,7.1394,7.1394,7.1651,7.1321,7.1321,7.1688,7.127,7.0697,7.0183,6.9926,7.0132,7.0463,7.022,6.9926,6.9926,7.0073,6.9926,6.9669,6.9633,6.9853,6.9853,6.9853,6.9926,7.0183,7.0293,7.0036,6.9889,6.9288,6.8921,6.8531,6.8104,6.7884,6.7774,6.759,6.726,6.6916,6.6549,6.6182,6.5888,6.5215,6.4664,6.4517,6.4114,6.3833,6.3759,6.316,6.2976,6.2866,6.2793,6.2793,6.2793,6.2793,6.2793,6.2793,6.2793,6.2793,6.2793,6.2793,6.2793,6.2793,6.2793,6.2793,6.2793,6.2793,6.2793,6.2793,6.2793,6.2793,6.2793,6.2793,6.2793,6.2793,6.2793,6.2793,6.2793,6.2793,6.2793,8.2186,8.2186,8.2186,8.2186,8.2186,8.2186,8.2186,8.2186,8.2186,8.2186,8.2186,8.2186,8.2186,8.215,8.1782,8.1562,8.1379,8.0718,8.0167,7.9543,7.8589,7.7965,7.7729,7.7105,7.6166,7.5469,7.5821,7.5711,7.5395,7.4992,7.5102,7.5359,7.4184,7.3927,7.4184,7.3817,7.3435,7.3046,7.2679,7.2496,7.2386,7.2129,7.1967,7.2275,7.1784,7.116,7.1248,7.0844,7.1123,7.1541,7.1431,7.1027,7.0844,7.0991,7.0881,7.0257,7.0513,7.0624,7.066,7.0697,7.0844,7.1174,7.1211,7.0991,7.077,7.0243,6.9839,6.9522,6.9082,6.8715,6.8311,6.7811,6.7774,6.7627,6.737,6.7076,6.6893,6.6072,6.5325,6.5251,6.4848,6.4714,6.4383,6.3833,6.3503,6.3503,6.2903,6.2866,6.2793,6.2793,6.2793,6.2793,6.2793,6.2793,6.2793,6.2793,6.2793,6.2793,6.2793,6.2793,6.2793,6.2793,6.2793,6.2793,6.2793,6.2793,6.2793,6.2793,6.2793,6.2793,6.2793,6.2793,6.2793,6.2793,6.2793,8.2186,8.2186,8.2186,8.2186,8.2186,8.2186,8.2186,8.2186,8.2186,8.2186,8.2186,8.2186,8.2186,8.2186,8.215,8.215,8.1929,8.1379,8.0739,8.0555,7.914,7.8552,7.8259,7.7656,7.7142,7.7289,7.7105,7.7032,7.6665,7.6481,7.5983,7.6056,7.527,7.4867,7.4977,7.4867,7.4316,7.3634,7.3487,7.3266,7.2863,7.2716,7.2716,7.2642,7.2041,7.1857,7.2055,7.1835,7.1798,7.2459,7.2532,7.2151,7.1857,7.1967,7.2018,7.0587,7.1174,7.1431,7.149,7.1527,7.1762,7.2496,7.2459,7.2165,7.1637,7.1197,7.0793,7.0426,7.0,6.9669,6.9119,6.8678,6.8288,6.8178,6.8141,6.8031,6.7664,6.6623,6.6206,6.5815,6.5668,6.5485,6.5228,6.4787,6.442,6.4016,6.3392,6.2866,6.2829,6.2793,6.2793,6.2793,6.2793,6.2793,6.2793,6.2793,6.2793,6.2793,6.2793,6.2793,6.2793,6.2793,6.2793,6.2793,6.2793,6.2793,6.2793,6.2793,6.2793,6.2793,6.2793,6.2793,6.2793,6.2793,6.2793,8.2186,8.2186,8.2186,8.2186,8.2186,8.2186,8.2186,8.2186,8.2186,8.2186,8.2186,8.2186,8.2186,8.2186,8.2186,8.2186,8.2003,8.1489,8.1106,8.0828,7.9543,7.8809,7.8589,7.7913,7.7399,7.7326,7.7326,7.7105,7.6555,7.6166,7.6497,7.6665,7.5747,7.5307,7.5601,7.527,7.472,7.4111,7.3964,7.3795,7.356,7.3487,7.3487,7.345,7.2789,7.2569,7.2532,7.2459,7.2386,7.2496,7.2496,7.2459,7.2386,7.2496,7.2349,7.2092,7.2018,7.2165,7.2151,7.2298,7.2334,7.2496,7.2679,7.2606,7.2224,7.1784,7.149,7.105,7.055,7.0036,6.9926,6.9596,6.9633,6.9646,6.9426,6.9229,6.8715,6.8164,6.7614,6.7026,6.6623,6.6256,6.6035,6.5595,6.5007,6.4494,6.3906,6.3246,6.2829,6.2793,6.2793,6.2793,6.2793,6.2793,6.2793,6.2793,6.2793,6.2793,6.2793,6.2793,6.2793,6.2793,6.2793,6.2793,6.2793,6.2793,6.2793,6.2793,6.2793,6.2793,6.2793,6.2829,6.2793,6.2793,6.2793,8.2186,8.2186,8.2186,8.2186,8.2186,8.2186,8.2186,8.2186,8.2186,8.2186,8.2186,8.2186,8.2186,8.2186,8.2186,8.2186,8.2039,8.1856,8.1636,8.1305,8.0424,7.958,7.9176,7.8369,7.7729,7.7582,7.7656,7.7509,7.6775,7.6738,7.6959,7.7032,7.6445,7.6371,7.6592,7.6408,7.5637,7.5065,7.4882,7.4698,7.4368,7.4331,7.4331,7.4184,7.4001,7.378,7.367,7.3266,7.3377,7.3523,7.2973,7.2826,7.2973,7.3083,7.2936,7.2642,7.2569,7.2532,7.2642,7.2826,7.312,7.3193,7.345,7.3487,7.3193,7.2789,7.2261,7.1821,7.1197,7.072,7.072,7.0403,7.011,7.0,6.9853,6.9449,6.8972,6.8605,6.8274,6.7958,6.748,6.7136,6.699,6.6402,6.5632,6.4971,6.442,6.3759,6.305,6.2939,6.2976,6.3013,6.3013,6.2976,6.3013,6.3123,6.2903,6.2829,6.2939,6.2939,6.2793,6.2793,6.2793,6.2793,6.2793,6.2793,6.2829,6.2829,6.2829,6.2829,6.2939,6.2976,6.2866,6.2793,6.2903,8.2186,8.2186,8.2186,8.2186,8.2186,8.2186,8.2186,8.2186,8.2186,8.2186,8.2186,8.2186,8.2186,8.2186,8.2186,8.2186,8.2186,8.215,8.2113,8.1929,8.1269,8.0571,7.9984,7.9265,7.8552,7.8295,7.8479,7.8295,7.7472,7.7693,7.7656,7.7436,7.7399,7.7436,7.7252,7.7069,7.6775,7.635,7.6093,7.5726,7.5322,7.5124,7.5124,7.5087,7.4977,7.4793,7.4647,7.4221,7.4221,7.4258,7.3854,7.334,7.3817,7.3927,7.3634,7.312,7.2973,7.2936,7.2973,7.3487,7.3854,7.3634,7.4426,7.4331,7.378,7.3266,7.301,7.2532,7.1967,7.1527,7.1454,7.1027,7.0734,7.0587,7.022,6.9596,6.9522,6.9265,6.8972,6.8618,6.8214,6.7884,6.7664,6.726,6.6439,6.5632,6.5081,6.4604,6.393,6.3429,6.3356,6.3343,6.3306,6.3196,6.3306,6.3563,6.3233,6.2829,6.3086,6.3246,6.3025,6.2793,6.2866,6.2939,6.2793,6.2793,6.2829,6.2939,6.305,6.3135,6.3196,6.3123,6.2939,6.3135,6.3356,8.2186,8.2186,8.2186,8.2186,8.2186,8.2186,8.2186,8.2186,8.2186,8.2186,8.2186,8.2186,8.2186,8.2186,8.2186,8.2186,8.2186,8.2186,8.2186,8.2076,8.1452,8.1012,8.0718,8.0021,7.9543,7.925,7.9486,7.8699,7.8096,7.8809,7.8662,7.7876,7.8096,7.8148,7.7693,7.7546,7.6885,7.6313,7.6166,7.6093,7.5968,7.5946,7.5946,7.5799,7.5454,7.5124,7.516,7.4918,7.4918,7.494,7.4757,7.461,7.4771,7.4757,7.4757,7.4647,7.4536,7.4331,7.3854,7.4294,7.4551,7.4294,7.4683,7.4404,7.3927,7.3156,7.2716,7.2569,7.2349,7.2261,7.2188,7.2202,7.2165,7.1982,7.1578,7.1197,7.094,6.9853,6.9559,6.9486,6.9155,6.8582,6.8141,6.7737,6.726,6.6476,6.5742,6.5264,6.4787,6.4237,6.3943,6.398,6.404,6.3967,6.3894,6.4114,6.393,6.327,6.3453,6.3759,6.3649,6.3453,6.3123,6.3123,6.3086,6.316,6.338,6.349,6.3429,6.3649,6.393,6.3563,6.2976,6.3319,6.3906,8.2186,8.2186,8.2186,8.2186,8.2186,8.2186,8.2186,8.2186,8.2186,8.2186,8.2186,8.2186,8.2186,8.2186,8.2186,8.2186,8.2186,8.2186,8.2186,8.2186,8.1782,8.1415,8.1012,8.0608,8.0314,8.0073,8.0131,7.9947,7.9323,7.925,7.9302,7.8919,7.9029,7.9192,7.8405,7.8222,7.7928,7.7488,7.7121,7.6812,7.6775,7.6775,7.6775,7.679,7.6371,7.6225,7.6114,7.5747,7.5858,7.5894,7.5564,7.516,7.5469,7.5579,7.5564,7.5616,7.6041,7.5637,7.4735,7.5212,7.5212,7.5359,7.5601,7.5711,7.4551,7.3303,7.2532,7.2532,7.2532,7.2532,7.2532,7.2532,7.2532,7.2459,7.2312,7.1967,7.149,7.0807,7.0183,7.0146,7.011,6.9559,6.9059,6.8678,6.8054,6.6916,6.6256,6.5778,6.5375,6.4971,6.4787,6.4787,6.4861,6.4884,6.4774,6.4811,6.4848,6.4444,6.4481,6.4664,6.4517,6.4297,6.3967,6.404,6.4371,6.4334,6.4187,6.409,6.409,6.442,6.4811,6.4407,6.4077,6.4297,6.4751,8.2186,8.2186,8.2186,8.2186,8.2186,8.2186,8.2186,8.2186,8.2186,8.2186,8.2186,8.2186,8.2186,8.2186,8.2186,8.2186,8.2186,8.2186,8.2186,8.2186,8.2113,8.1856,8.1525,8.1232,8.1012,8.0367,8.1048,8.0938,8.0608,8.044,8.033,7.9853,7.9963,7.9706,7.9339,7.8809,7.8332,7.7913,7.7472,7.7252,7.7252,7.7252,7.7252,7.7289,7.7289,7.7326,7.7215,7.6775,7.6775,7.6775,7.6261,7.5968,7.6313,7.6371,7.6408,7.6481,7.6848,7.6665,7.6041,7.6078,7.6225,7.6335,7.6408,7.6114,7.494,7.356,7.2606,7.2569,7.2532,7.2532,7.2532,7.2532,7.2716,7.2532,7.2275,7.1967,7.1747,7.1394,7.1211,7.1248,7.1138,7.077,7.0257,6.9853,6.8898,6.7504,6.6769,6.6292,6.5999,6.5705,6.5705,6.5742,6.5962,6.5852,6.5325,6.5325,6.5398,6.5545,6.5545,6.5398,6.5178,6.5068,6.4884,6.5105,6.5435,6.5398,6.5154,6.4971,6.4787,6.5081,6.5325,6.5472,6.5435,6.5545,6.5582,8.2186,8.2186,8.2186,8.2186,8.2186,8.2186,8.2186,8.2186,8.2186,8.2186,8.2186,8.2186,8.2186,8.2186,8.2186,8.2186,8.2186,8.2186,8.2186,8.2186,8.215,8.2113,8.1929,8.1929,8.1966,8.1819,8.1893,8.1893,8.1929,8.1599,8.0954,8.011,8.055,7.9837,7.9323,7.8993,7.8479,7.806,7.7619,7.7472,7.7399,7.7362,7.7326,7.7326,7.7326,7.7326,7.7326,7.7252,7.7142,7.7326,7.7105,7.6848,7.6995,7.7032,7.6995,7.7069,7.7142,7.7069,7.6885,7.6812,7.6738,7.6387,7.613,7.6019,7.516,7.4221,7.3377,7.2863,7.301,7.2826,7.2716,7.2606,7.3156,7.3266,7.312,7.2936,7.2738,7.2496,7.2349,7.2349,7.2055,7.1615,7.1248,7.072,6.9963,6.8605,6.754,6.7063,6.6843,6.6623,6.6659,6.6769,6.715,6.6806,6.5815,6.5852,6.6366,6.6366,6.6256,6.5962,6.5632,6.5595,6.5852,6.5815,6.5999,6.6072,6.6182,6.6072,6.5962,6.5815,6.5912,6.6219,6.6292,6.6256,6.6329,8.2186,8.2186,8.2186,8.2186,8.2186,8.2186,8.2186,8.2186,8.2186,8.2186,8.2186,8.2186,8.2186,8.2186,8.2186,8.2186,8.2186,8.2186,8.2186,8.2186,8.2186,8.2186,8.2186,8.2186,8.2186,8.2186,8.2186,8.2186,8.215,8.2186,8.1966,8.1468,8.1085,8.0718,8.0131,7.9507,7.9066,7.8772,7.8332,7.8112,7.7986,7.7509,7.7326,7.7326,7.7326,7.7326,7.7399,7.7876,7.7693,7.7582,7.7818,7.7693,7.7399,7.7362,7.7399,7.7399,7.7399,7.7399,7.7362,7.7326,7.7142,7.6885,7.6423,7.5946,7.5542,7.4882,7.4441,7.4059,7.3876,7.3729,7.3949,7.3986,7.4169,7.428,7.4169,7.3891,7.3707,7.3487,7.2973,7.2789,7.2569,7.2224,7.1894,7.1564,7.0683,6.9743,6.8715,6.7871,6.7724,6.7627,6.7664,6.7664,6.7994,6.7994,6.7026,6.7173,6.748,6.7283,6.7063,6.6806,6.6623,6.6806,6.6953,6.6806,6.6659,6.6843,6.7003,6.715,6.7076,6.6769,6.6916,6.721,6.7173,6.6953,6.7063,8.2186,8.2186,8.2186,8.2186,8.2186,8.2186,8.2186,8.2186,8.2186,8.2186,8.2186,8.2186,8.2186,8.2186,8.2186,8.2186,8.2186,8.2186,8.2186,8.2186,8.2186,8.2186,8.2186,8.2186,8.2186,8.2186,8.2186,8.2186,8.2186,8.2186,8.2076,8.1856,8.1452,8.1048,8.0755,8.0257,7.9816,7.9633,7.9339,7.8972,7.8846,7.8479,7.7876,7.7839,7.7766,7.7546,7.7619,7.7949,7.7986,7.7839,7.7876,7.8002,7.7693,7.7509,7.7656,7.7693,7.7693,7.7693,7.7656,7.7399,7.7326,7.7142,7.6848,7.6423,7.6019,7.5579,7.516,7.4757,7.4793,7.494,7.494,7.472,7.4903,7.5014,7.472,7.4463,7.4551,7.4368,7.367,7.3156,7.2973,7.2826,7.2371,7.2004,7.1284,7.044,6.9596,6.8935,6.8825,6.8728,6.8692,6.8692,6.8728,6.8618,6.8435,6.8582,6.8641,6.8568,6.8348,6.8017,6.7907,6.7994,6.7737,6.737,6.7333,6.7627,6.7737,6.776,6.7737,6.7664,6.77,6.7627,6.759,6.737,6.7737,8.2186,8.2186,8.2186,8.2186,8.2186,8.2186,8.2186,8.2186,8.2186,8.2186,8.2186,8.2186,8.2186,8.2186,8.2186,8.2186,8.2186,8.2186,8.2186,8.2186,8.2186,8.2186,8.2186,8.2186,8.2186,8.2186,8.2186,8.2186,8.2186,8.2186,8.2186,8.2039,8.1562,8.1085,8.0938,8.022,7.9853,7.9853,7.9853,7.9779,7.9743,7.9559,7.9029,7.8699,7.8369,7.8038,7.7876,7.8369,7.8369,7.7876,7.8369,7.8332,7.7693,7.8112,7.8332,7.8405,7.8516,7.8552,7.8516,7.7803,7.7582,7.7518,7.7322,7.7126,7.6469,7.6093,7.6004,7.5784,7.538,7.516,7.505,7.5087,7.5601,7.5747,7.5454,7.5234,7.5322,7.5212,7.4515,7.378,7.3597,7.3413,7.2899,7.2386,7.1762,7.1064,7.0367,6.9963,6.9816,6.961,6.9449,6.9376,6.9339,6.9339,6.9302,6.9706,6.9816,6.9743,6.9486,6.9082,6.8641,6.8348,6.8091,6.7847,6.7737,6.7737,6.8054,6.8348,6.8421,6.8508,6.7847,6.7664,6.77,6.7884,6.8274,8.2186,8.2186,8.2186,8.2186,8.2186,8.2186,8.2186,8.2186,8.2186,8.2186,8.2186,8.2186,8.2186,8.2186,8.2186,8.2186,8.2186,8.2186,8.2186,8.2186,8.2186,8.2186,8.2186,8.2186,8.2186,8.2186,8.2186,8.2186,8.2186,8.2186,8.2186,8.2039,8.1856,8.1489,8.1122,8.0718,8.0791,8.1211,8.0938,8.0571,8.0534,8.0147,7.9743,7.9412,7.8972,7.8552,7.8259,7.8972,7.8919,7.8405,7.8956,7.8956,7.8369,7.8662,7.8662,7.8809,7.8956,7.9412,7.9376,7.9029,7.8699,7.8382,7.8057,7.8123,7.8345,7.7393,7.7157,7.7047,7.6592,7.6481,7.6555,7.6555,7.6812,7.6812,7.6592,7.6225,7.613,7.5873,7.5395,7.4588,7.4184,7.3854,7.3413,7.334,7.2826,7.2496,7.1945,7.0881,7.044,7.011,6.9889,6.9889,6.9889,7.0,7.0146,7.0477,7.055,7.0367,7.0146,6.9816,6.9376,6.8972,6.8715,6.8568,6.8164,6.7847,6.8531,6.9155,6.9412,6.9316,6.8728,6.8545,6.8875,6.8912,6.8898,8.2186,8.2186,8.2186,8.2186,8.2186,8.2186,8.2186,8.2186,8.2186,8.2186,8.2186,8.2186,8.2186,8.2186,8.2186,8.2186,8.2186,8.2186,8.2186,8.2186,8.2186,8.2186,8.2186,8.2186,8.2186,8.2186,8.2186,8.2186,8.2186,8.2186,8.2186,8.2186,8.2186,8.1893,8.1562,8.1525,8.1599,8.1856,8.1562,8.1415,8.1269,8.0975,8.0571,8.0167,7.9764,7.936,7.9339,7.9559,7.9853,7.9522,7.9543,7.9779,7.9323,7.925,7.936,7.9653,7.9837,8.0073,7.9816,8.0035,7.9716,7.9554,7.9076,7.9017,7.9264,7.8237,7.8148,7.8112,7.7965,7.8038,7.7986,7.7986,7.7656,7.7656,7.7252,7.6922,7.6702,7.6445,7.6166,7.538,7.4918,7.4515,7.4147,7.4184,7.4037,7.3817,7.3546,7.2422,7.1358,7.1027,7.077,7.0734,7.0844,7.1027,7.1138,7.1248,7.1211,7.0991,7.077,7.055,7.0257,6.9876,6.9596,6.9339,6.9082,6.9082,6.9559,7.0,7.022,7.011,6.9669,6.9706,7.0087,6.9926,6.9669,8.2186,8.2186,8.2186,8.2186,8.2186,8.2186,8.2186,8.2186,8.2186,8.2186,8.2186,8.2186,8.2186,8.2186,8.2186,8.2186,8.2186,8.2186,8.2186,8.2186,8.2186,8.2186,8.2186,8.2186,8.2186,8.2186,8.2186,8.2186,8.2186,8.2186,8.2186,8.2186,8.2186,8.2076,8.2039,8.2003,8.2076,8.2076,8.2076,8.1929,8.1819,8.1929,8.1489,8.1085,8.0718,8.0314,8.0241,8.0388,8.0351,8.0314,8.0461,8.0314,8.0314,8.0571,8.0828,8.1012,8.1012,8.0645,8.0409,8.0703,8.0827,8.0724,8.0304,7.9612,7.8972,7.8662,7.8405,7.8552,7.8552,7.9066,7.9376,7.8883,7.8405,7.8075,7.7619,7.7399,7.7252,7.7032,7.6738,7.6298,7.5983,7.5579,7.5065,7.4992,7.5065,7.5124,7.4867,7.4368,7.334,7.2459,7.2202,7.1908,7.2018,7.2239,7.2239,7.1982,7.1908,7.1688,7.1541,7.1321,7.1013,7.072,7.0353,7.0146,7.0146,7.0257,7.0463,7.072,7.0991,7.0844,7.0807,7.077,7.1101,7.055,7.0316,8.2186,8.2186,8.2186,8.2186,8.2186,8.2186,8.2186,8.2186,8.2186,8.2186,8.2186,8.2186,8.2186,8.2186,8.2186,8.2186,8.2186,8.2186,8.2186,8.2186,8.2186,8.2186,8.2186,8.2186,8.2186,8.2186,8.2186,8.2186,8.2186,8.2186,8.2186,8.2186,8.2186,8.2186,8.2186,8.2186,8.2186,8.2186,8.2186,8.2186,8.2186,8.2186,8.1929,8.1746,8.1305,8.0938,8.0901,8.0901,8.0865,8.0865,8.0865,8.0791,8.0791,8.0901,8.1122,8.1782,8.1819,8.1725,8.1574,8.1676,8.1745,8.1732,8.1468,8.1122,8.0167,7.914,7.8589,7.8993,7.9176,7.9507,7.9743,7.9412,7.8956,7.8552,7.8002,7.7436,7.7326,7.7252,7.6995,7.6885,7.6555,7.6276,7.5784,7.5747,7.5858,7.6188,7.6114,7.5652,7.4992,7.4001,7.3377,7.3046,7.2936,7.3046,7.2716,7.2422,7.2422,7.2386,7.2165,7.1982,7.1835,7.1505,7.1123,7.094,7.0954,7.1013,7.1123,7.138,7.1688,7.2202,7.2239,7.2129,7.1945,7.1505,7.1174,8.2186,8.2186,8.2186,8.2186,8.2186,8.2186,8.2186,8.2186,8.2186,8.2186,8.2186,8.2186,8.2186,8.2186,8.2186,8.2186,8.2186,8.2186,8.2186,8.2186,8.2186,8.2186,8.2186,8.2186,8.2186,8.2186,8.2186,8.2186,8.2186,8.2186,8.2186,8.2186,8.2186,8.2186,8.2186,8.2186,8.2186,8.2186,8.2186,8.2186,8.2186,8.2186,8.2186,8.2076,8.1599,8.1489,8.1452,8.1452,8.1452,8.1452,8.1489,8.1489,8.1489,8.1525,8.1562,8.2129,8.2113,8.2113,8.2019,8.2092,8.2166,8.2113,8.1929,8.1415,8.0865,7.9931,7.9874,8.0021,7.9874,7.98,7.9874,7.9853,7.9486,7.9103,7.8259,7.7399,7.7326,7.7326,7.7252,7.7215,7.6995,7.6738,7.6555,7.6555,7.6592,7.6812,7.6738,7.6335,7.5689,7.4808,7.428,7.3949,7.378,7.3707,7.334,7.3083,7.3083,7.2973,7.2532,7.2422,7.2422,7.2312,7.1945,7.1784,7.1747,7.1857,7.2004,7.2078,7.2386,7.2863,7.323,7.312,7.2936,7.2716,7.2459,8.2186,8.2186,8.2186,8.2186,8.2186,8.2186,8.215,8.2129,8.2039,8.2113,8.215,8.2186,8.2186,8.2186,8.2186,8.2186,8.2186,8.2186,8.2186,8.2186,8.2186,8.2186,8.2186,8.2186,8.2186,8.2186,8.2186,8.2186,8.2186,8.2186,8.2186,8.2186,8.2186,8.2186,8.2186,8.2186,8.2186,8.2186,8.2186,8.2186,8.2186,8.2186,8.2186,8.2186,8.2113,8.2113,8.2113,8.215,8.2186,8.2186,8.2166,8.2113,8.2076,8.2076,8.215,8.215,8.2186,8.2186,8.2186,8.2186,8.2186,8.1966,8.1562,8.1452,8.1122,8.0388,8.0241,8.0534,8.0424,8.0755,8.0938,8.0498,8.0021,7.9617,7.8993,7.839,7.817,7.8023,7.7729,7.7619,7.7326,7.7105,7.7069,7.7032,7.7142,7.7362,7.7399,7.7069,7.6481,7.5689,7.516,7.483,7.4463,7.4316,7.428,7.4037,7.3854,7.356,7.3156,7.312,7.334,7.312,7.2753,7.2863,7.3032,7.2885,7.2922,7.312,7.323,7.334,7.367,7.3854,7.3817,7.378,7.367,8.2186,8.2186,8.2186,8.2186,8.2186,8.2186,8.1856,8.1305,8.1269,8.1636,8.2129,8.215,8.215,8.2076,8.215,8.215,8.2113,8.215,8.2186,8.2186,8.2186,8.2186,8.2186,8.2186,8.2186,8.2186,8.2186,8.2186,8.2186,8.2186,8.2186,8.2186,8.2186,8.2186,8.2186,8.2186,8.2186,8.2186,8.2186,8.2186,8.2186,8.2186,8.2186,8.2186,8.2186,8.2186,8.2186,8.2186,8.2186,8.2186,8.2186,8.2186,8.2186,8.2186,8.2186,8.2186,8.2186,8.2186,8.2186,8.2186,8.2186,8.2186,8.1966,8.1966,8.1562,8.0661,8.0388,8.0828,8.1195,8.1636,8.1709,8.1122,8.0571,8.0167,7.9727,7.9396,7.9066,7.8699,7.8332,7.8038,7.7693,7.7619,7.7619,7.7656,7.7729,7.7913,7.8185,7.8038,7.7509,7.6812,7.6114,7.5674,7.505,7.4867,7.4977,7.4903,7.4698,7.4551,7.4258,7.4221,7.4221,7.4001,7.3766,7.4169,7.4353,7.4023,7.3913,7.428,7.4353,7.4133,7.4426,7.4771,7.4955,7.4955,7.4808,8.2186,8.2186,8.2186,8.2003,8.1746,8.2039,8.1562,8.0681,8.0828,8.1048,8.1195,8.1489,8.1672,8.1782,8.2003,8.1893,8.1819,8.2039,8.215,8.2186,8.2186,8.2186,8.2186,8.2186,8.2186,8.2186,8.2186,8.2186,8.2186,8.2186,8.2186,8.2186,8.2186,8.2186,8.2186,8.2186,8.2186,8.2186,8.2186,8.2186,8.2186,8.2186,8.2186,8.2186,8.2186,8.2186,8.2186,8.2186,8.2186,8.2186,8.2186,8.2186,8.2186,8.2186,8.2186,8.2186,8.2186,8.2186,8.2186,8.2186,8.2186,8.2186,8.2186,8.2076,8.2092,8.1358,8.1305,8.1672,8.1672,8.2039,8.1856,8.1379,8.0975,8.0608,8.0057,7.9633,7.9486,7.9286,7.9103,7.9029,7.8809,7.8772,7.8809,7.8846,7.8883,7.8883,7.9082,7.9045,7.8516,7.7839,7.7179,7.6738,7.6225,7.5968,7.6188,7.5894,7.5469,7.5359,7.538,7.4977,7.4793,7.4793,7.4867,7.5014,7.5014,7.4757,7.4793,7.5124,7.4977,7.461,7.516,7.5836,7.5931,7.6114,7.6151,8.1929,8.1909,8.1872,8.1562,8.1158,8.1709,8.1195,8.011,8.0498,8.0351,7.9853,8.0388,8.0665,8.1085,8.1452,8.1305,8.1342,8.1636,8.1893,8.2186,8.2186,8.2186,8.2186,8.2186,8.2186,8.2186,8.2186,8.2186,8.2186,8.2186,8.2186,8.2186,8.2186,8.2186,8.2186,8.2186,8.2186,8.2186,8.2186,8.2186,8.2186,8.2186,8.2186,8.2186,8.2186,8.2186,8.2186,8.2186,8.2186,8.2186,8.2186,8.2186,8.2186,8.2186,8.2186,8.2186,8.2186,8.2186,8.2186,8.2186,8.2186,8.2186,8.2186,8.2186,8.2203,8.215,8.2113,8.2113,8.2113,8.2076,8.1893,8.1746,8.1379,8.1122,8.0571,8.0183,8.0147,8.0036,7.9963,7.9926,7.9816,7.9764,7.9779,7.9816,7.989,7.989,7.9853,7.9816,7.9559,7.8772,7.8075,7.8002,7.7892,7.7708,7.7472,7.7252,7.6827,7.6754,7.6717,7.5946,7.5491,7.5784,7.5821,7.5527,7.5491,7.5601,7.5564,7.5711,7.5454,7.5417,7.6225,7.7011,7.7084,7.7304,7.7582,8.0828,8.0257,8.0257,8.0498,8.0938,8.1158,8.0681,7.9926,7.9926,7.9596,7.9029,7.8956,7.936,8.0021,8.0147,8.033,8.0938,8.1232,8.1746,8.2113,8.2186,8.2186,8.2186,8.2186,8.2186,8.2186,8.2186,8.2186,8.2186,8.2186,8.2186,8.2186,8.2186,8.2186,8.2186,8.2186,8.2186,8.2186,8.2186,8.2186,8.2186,8.2186,8.2186,8.2186,8.2186,8.2186,8.2186,8.2186,8.2186,8.2186,8.2186,8.2186,8.2186,8.2186,8.2186,8.2186,8.2186,8.2186,8.2186,8.2186,8.2186,8.2186,8.2186,8.2186,8.2186,8.2186,8.215,8.215,8.215,8.215,8.2039,8.2039,8.1819,8.1819,8.1489,8.1452,8.1452,8.1085,8.0755,8.0534,8.0314,8.0204,8.011,8.0257,8.0498,8.044,8.0183,8.0147,8.0183,7.958,7.8956,7.9103,7.9286,7.8919,7.8479,7.8809,7.8605,7.8458,7.8148,7.7561,7.7194,7.7069,7.6959,7.6445,7.6592,7.6848,7.6775,7.6702,7.6885,7.7032,7.7671,7.8222,7.8259,7.8332,7.8589]}]]